<?xml version="1.0" encoding="UTF-8" standalone="no" ?>
<gpx xmlns="http://www.topografix.com/GPX/1/1" xmlns:xsi="http://www.w3.org/2001/XMLSchema-instance" xsi:schemaLocation="http://www.topografix.com/GPX/1/1 http://www.topografix.com/GPX/1/1/gpx.xsd" version="1.1" creator="VisuGPX - https://www.visugpx.com">
  <metadata>
    <name>petit et gran Som depuis la ruchère J1</name>
    <desc><![CDATA[Rando Bivouac sur deux jours, au départ de la Ruchère.]]></desc>
  </metadata>
  <trk>
    <name><![CDATA[petit et gran Som depuis la ruchère J1_1]]></name>
    <trkseg>
      <trkpt lat="45.40827" lon="5.79649">
        <ele>1162.5</ele>
        <time>2022-07-27T14:52:46Z</time>
      </trkpt>
      <trkpt lat="45.40819" lon="5.79652">
        <ele>1163.6</ele>
        <time>2022-07-27T14:52:51Z</time>
      </trkpt>
      <trkpt lat="45.40813" lon="5.79655">
        <ele>1164.3</ele>
        <time>2022-07-27T14:52:56Z</time>
      </trkpt>
      <trkpt lat="45.40811" lon="5.79655">
        <ele>1164.6</ele>
        <time>2022-07-27T14:52:58Z</time>
      </trkpt>
      <trkpt lat="45.40807" lon="5.79657">
        <ele>1165.1</ele>
        <time>2022-07-27T14:53:01Z</time>
      </trkpt>
      <trkpt lat="45.40805" lon="5.79655">
        <ele>1165.5</ele>
        <time>2022-07-27T14:53:06Z</time>
      </trkpt>
      <trkpt lat="45.40802" lon="5.79657">
        <ele>1165.9</ele>
        <time>2022-07-27T14:53:11Z</time>
      </trkpt>
      <trkpt lat="45.408" lon="5.79657">
        <ele>1166.3</ele>
        <time>2022-07-27T14:53:13Z</time>
      </trkpt>
      <trkpt lat="45.40797" lon="5.79659">
        <ele>1166.7</ele>
        <time>2022-07-27T14:53:16Z</time>
      </trkpt>
      <trkpt lat="45.40795" lon="5.79658">
        <ele>1167.1</ele>
        <time>2022-07-27T14:53:19Z</time>
      </trkpt>
      <trkpt lat="45.40791" lon="5.79657">
        <ele>1167.8</ele>
        <time>2022-07-27T14:53:24Z</time>
      </trkpt>
      <trkpt lat="45.40782" lon="5.79652">
        <ele>1169.3</ele>
        <time>2022-07-27T14:53:36Z</time>
      </trkpt>
      <trkpt lat="45.40779" lon="5.79652">
        <ele>1169.8</ele>
        <time>2022-07-27T14:53:41Z</time>
      </trkpt>
      <trkpt lat="45.40776" lon="5.79651">
        <ele>1170.4</ele>
        <time>2022-07-27T14:53:44Z</time>
      </trkpt>
      <trkpt lat="45.40771" lon="5.7965">
        <ele>1171.6</ele>
        <time>2022-07-27T14:53:49Z</time>
      </trkpt>
      <trkpt lat="45.40768" lon="5.7965">
        <ele>1172.3</ele>
        <time>2022-07-27T14:53:51Z</time>
      </trkpt>
      <trkpt lat="45.40767" lon="5.7965">
        <ele>1172.6</ele>
        <time>2022-07-27T14:53:53Z</time>
      </trkpt>
      <trkpt lat="45.40764" lon="5.7965">
        <ele>1173.3</ele>
        <time>2022-07-27T14:53:56Z</time>
      </trkpt>
      <trkpt lat="45.40762" lon="5.79648">
        <ele>1173.8</ele>
        <time>2022-07-27T14:54:00Z</time>
      </trkpt>
      <trkpt lat="45.40752" lon="5.79647">
        <ele>1176.2</ele>
        <time>2022-07-27T14:54:12Z</time>
      </trkpt>
      <trkpt lat="45.40743" lon="5.79646">
        <ele>1178.6</ele>
        <time>2022-07-27T14:54:22Z</time>
      </trkpt>
      <trkpt lat="45.40735" lon="5.79652">
        <ele>1180.3</ele>
        <time>2022-07-27T14:54:32Z</time>
      </trkpt>
      <trkpt lat="45.40725" lon="5.79655">
        <ele>1190</ele>
        <time>2022-07-27T14:54:55Z</time>
      </trkpt>
      <trkpt lat="45.40716" lon="5.7965">
        <ele>1190</ele>
        <time>2022-07-27T14:55:03Z</time>
      </trkpt>
      <trkpt lat="45.40709" lon="5.79641">
        <ele>1194</ele>
        <time>2022-07-27T14:55:15Z</time>
      </trkpt>
      <trkpt lat="45.40701" lon="5.79635">
        <ele>1194</ele>
        <time>2022-07-27T14:55:39Z</time>
      </trkpt>
      <trkpt lat="45.40696" lon="5.79628">
        <ele>1194</ele>
        <time>2022-07-27T14:55:46Z</time>
      </trkpt>
      <trkpt lat="45.40696" lon="5.79625">
        <ele>1194</ele>
        <time>2022-07-27T14:55:48Z</time>
      </trkpt>
      <trkpt lat="45.40693" lon="5.79612">
        <ele>1194</ele>
        <time>2022-07-27T14:55:57Z</time>
      </trkpt>
      <trkpt lat="45.4069" lon="5.79605">
        <ele>1194</ele>
        <time>2022-07-27T14:56:08Z</time>
      </trkpt>
      <trkpt lat="45.40688" lon="5.79605">
        <ele>1194</ele>
        <time>2022-07-27T14:56:11Z</time>
      </trkpt>
      <trkpt lat="45.40685" lon="5.79602">
        <ele>1203</ele>
        <time>2022-07-27T14:56:15Z</time>
      </trkpt>
      <trkpt lat="45.40684" lon="5.79601">
        <ele>1203</ele>
        <time>2022-07-27T14:56:18Z</time>
      </trkpt>
      <trkpt lat="45.40677" lon="5.79591">
        <ele>1203</ele>
        <time>2022-07-27T14:56:32Z</time>
      </trkpt>
      <trkpt lat="45.40675" lon="5.7959">
        <ele>1206</ele>
        <time>2022-07-27T14:56:35Z</time>
      </trkpt>
      <trkpt lat="45.40667" lon="5.79583">
        <ele>1206</ele>
        <time>2022-07-27T14:56:43Z</time>
      </trkpt>
      <trkpt lat="45.40661" lon="5.79583">
        <ele>1206</ele>
        <time>2022-07-27T14:56:52Z</time>
      </trkpt>
      <trkpt lat="45.4066" lon="5.79583">
        <ele>1206</ele>
        <time>2022-07-27T14:56:54Z</time>
      </trkpt>
      <trkpt lat="45.40657" lon="5.79583">
        <ele>1206</ele>
        <time>2022-07-27T14:56:56Z</time>
      </trkpt>
      <trkpt lat="45.40656" lon="5.79584">
        <ele>1206</ele>
        <time>2022-07-27T14:56:59Z</time>
      </trkpt>
      <trkpt lat="45.40653" lon="5.79584">
        <ele>1206</ele>
        <time>2022-07-27T14:57:03Z</time>
      </trkpt>
      <trkpt lat="45.40651" lon="5.79584">
        <ele>1210</ele>
        <time>2022-07-27T14:57:05Z</time>
      </trkpt>
      <trkpt lat="45.40649" lon="5.79583">
        <ele>1210</ele>
        <time>2022-07-27T14:57:08Z</time>
      </trkpt>
      <trkpt lat="45.40644" lon="5.79582">
        <ele>1211</ele>
        <time>2022-07-27T14:57:15Z</time>
      </trkpt>
      <trkpt lat="45.40641" lon="5.79577">
        <ele>1211</ele>
        <time>2022-07-27T14:57:21Z</time>
      </trkpt>
      <trkpt lat="45.40633" lon="5.79569">
        <ele>1211</ele>
        <time>2022-07-27T14:57:29Z</time>
      </trkpt>
      <trkpt lat="45.40632" lon="5.79565">
        <ele>1211</ele>
        <time>2022-07-27T14:57:33Z</time>
      </trkpt>
      <trkpt lat="45.40629" lon="5.79564">
        <ele>1213</ele>
        <time>2022-07-27T14:57:35Z</time>
      </trkpt>
      <trkpt lat="45.40627" lon="5.79563">
        <ele>1213</ele>
        <time>2022-07-27T14:57:38Z</time>
      </trkpt>
      <trkpt lat="45.40625" lon="5.79562">
        <ele>1213</ele>
        <time>2022-07-27T14:57:42Z</time>
      </trkpt>
      <trkpt lat="45.40617" lon="5.79556">
        <ele>1213</ele>
        <time>2022-07-27T14:57:56Z</time>
      </trkpt>
      <trkpt lat="45.40609" lon="5.79548">
        <ele>1213</ele>
        <time>2022-07-27T14:58:06Z</time>
      </trkpt>
      <trkpt lat="45.406" lon="5.79545">
        <ele>1213</ele>
        <time>2022-07-27T14:58:18Z</time>
      </trkpt>
      <trkpt lat="45.4059" lon="5.79542">
        <ele>1213</ele>
        <time>2022-07-27T14:58:34Z</time>
      </trkpt>
      <trkpt lat="45.40584" lon="5.79552">
        <ele>1222</ele>
        <time>2022-07-27T14:58:45Z</time>
      </trkpt>
      <trkpt lat="45.40576" lon="5.79556">
        <ele>1222</ele>
        <time>2022-07-27T14:58:58Z</time>
      </trkpt>
      <trkpt lat="45.40566" lon="5.79557">
        <ele>1222</ele>
        <time>2022-07-27T14:59:12Z</time>
      </trkpt>
      <trkpt lat="45.40557" lon="5.79558">
        <ele>1222</ele>
        <time>2022-07-27T14:59:22Z</time>
      </trkpt>
      <trkpt lat="45.40551" lon="5.79562">
        <ele>1222</ele>
        <time>2022-07-27T14:59:27Z</time>
      </trkpt>
      <trkpt lat="45.4055" lon="5.79564">
        <ele>1222</ele>
        <time>2022-07-27T14:59:30Z</time>
      </trkpt>
      <trkpt lat="45.40543" lon="5.79573">
        <ele>1222</ele>
        <time>2022-07-27T14:59:39Z</time>
      </trkpt>
      <trkpt lat="45.4054" lon="5.79575">
        <ele>1222</ele>
        <time>2022-07-27T14:59:42Z</time>
      </trkpt>
      <trkpt lat="45.40538" lon="5.79576">
        <ele>1222</ele>
        <time>2022-07-27T14:59:46Z</time>
      </trkpt>
      <trkpt lat="45.40536" lon="5.79576">
        <ele>1222</ele>
        <time>2022-07-27T14:59:52Z</time>
      </trkpt>
      <trkpt lat="45.40531" lon="5.79571">
        <ele>1222</ele>
        <time>2022-07-27T15:00:01Z</time>
      </trkpt>
      <trkpt lat="45.40528" lon="5.79571">
        <ele>1222</ele>
        <time>2022-07-27T15:00:04Z</time>
      </trkpt>
      <trkpt lat="45.40526" lon="5.7957">
        <ele>1222</ele>
        <time>2022-07-27T15:00:07Z</time>
      </trkpt>
      <trkpt lat="45.40517" lon="5.79568">
        <ele>1222</ele>
        <time>2022-07-27T15:00:19Z</time>
      </trkpt>
      <trkpt lat="45.40513" lon="5.79562">
        <ele>1222</ele>
        <time>2022-07-27T15:00:27Z</time>
      </trkpt>
      <trkpt lat="45.40508" lon="5.7955">
        <ele>1234</ele>
        <time>2022-07-27T15:00:35Z</time>
      </trkpt>
      <trkpt lat="45.40498" lon="5.79547">
        <ele>1234</ele>
        <time>2022-07-27T15:00:43Z</time>
      </trkpt>
      <trkpt lat="45.40488" lon="5.79546">
        <ele>1234</ele>
        <time>2022-07-27T15:00:59Z</time>
      </trkpt>
      <trkpt lat="45.40479" lon="5.79549">
        <ele>1234</ele>
        <time>2022-07-27T15:01:17Z</time>
      </trkpt>
      <trkpt lat="45.40477" lon="5.7955">
        <ele>1234</ele>
        <time>2022-07-27T15:01:23Z</time>
      </trkpt>
      <trkpt lat="45.40476" lon="5.7955">
        <ele>1234</ele>
        <time>2022-07-27T15:01:26Z</time>
      </trkpt>
      <trkpt lat="45.40474" lon="5.7955">
        <ele>1234</ele>
        <time>2022-07-27T15:01:30Z</time>
      </trkpt>
      <trkpt lat="45.40472" lon="5.79552">
        <ele>1242</ele>
        <time>2022-07-27T15:01:35Z</time>
      </trkpt>
      <trkpt lat="45.40469" lon="5.79552">
        <ele>1242</ele>
        <time>2022-07-27T15:01:42Z</time>
      </trkpt>
      <trkpt lat="45.40464" lon="5.79547">
        <ele>1242</ele>
        <time>2022-07-27T15:01:49Z</time>
      </trkpt>
      <trkpt lat="45.40455" lon="5.79543">
        <ele>1242</ele>
        <time>2022-07-27T15:02:01Z</time>
      </trkpt>
      <trkpt lat="45.40446" lon="5.79547">
        <ele>1242</ele>
        <time>2022-07-27T15:02:11Z</time>
      </trkpt>
      <trkpt lat="45.40443" lon="5.79549">
        <ele>1242</ele>
        <time>2022-07-27T15:02:14Z</time>
      </trkpt>
      <trkpt lat="45.40438" lon="5.7955">
        <ele>1242</ele>
        <time>2022-07-27T15:02:19Z</time>
      </trkpt>
      <trkpt lat="45.40437" lon="5.79549">
        <ele>1242</ele>
        <time>2022-07-27T15:02:23Z</time>
      </trkpt>
      <trkpt lat="45.40435" lon="5.79548">
        <ele>1242</ele>
        <time>2022-07-27T15:02:27Z</time>
      </trkpt>
      <trkpt lat="45.40433" lon="5.79548">
        <ele>1242</ele>
        <time>2022-07-27T15:02:33Z</time>
      </trkpt>
      <trkpt lat="45.40431" lon="5.79549">
        <ele>1242</ele>
        <time>2022-07-27T15:02:36Z</time>
      </trkpt>
      <trkpt lat="45.40429" lon="5.79549">
        <ele>1242</ele>
        <time>2022-07-27T15:02:39Z</time>
      </trkpt>
      <trkpt lat="45.40427" lon="5.79548">
        <ele>1242</ele>
        <time>2022-07-27T15:02:44Z</time>
      </trkpt>
      <trkpt lat="45.40425" lon="5.7955">
        <ele>1242</ele>
        <time>2022-07-27T15:02:51Z</time>
      </trkpt>
      <trkpt lat="45.40423" lon="5.79553">
        <ele>1242</ele>
        <time>2022-07-27T15:02:56Z</time>
      </trkpt>
      <trkpt lat="45.40421" lon="5.79554">
        <ele>1242</ele>
        <time>2022-07-27T15:03:02Z</time>
      </trkpt>
      <trkpt lat="45.40419" lon="5.79555">
        <ele>1242</ele>
        <time>2022-07-27T15:03:04Z</time>
      </trkpt>
      <trkpt lat="45.40415" lon="5.79556">
        <ele>1242</ele>
        <time>2022-07-27T15:03:09Z</time>
      </trkpt>
      <trkpt lat="45.40412" lon="5.79556">
        <ele>1242</ele>
        <time>2022-07-27T15:03:12Z</time>
      </trkpt>
      <trkpt lat="45.4041" lon="5.79556">
        <ele>1256</ele>
        <time>2022-07-27T15:03:15Z</time>
      </trkpt>
      <trkpt lat="45.40408" lon="5.79555">
        <ele>1256</ele>
        <time>2022-07-27T15:03:17Z</time>
      </trkpt>
      <trkpt lat="45.40405" lon="5.79556">
        <ele>1256</ele>
        <time>2022-07-27T15:03:20Z</time>
      </trkpt>
      <trkpt lat="45.40403" lon="5.79556">
        <ele>1256</ele>
        <time>2022-07-27T15:03:22Z</time>
      </trkpt>
      <trkpt lat="45.40402" lon="5.79553">
        <ele>1256</ele>
        <time>2022-07-27T15:03:28Z</time>
      </trkpt>
      <trkpt lat="45.404" lon="5.79553">
        <ele>1256</ele>
        <time>2022-07-27T15:03:31Z</time>
      </trkpt>
      <trkpt lat="45.40398" lon="5.79553">
        <ele>1256</ele>
        <time>2022-07-27T15:03:34Z</time>
      </trkpt>
      <trkpt lat="45.40396" lon="5.79552">
        <ele>1256</ele>
        <time>2022-07-27T15:03:37Z</time>
      </trkpt>
      <trkpt lat="45.40394" lon="5.79552">
        <ele>1256</ele>
        <time>2022-07-27T15:03:41Z</time>
      </trkpt>
      <trkpt lat="45.40393" lon="5.7955">
        <ele>1256</ele>
        <time>2022-07-27T15:03:44Z</time>
      </trkpt>
      <trkpt lat="45.40391" lon="5.79548">
        <ele>1256</ele>
        <time>2022-07-27T15:03:46Z</time>
      </trkpt>
      <trkpt lat="45.40389" lon="5.79547">
        <ele>1256</ele>
        <time>2022-07-27T15:03:49Z</time>
      </trkpt>
      <trkpt lat="45.40387" lon="5.79545">
        <ele>1256</ele>
        <time>2022-07-27T15:03:51Z</time>
      </trkpt>
      <trkpt lat="45.40385" lon="5.79542">
        <ele>1256</ele>
        <time>2022-07-27T15:03:53Z</time>
      </trkpt>
      <trkpt lat="45.40383" lon="5.79541">
        <ele>1263</ele>
        <time>2022-07-27T15:03:55Z</time>
      </trkpt>
      <trkpt lat="45.40381" lon="5.79541">
        <ele>1263</ele>
        <time>2022-07-27T15:03:59Z</time>
      </trkpt>
      <trkpt lat="45.40379" lon="5.79541">
        <ele>1263</ele>
        <time>2022-07-27T15:04:01Z</time>
      </trkpt>
      <trkpt lat="45.40376" lon="5.7954">
        <ele>1263</ele>
        <time>2022-07-27T15:04:03Z</time>
      </trkpt>
      <trkpt lat="45.40374" lon="5.79541">
        <ele>1263</ele>
        <time>2022-07-27T15:04:06Z</time>
      </trkpt>
      <trkpt lat="45.40372" lon="5.7954">
        <ele>1263</ele>
        <time>2022-07-27T15:04:09Z</time>
      </trkpt>
      <trkpt lat="45.4037" lon="5.7954">
        <ele>1263</ele>
        <time>2022-07-27T15:04:12Z</time>
      </trkpt>
      <trkpt lat="45.40368" lon="5.79539">
        <ele>1263</ele>
        <time>2022-07-27T15:04:16Z</time>
      </trkpt>
      <trkpt lat="45.40367" lon="5.79537">
        <ele>1263</ele>
        <time>2022-07-27T15:04:19Z</time>
      </trkpt>
      <trkpt lat="45.40365" lon="5.79536">
        <ele>1263</ele>
        <time>2022-07-27T15:04:22Z</time>
      </trkpt>
      <trkpt lat="45.40362" lon="5.79535">
        <ele>1267</ele>
        <time>2022-07-27T15:04:25Z</time>
      </trkpt>
      <trkpt lat="45.4036" lon="5.79533">
        <ele>1267</ele>
        <time>2022-07-27T15:04:27Z</time>
      </trkpt>
      <trkpt lat="45.40358" lon="5.79533">
        <ele>1267</ele>
        <time>2022-07-27T15:04:30Z</time>
      </trkpt>
      <trkpt lat="45.40356" lon="5.79532">
        <ele>1267</ele>
        <time>2022-07-27T15:04:31Z</time>
      </trkpt>
      <trkpt lat="45.40354" lon="5.79531">
        <ele>1267</ele>
        <time>2022-07-27T15:04:34Z</time>
      </trkpt>
      <trkpt lat="45.40353" lon="5.79529">
        <ele>1267</ele>
        <time>2022-07-27T15:04:37Z</time>
      </trkpt>
      <trkpt lat="45.40351" lon="5.79529">
        <ele>1267</ele>
        <time>2022-07-27T15:04:40Z</time>
      </trkpt>
      <trkpt lat="45.40349" lon="5.79528">
        <ele>1267</ele>
        <time>2022-07-27T15:04:43Z</time>
      </trkpt>
      <trkpt lat="45.40346" lon="5.79527">
        <ele>1267</ele>
        <time>2022-07-27T15:04:46Z</time>
      </trkpt>
      <trkpt lat="45.40344" lon="5.79527">
        <ele>1267</ele>
        <time>2022-07-27T15:04:49Z</time>
      </trkpt>
      <trkpt lat="45.40342" lon="5.79526">
        <ele>1267</ele>
        <time>2022-07-27T15:04:50Z</time>
      </trkpt>
      <trkpt lat="45.4034" lon="5.79526">
        <ele>1267</ele>
        <time>2022-07-27T15:04:52Z</time>
      </trkpt>
      <trkpt lat="45.40337" lon="5.79525">
        <ele>1271</ele>
        <time>2022-07-27T15:04:55Z</time>
      </trkpt>
      <trkpt lat="45.40335" lon="5.79524">
        <ele>1271</ele>
        <time>2022-07-27T15:04:58Z</time>
      </trkpt>
      <trkpt lat="45.40333" lon="5.79522">
        <ele>1271</ele>
        <time>2022-07-27T15:05:00Z</time>
      </trkpt>
      <trkpt lat="45.4033" lon="5.7952">
        <ele>1271</ele>
        <time>2022-07-27T15:05:02Z</time>
      </trkpt>
      <trkpt lat="45.40329" lon="5.79519">
        <ele>1271</ele>
        <time>2022-07-27T15:05:04Z</time>
      </trkpt>
      <trkpt lat="45.40327" lon="5.79518">
        <ele>1271</ele>
        <time>2022-07-27T15:05:06Z</time>
      </trkpt>
      <trkpt lat="45.40325" lon="5.79517">
        <ele>1271</ele>
        <time>2022-07-27T15:05:08Z</time>
      </trkpt>
      <trkpt lat="45.40324" lon="5.79515">
        <ele>1271</ele>
        <time>2022-07-27T15:05:10Z</time>
      </trkpt>
      <trkpt lat="45.40322" lon="5.79514">
        <ele>1271</ele>
        <time>2022-07-27T15:05:12Z</time>
      </trkpt>
      <trkpt lat="45.4032" lon="5.79512">
        <ele>1271</ele>
        <time>2022-07-27T15:05:14Z</time>
      </trkpt>
      <trkpt lat="45.40319" lon="5.79511">
        <ele>1271</ele>
        <time>2022-07-27T15:05:16Z</time>
      </trkpt>
      <trkpt lat="45.40317" lon="5.79509">
        <ele>1271</ele>
        <time>2022-07-27T15:05:19Z</time>
      </trkpt>
      <trkpt lat="45.40315" lon="5.79507">
        <ele>1271</ele>
        <time>2022-07-27T15:05:21Z</time>
      </trkpt>
      <trkpt lat="45.40313" lon="5.79506">
        <ele>1271</ele>
        <time>2022-07-27T15:05:23Z</time>
      </trkpt>
      <trkpt lat="45.40311" lon="5.79506">
        <ele>1271</ele>
        <time>2022-07-27T15:05:27Z</time>
      </trkpt>
      <trkpt lat="45.40308" lon="5.79506">
        <ele>1271</ele>
        <time>2022-07-27T15:05:30Z</time>
      </trkpt>
      <trkpt lat="45.40306" lon="5.79507">
        <ele>1271</ele>
        <time>2022-07-27T15:05:32Z</time>
      </trkpt>
      <trkpt lat="45.40304" lon="5.79506">
        <ele>1271</ele>
        <time>2022-07-27T15:05:34Z</time>
      </trkpt>
      <trkpt lat="45.40301" lon="5.79507">
        <ele>1271</ele>
        <time>2022-07-27T15:05:36Z</time>
      </trkpt>
      <trkpt lat="45.403" lon="5.79507">
        <ele>1271</ele>
        <time>2022-07-27T15:05:38Z</time>
      </trkpt>
      <trkpt lat="45.40298" lon="5.79507">
        <ele>1271</ele>
        <time>2022-07-27T15:05:40Z</time>
      </trkpt>
      <trkpt lat="45.40295" lon="5.79506">
        <ele>1271</ele>
        <time>2022-07-27T15:05:42Z</time>
      </trkpt>
      <trkpt lat="45.40294" lon="5.79506">
        <ele>1271</ele>
        <time>2022-07-27T15:05:44Z</time>
      </trkpt>
      <trkpt lat="45.40291" lon="5.79505">
        <ele>1272</ele>
        <time>2022-07-27T15:05:46Z</time>
      </trkpt>
      <trkpt lat="45.40288" lon="5.79504">
        <ele>1272</ele>
        <time>2022-07-27T15:05:49Z</time>
      </trkpt>
      <trkpt lat="45.40286" lon="5.79503">
        <ele>1272</ele>
        <time>2022-07-27T15:05:52Z</time>
      </trkpt>
      <trkpt lat="45.40284" lon="5.79502">
        <ele>1272</ele>
        <time>2022-07-27T15:05:55Z</time>
      </trkpt>
      <trkpt lat="45.40282" lon="5.79502">
        <ele>1272</ele>
        <time>2022-07-27T15:05:57Z</time>
      </trkpt>
      <trkpt lat="45.40279" lon="5.79504">
        <ele>1272</ele>
        <time>2022-07-27T15:05:59Z</time>
      </trkpt>
      <trkpt lat="45.40277" lon="5.79504">
        <ele>1272</ele>
        <time>2022-07-27T15:06:02Z</time>
      </trkpt>
      <trkpt lat="45.40275" lon="5.79505">
        <ele>1271</ele>
        <time>2022-07-27T15:06:05Z</time>
      </trkpt>
      <trkpt lat="45.40273" lon="5.79506">
        <ele>1271</ele>
        <time>2022-07-27T15:06:07Z</time>
      </trkpt>
      <trkpt lat="45.40271" lon="5.79507">
        <ele>1271</ele>
        <time>2022-07-27T15:06:09Z</time>
      </trkpt>
      <trkpt lat="45.4027" lon="5.79509">
        <ele>1271</ele>
        <time>2022-07-27T15:06:11Z</time>
      </trkpt>
      <trkpt lat="45.40268" lon="5.79511">
        <ele>1271</ele>
        <time>2022-07-27T15:06:13Z</time>
      </trkpt>
      <trkpt lat="45.40265" lon="5.79513">
        <ele>1271</ele>
        <time>2022-07-27T15:06:15Z</time>
      </trkpt>
      <trkpt lat="45.40264" lon="5.79515">
        <ele>1271</ele>
        <time>2022-07-27T15:06:17Z</time>
      </trkpt>
      <trkpt lat="45.40261" lon="5.79517">
        <ele>1271</ele>
        <time>2022-07-27T15:06:19Z</time>
      </trkpt>
      <trkpt lat="45.40259" lon="5.79518">
        <ele>1271</ele>
        <time>2022-07-27T15:06:21Z</time>
      </trkpt>
      <trkpt lat="45.40257" lon="5.79519">
        <ele>1271</ele>
        <time>2022-07-27T15:06:24Z</time>
      </trkpt>
      <trkpt lat="45.40254" lon="5.79519">
        <ele>1271</ele>
        <time>2022-07-27T15:06:26Z</time>
      </trkpt>
      <trkpt lat="45.40252" lon="5.7952">
        <ele>1271</ele>
        <time>2022-07-27T15:06:28Z</time>
      </trkpt>
      <trkpt lat="45.40249" lon="5.79521">
        <ele>1271</ele>
        <time>2022-07-27T15:06:30Z</time>
      </trkpt>
      <trkpt lat="45.40246" lon="5.79522">
        <ele>1271</ele>
        <time>2022-07-27T15:06:32Z</time>
      </trkpt>
      <trkpt lat="45.40244" lon="5.79522">
        <ele>1271</ele>
        <time>2022-07-27T15:06:34Z</time>
      </trkpt>
      <trkpt lat="45.40242" lon="5.79522">
        <ele>1271</ele>
        <time>2022-07-27T15:06:36Z</time>
      </trkpt>
      <trkpt lat="45.4024" lon="5.79521">
        <ele>1271</ele>
        <time>2022-07-27T15:06:38Z</time>
      </trkpt>
      <trkpt lat="45.40237" lon="5.79523">
        <ele>1271</ele>
        <time>2022-07-27T15:06:40Z</time>
      </trkpt>
      <trkpt lat="45.40235" lon="5.79523">
        <ele>1271</ele>
        <time>2022-07-27T15:06:42Z</time>
      </trkpt>
      <trkpt lat="45.40233" lon="5.79522">
        <ele>1271</ele>
        <time>2022-07-27T15:06:44Z</time>
      </trkpt>
      <trkpt lat="45.40231" lon="5.79522">
        <ele>1271</ele>
        <time>2022-07-27T15:06:46Z</time>
      </trkpt>
      <trkpt lat="45.40229" lon="5.79522">
        <ele>1271</ele>
        <time>2022-07-27T15:06:48Z</time>
      </trkpt>
      <trkpt lat="45.40227" lon="5.79522">
        <ele>1271</ele>
        <time>2022-07-27T15:06:50Z</time>
      </trkpt>
      <trkpt lat="45.40225" lon="5.79522">
        <ele>1271</ele>
        <time>2022-07-27T15:06:52Z</time>
      </trkpt>
      <trkpt lat="45.40223" lon="5.79522">
        <ele>1268</ele>
        <time>2022-07-27T15:06:55Z</time>
      </trkpt>
      <trkpt lat="45.40221" lon="5.79523">
        <ele>1268</ele>
        <time>2022-07-27T15:06:57Z</time>
      </trkpt>
      <trkpt lat="45.40219" lon="5.79524">
        <ele>1268</ele>
        <time>2022-07-27T15:06:59Z</time>
      </trkpt>
      <trkpt lat="45.40216" lon="5.79522">
        <ele>1268</ele>
        <time>2022-07-27T15:07:01Z</time>
      </trkpt>
      <trkpt lat="45.40215" lon="5.7952">
        <ele>1268</ele>
        <time>2022-07-27T15:07:03Z</time>
      </trkpt>
      <trkpt lat="45.40212" lon="5.79519">
        <ele>1268</ele>
        <time>2022-07-27T15:07:06Z</time>
      </trkpt>
      <trkpt lat="45.40211" lon="5.79517">
        <ele>1268</ele>
        <time>2022-07-27T15:07:08Z</time>
      </trkpt>
      <trkpt lat="45.40209" lon="5.79515">
        <ele>1268</ele>
        <time>2022-07-27T15:07:10Z</time>
      </trkpt>
      <trkpt lat="45.40208" lon="5.79512">
        <ele>1268</ele>
        <time>2022-07-27T15:07:12Z</time>
      </trkpt>
      <trkpt lat="45.40206" lon="5.7951">
        <ele>1268</ele>
        <time>2022-07-27T15:07:13Z</time>
      </trkpt>
      <trkpt lat="45.40206" lon="5.79507">
        <ele>1267</ele>
        <time>2022-07-27T15:07:15Z</time>
      </trkpt>
      <trkpt lat="45.40205" lon="5.79504">
        <ele>1267</ele>
        <time>2022-07-27T15:07:17Z</time>
      </trkpt>
      <trkpt lat="45.40204" lon="5.79501">
        <ele>1267</ele>
        <time>2022-07-27T15:07:19Z</time>
      </trkpt>
      <trkpt lat="45.40203" lon="5.79498">
        <ele>1267</ele>
        <time>2022-07-27T15:07:22Z</time>
      </trkpt>
      <trkpt lat="45.40203" lon="5.79494">
        <ele>1268</ele>
        <time>2022-07-27T15:07:25Z</time>
      </trkpt>
      <trkpt lat="45.40202" lon="5.7949">
        <ele>1268</ele>
        <time>2022-07-27T15:07:28Z</time>
      </trkpt>
      <trkpt lat="45.40201" lon="5.79487">
        <ele>1268</ele>
        <time>2022-07-27T15:07:31Z</time>
      </trkpt>
      <trkpt lat="45.40199" lon="5.79486">
        <ele>1268</ele>
        <time>2022-07-27T15:07:34Z</time>
      </trkpt>
      <trkpt lat="45.40198" lon="5.79483">
        <ele>1268</ele>
        <time>2022-07-27T15:07:38Z</time>
      </trkpt>
      <trkpt lat="45.40196" lon="5.79482">
        <ele>1268</ele>
        <time>2022-07-27T15:07:43Z</time>
      </trkpt>
      <trkpt lat="45.40194" lon="5.79481">
        <ele>1271</ele>
        <time>2022-07-27T15:07:45Z</time>
      </trkpt>
      <trkpt lat="45.40192" lon="5.79479">
        <ele>1271</ele>
        <time>2022-07-27T15:07:48Z</time>
      </trkpt>
      <trkpt lat="45.4019" lon="5.79477">
        <ele>1271</ele>
        <time>2022-07-27T15:07:51Z</time>
      </trkpt>
      <trkpt lat="45.40188" lon="5.79475">
        <ele>1271</ele>
        <time>2022-07-27T15:07:54Z</time>
      </trkpt>
      <trkpt lat="45.40186" lon="5.79475">
        <ele>1271</ele>
        <time>2022-07-27T15:07:56Z</time>
      </trkpt>
      <trkpt lat="45.40183" lon="5.79473">
        <ele>1271</ele>
        <time>2022-07-27T15:07:59Z</time>
      </trkpt>
      <trkpt lat="45.40181" lon="5.79472">
        <ele>1271</ele>
        <time>2022-07-27T15:08:01Z</time>
      </trkpt>
      <trkpt lat="45.40179" lon="5.79471">
        <ele>1271</ele>
        <time>2022-07-27T15:08:04Z</time>
      </trkpt>
      <trkpt lat="45.40177" lon="5.79472">
        <ele>1271</ele>
        <time>2022-07-27T15:08:07Z</time>
      </trkpt>
      <trkpt lat="45.40175" lon="5.79473">
        <ele>1271</ele>
        <time>2022-07-27T15:08:10Z</time>
      </trkpt>
      <trkpt lat="45.40172" lon="5.79475">
        <ele>1271</ele>
        <time>2022-07-27T15:08:13Z</time>
      </trkpt>
      <trkpt lat="45.4017" lon="5.79477">
        <ele>1274</ele>
        <time>2022-07-27T15:08:15Z</time>
      </trkpt>
      <trkpt lat="45.40169" lon="5.79478">
        <ele>1274</ele>
        <time>2022-07-27T15:08:17Z</time>
      </trkpt>
      <trkpt lat="45.40167" lon="5.79478">
        <ele>1274</ele>
        <time>2022-07-27T15:08:19Z</time>
      </trkpt>
      <trkpt lat="45.40165" lon="5.79479">
        <ele>1274</ele>
        <time>2022-07-27T15:08:21Z</time>
      </trkpt>
      <trkpt lat="45.40163" lon="5.79479">
        <ele>1274</ele>
        <time>2022-07-27T15:08:23Z</time>
      </trkpt>
      <trkpt lat="45.40161" lon="5.7948">
        <ele>1275</ele>
        <time>2022-07-27T15:08:25Z</time>
      </trkpt>
      <trkpt lat="45.40159" lon="5.7948">
        <ele>1275</ele>
        <time>2022-07-27T15:08:27Z</time>
      </trkpt>
      <trkpt lat="45.40156" lon="5.79479">
        <ele>1275</ele>
        <time>2022-07-27T15:08:29Z</time>
      </trkpt>
      <trkpt lat="45.40153" lon="5.79475">
        <ele>1275</ele>
        <time>2022-07-27T15:08:32Z</time>
      </trkpt>
      <trkpt lat="45.40152" lon="5.79473">
        <ele>1275</ele>
        <time>2022-07-27T15:08:34Z</time>
      </trkpt>
      <trkpt lat="45.4015" lon="5.79472">
        <ele>1275</ele>
        <time>2022-07-27T15:08:37Z</time>
      </trkpt>
      <trkpt lat="45.40147" lon="5.79471">
        <ele>1275</ele>
        <time>2022-07-27T15:08:39Z</time>
      </trkpt>
      <trkpt lat="45.40145" lon="5.7947">
        <ele>1275</ele>
        <time>2022-07-27T15:08:41Z</time>
      </trkpt>
      <trkpt lat="45.40142" lon="5.79469">
        <ele>1275</ele>
        <time>2022-07-27T15:08:43Z</time>
      </trkpt>
      <trkpt lat="45.4014" lon="5.79469">
        <ele>1274</ele>
        <time>2022-07-27T15:08:45Z</time>
      </trkpt>
      <trkpt lat="45.40138" lon="5.79469">
        <ele>1274</ele>
        <time>2022-07-27T15:08:47Z</time>
      </trkpt>
      <trkpt lat="45.40135" lon="5.79467">
        <ele>1274</ele>
        <time>2022-07-27T15:08:49Z</time>
      </trkpt>
      <trkpt lat="45.40133" lon="5.79467">
        <ele>1274</ele>
        <time>2022-07-27T15:08:51Z</time>
      </trkpt>
      <trkpt lat="45.40131" lon="5.79466">
        <ele>1274</ele>
        <time>2022-07-27T15:08:53Z</time>
      </trkpt>
      <trkpt lat="45.40129" lon="5.79465">
        <ele>1274</ele>
        <time>2022-07-27T15:08:56Z</time>
      </trkpt>
      <trkpt lat="45.40127" lon="5.79463">
        <ele>1274</ele>
        <time>2022-07-27T15:08:57Z</time>
      </trkpt>
      <trkpt lat="45.40125" lon="5.7946">
        <ele>1274</ele>
        <time>2022-07-27T15:08:59Z</time>
      </trkpt>
      <trkpt lat="45.40123" lon="5.79457">
        <ele>1274</ele>
        <time>2022-07-27T15:09:01Z</time>
      </trkpt>
      <trkpt lat="45.40122" lon="5.79455">
        <ele>1274</ele>
        <time>2022-07-27T15:09:03Z</time>
      </trkpt>
      <trkpt lat="45.4012" lon="5.79453">
        <ele>1274</ele>
        <time>2022-07-27T15:09:06Z</time>
      </trkpt>
      <trkpt lat="45.40118" lon="5.7945">
        <ele>1274</ele>
        <time>2022-07-27T15:09:08Z</time>
      </trkpt>
      <trkpt lat="45.40116" lon="5.79446">
        <ele>1274</ele>
        <time>2022-07-27T15:09:10Z</time>
      </trkpt>
      <trkpt lat="45.40115" lon="5.79443">
        <ele>1274</ele>
        <time>2022-07-27T15:09:12Z</time>
      </trkpt>
      <trkpt lat="45.40114" lon="5.7944">
        <ele>1272</ele>
        <time>2022-07-27T15:09:15Z</time>
      </trkpt>
      <trkpt lat="45.40114" lon="5.79436">
        <ele>1272</ele>
        <time>2022-07-27T15:09:16Z</time>
      </trkpt>
      <trkpt lat="45.40116" lon="5.79432">
        <ele>1272</ele>
        <time>2022-07-27T15:09:18Z</time>
      </trkpt>
      <trkpt lat="45.40116" lon="5.79429">
        <ele>1272</ele>
        <time>2022-07-27T15:09:20Z</time>
      </trkpt>
      <trkpt lat="45.40115" lon="5.79426">
        <ele>1272</ele>
        <time>2022-07-27T15:09:23Z</time>
      </trkpt>
      <trkpt lat="45.40113" lon="5.79425">
        <ele>1272</ele>
        <time>2022-07-27T15:09:26Z</time>
      </trkpt>
      <trkpt lat="45.40111" lon="5.79424">
        <ele>1272</ele>
        <time>2022-07-27T15:09:30Z</time>
      </trkpt>
      <trkpt lat="45.40106" lon="5.79427">
        <ele>1272</ele>
        <time>2022-07-27T15:09:36Z</time>
      </trkpt>
      <trkpt lat="45.40104" lon="5.79425">
        <ele>1272</ele>
        <time>2022-07-27T15:09:38Z</time>
      </trkpt>
      <trkpt lat="45.40102" lon="5.79424">
        <ele>1272</ele>
        <time>2022-07-27T15:09:40Z</time>
      </trkpt>
      <trkpt lat="45.40101" lon="5.79422">
        <ele>1272</ele>
        <time>2022-07-27T15:09:42Z</time>
      </trkpt>
      <trkpt lat="45.40099" lon="5.7942">
        <ele>1272</ele>
        <time>2022-07-27T15:09:44Z</time>
      </trkpt>
      <trkpt lat="45.40098" lon="5.79418">
        <ele>1272</ele>
        <time>2022-07-27T15:09:46Z</time>
      </trkpt>
      <trkpt lat="45.40094" lon="5.7941">
        <ele>1272</ele>
        <time>2022-07-27T15:09:53Z</time>
      </trkpt>
      <trkpt lat="45.40086" lon="5.79404">
        <ele>1272</ele>
        <time>2022-07-27T15:10:02Z</time>
      </trkpt>
      <trkpt lat="45.40083" lon="5.79404">
        <ele>1278</ele>
        <time>2022-07-27T15:10:05Z</time>
      </trkpt>
      <trkpt lat="45.40081" lon="5.79403">
        <ele>1278</ele>
        <time>2022-07-27T15:10:07Z</time>
      </trkpt>
      <trkpt lat="45.40079" lon="5.79402">
        <ele>1278</ele>
        <time>2022-07-27T15:10:10Z</time>
      </trkpt>
      <trkpt lat="45.40073" lon="5.79401">
        <ele>1278</ele>
        <time>2022-07-27T15:10:15Z</time>
      </trkpt>
      <trkpt lat="45.40066" lon="5.79393">
        <ele>1278</ele>
        <time>2022-07-27T15:10:24Z</time>
      </trkpt>
      <trkpt lat="45.40059" lon="5.79391">
        <ele>1278</ele>
        <time>2022-07-27T15:10:31Z</time>
      </trkpt>
      <trkpt lat="45.40058" lon="5.79389">
        <ele>1278</ele>
        <time>2022-07-27T15:10:33Z</time>
      </trkpt>
      <trkpt lat="45.40055" lon="5.79386">
        <ele>1278</ele>
        <time>2022-07-27T15:10:37Z</time>
      </trkpt>
      <trkpt lat="45.40054" lon="5.79384">
        <ele>1278</ele>
        <time>2022-07-27T15:10:41Z</time>
      </trkpt>
      <trkpt lat="45.40052" lon="5.79397">
        <ele>1278</ele>
        <time>2022-07-27T15:10:54Z</time>
      </trkpt>
      <trkpt lat="45.40056" lon="5.79408">
        <ele>1278</ele>
        <time>2022-07-27T15:11:08Z</time>
      </trkpt>
      <trkpt lat="45.40059" lon="5.7942">
        <ele>1278</ele>
        <time>2022-07-27T15:11:34Z</time>
      </trkpt>
      <trkpt lat="45.40063" lon="5.79433">
        <ele>1278</ele>
        <time>2022-07-27T15:11:44Z</time>
      </trkpt>
      <trkpt lat="45.40065" lon="5.79445">
        <ele>1278</ele>
        <time>2022-07-27T15:11:52Z</time>
      </trkpt>
      <trkpt lat="45.4006" lon="5.79457">
        <ele>1278</ele>
        <time>2022-07-27T15:12:04Z</time>
      </trkpt>
      <trkpt lat="45.40059" lon="5.79462">
        <ele>1278</ele>
        <time>2022-07-27T15:12:09Z</time>
      </trkpt>
      <trkpt lat="45.40059" lon="5.79466">
        <ele>1278</ele>
        <time>2022-07-27T15:12:12Z</time>
      </trkpt>
      <trkpt lat="45.40056" lon="5.79478">
        <ele>1278</ele>
        <time>2022-07-27T15:12:24Z</time>
      </trkpt>
      <trkpt lat="45.40052" lon="5.79483">
        <ele>1278</ele>
        <time>2022-07-27T15:12:36Z</time>
      </trkpt>
      <trkpt lat="45.40047" lon="5.79481">
        <ele>1294</ele>
        <time>2022-07-27T15:12:45Z</time>
      </trkpt>
      <trkpt lat="45.40041" lon="5.79471">
        <ele>1296</ele>
        <time>2022-07-27T15:12:55Z</time>
      </trkpt>
      <trkpt lat="45.4004" lon="5.79467">
        <ele>1296</ele>
        <time>2022-07-27T15:12:59Z</time>
      </trkpt>
      <trkpt lat="45.40036" lon="5.7946">
        <ele>1297</ele>
        <time>2022-07-27T15:13:05Z</time>
      </trkpt>
      <trkpt lat="45.40034" lon="5.79455">
        <ele>1297</ele>
        <time>2022-07-27T15:13:11Z</time>
      </trkpt>
      <trkpt lat="45.40032" lon="5.79453">
        <ele>1297</ele>
        <time>2022-07-27T15:13:14Z</time>
      </trkpt>
      <trkpt lat="45.40029" lon="5.7944">
        <ele>1297</ele>
        <time>2022-07-27T15:13:23Z</time>
      </trkpt>
      <trkpt lat="45.40028" lon="5.79436">
        <ele>1297</ele>
        <time>2022-07-27T15:13:26Z</time>
      </trkpt>
      <trkpt lat="45.40026" lon="5.79434">
        <ele>1297</ele>
        <time>2022-07-27T15:13:31Z</time>
      </trkpt>
      <trkpt lat="45.40025" lon="5.79432">
        <ele>1299</ele>
        <time>2022-07-27T15:13:35Z</time>
      </trkpt>
      <trkpt lat="45.40023" lon="5.7943">
        <ele>1299</ele>
        <time>2022-07-27T15:13:38Z</time>
      </trkpt>
      <trkpt lat="45.40016" lon="5.79421">
        <ele>1299</ele>
        <time>2022-07-27T15:13:47Z</time>
      </trkpt>
      <trkpt lat="45.40009" lon="5.79416">
        <ele>1300</ele>
        <time>2022-07-27T15:13:55Z</time>
      </trkpt>
      <trkpt lat="45.40007" lon="5.79415">
        <ele>1300</ele>
        <time>2022-07-27T15:13:59Z</time>
      </trkpt>
      <trkpt lat="45.39999" lon="5.79407">
        <ele>1300</ele>
        <time>2022-07-27T15:14:08Z</time>
      </trkpt>
      <trkpt lat="45.39997" lon="5.79405">
        <ele>1300</ele>
        <time>2022-07-27T15:14:12Z</time>
      </trkpt>
      <trkpt lat="45.39989" lon="5.79406">
        <ele>1300</ele>
        <time>2022-07-27T15:14:22Z</time>
      </trkpt>
      <trkpt lat="45.39982" lon="5.79417">
        <ele>1300</ele>
        <time>2022-07-27T15:14:31Z</time>
      </trkpt>
      <trkpt lat="45.39974" lon="5.79423">
        <ele>1300</ele>
        <time>2022-07-27T15:14:41Z</time>
      </trkpt>
      <trkpt lat="45.39965" lon="5.79421">
        <ele>1305</ele>
        <time>2022-07-27T15:14:55Z</time>
      </trkpt>
      <trkpt lat="45.39956" lon="5.79415">
        <ele>1307</ele>
        <time>2022-07-27T15:15:05Z</time>
      </trkpt>
      <trkpt lat="45.39953" lon="5.79413">
        <ele>1307</ele>
        <time>2022-07-27T15:15:08Z</time>
      </trkpt>
      <trkpt lat="45.39951" lon="5.7941">
        <ele>1307</ele>
        <time>2022-07-27T15:15:10Z</time>
      </trkpt>
      <trkpt lat="45.3995" lon="5.79407">
        <ele>1307</ele>
        <time>2022-07-27T15:15:13Z</time>
      </trkpt>
      <trkpt lat="45.39942" lon="5.79402">
        <ele>1307</ele>
        <time>2022-07-27T15:15:28Z</time>
      </trkpt>
      <trkpt lat="45.39932" lon="5.79399">
        <ele>1307</ele>
        <time>2022-07-27T15:15:40Z</time>
      </trkpt>
      <trkpt lat="45.39923" lon="5.79397">
        <ele>1307</ele>
        <time>2022-07-27T15:15:53Z</time>
      </trkpt>
      <trkpt lat="45.39914" lon="5.79392">
        <ele>1307</ele>
        <time>2022-07-27T15:16:03Z</time>
      </trkpt>
      <trkpt lat="45.39905" lon="5.7939">
        <ele>1307</ele>
        <time>2022-07-27T15:16:10Z</time>
      </trkpt>
      <trkpt lat="45.39896" lon="5.79383">
        <ele>1307</ele>
        <time>2022-07-27T15:16:22Z</time>
      </trkpt>
      <trkpt lat="45.39888" lon="5.7938">
        <ele>1307</ele>
        <time>2022-07-27T15:16:34Z</time>
      </trkpt>
      <trkpt lat="45.39879" lon="5.79377">
        <ele>1307</ele>
        <time>2022-07-27T15:16:48Z</time>
      </trkpt>
      <trkpt lat="45.3987" lon="5.79371">
        <ele>1307</ele>
        <time>2022-07-27T15:17:00Z</time>
      </trkpt>
      <trkpt lat="45.39861" lon="5.79367">
        <ele>1307</ele>
        <time>2022-07-27T15:17:06Z</time>
      </trkpt>
      <trkpt lat="45.39854" lon="5.79356">
        <ele>1307</ele>
        <time>2022-07-27T15:17:23Z</time>
      </trkpt>
      <trkpt lat="45.39845" lon="5.79354">
        <ele>1307</ele>
        <time>2022-07-27T15:17:36Z</time>
      </trkpt>
      <trkpt lat="45.39839" lon="5.79343">
        <ele>1307</ele>
        <time>2022-07-27T15:17:43Z</time>
      </trkpt>
      <trkpt lat="45.3983" lon="5.79339">
        <ele>1307</ele>
        <time>2022-07-27T15:17:53Z</time>
      </trkpt>
      <trkpt lat="45.39827" lon="5.79332">
        <ele>1307</ele>
        <time>2022-07-27T15:18:01Z</time>
      </trkpt>
      <trkpt lat="45.39825" lon="5.79328">
        <ele>1307</ele>
        <time>2022-07-27T15:18:06Z</time>
      </trkpt>
      <trkpt lat="45.39823" lon="5.79328">
        <ele>1307</ele>
        <time>2022-07-27T15:18:09Z</time>
      </trkpt>
      <trkpt lat="45.39817" lon="5.79324">
        <ele>1307</ele>
        <time>2022-07-27T15:18:21Z</time>
      </trkpt>
      <trkpt lat="45.39813" lon="5.79323">
        <ele>1307</ele>
        <time>2022-07-27T15:18:26Z</time>
      </trkpt>
      <trkpt lat="45.39812" lon="5.79322">
        <ele>1307</ele>
        <time>2022-07-27T15:18:28Z</time>
      </trkpt>
      <trkpt lat="45.3981" lon="5.7932">
        <ele>1307</ele>
        <time>2022-07-27T15:18:31Z</time>
      </trkpt>
      <trkpt lat="45.39808" lon="5.79319">
        <ele>1307</ele>
        <time>2022-07-27T15:18:34Z</time>
      </trkpt>
      <trkpt lat="45.39806" lon="5.79319">
        <ele>1307</ele>
        <time>2022-07-27T15:18:36Z</time>
      </trkpt>
      <trkpt lat="45.39803" lon="5.79317">
        <ele>1307</ele>
        <time>2022-07-27T15:18:39Z</time>
      </trkpt>
      <trkpt lat="45.39802" lon="5.79314">
        <ele>1307</ele>
        <time>2022-07-27T15:18:41Z</time>
      </trkpt>
      <trkpt lat="45.39794" lon="5.79309">
        <ele>1307</ele>
        <time>2022-07-27T15:18:49Z</time>
      </trkpt>
      <trkpt lat="45.39785" lon="5.79302">
        <ele>1307</ele>
        <time>2022-07-27T15:18:59Z</time>
      </trkpt>
      <trkpt lat="45.39785" lon="5.79299">
        <ele>1307</ele>
        <time>2022-07-27T15:19:02Z</time>
      </trkpt>
      <trkpt lat="45.39783" lon="5.79296">
        <ele>1326</ele>
        <time>2022-07-27T15:19:05Z</time>
      </trkpt>
      <trkpt lat="45.39782" lon="5.79294">
        <ele>1326</ele>
        <time>2022-07-27T15:19:08Z</time>
      </trkpt>
      <trkpt lat="45.39778" lon="5.79288">
        <ele>1326</ele>
        <time>2022-07-27T15:19:14Z</time>
      </trkpt>
      <trkpt lat="45.39775" lon="5.79285">
        <ele>1326</ele>
        <time>2022-07-27T15:19:17Z</time>
      </trkpt>
      <trkpt lat="45.39774" lon="5.79283">
        <ele>1326</ele>
        <time>2022-07-27T15:19:21Z</time>
      </trkpt>
      <trkpt lat="45.39772" lon="5.79281">
        <ele>1328</ele>
        <time>2022-07-27T15:19:25Z</time>
      </trkpt>
      <trkpt lat="45.39771" lon="5.79279">
        <ele>1328</ele>
        <time>2022-07-27T15:19:27Z</time>
      </trkpt>
      <trkpt lat="45.39768" lon="5.79278">
        <ele>1328</ele>
        <time>2022-07-27T15:19:34Z</time>
      </trkpt>
      <trkpt lat="45.39766" lon="5.79276">
        <ele>1328</ele>
        <time>2022-07-27T15:19:38Z</time>
      </trkpt>
      <trkpt lat="45.39763" lon="5.79273">
        <ele>1330</ele>
        <time>2022-07-27T15:19:45Z</time>
      </trkpt>
      <trkpt lat="45.39757" lon="5.7927">
        <ele>1330</ele>
        <time>2022-07-27T15:19:51Z</time>
      </trkpt>
      <trkpt lat="45.39751" lon="5.79259">
        <ele>1330</ele>
        <time>2022-07-27T15:20:03Z</time>
      </trkpt>
      <trkpt lat="45.3975" lon="5.79256">
        <ele>1330</ele>
        <time>2022-07-27T15:20:08Z</time>
      </trkpt>
      <trkpt lat="45.39749" lon="5.79254">
        <ele>1330</ele>
        <time>2022-07-27T15:20:14Z</time>
      </trkpt>
      <trkpt lat="45.39749" lon="5.7925">
        <ele>1330</ele>
        <time>2022-07-27T15:20:19Z</time>
      </trkpt>
      <trkpt lat="45.39745" lon="5.79248">
        <ele>1330</ele>
        <time>2022-07-27T15:20:26Z</time>
      </trkpt>
      <trkpt lat="45.39738" lon="5.79259">
        <ele>1330</ele>
        <time>2022-07-27T15:20:49Z</time>
      </trkpt>
      <trkpt lat="45.39729" lon="5.79256">
        <ele>1339</ele>
        <time>2022-07-27T15:21:05Z</time>
      </trkpt>
      <trkpt lat="45.39721" lon="5.79266">
        <ele>1339</ele>
        <time>2022-07-27T15:21:17Z</time>
      </trkpt>
      <trkpt lat="45.39712" lon="5.79269">
        <ele>1339</ele>
        <time>2022-07-27T15:21:30Z</time>
      </trkpt>
      <trkpt lat="45.39705" lon="5.79261">
        <ele>1339</ele>
        <time>2022-07-27T15:21:43Z</time>
      </trkpt>
      <trkpt lat="45.39696" lon="5.79257">
        <ele>1339</ele>
        <time>2022-07-27T15:22:09Z</time>
      </trkpt>
      <trkpt lat="45.39699" lon="5.79256">
        <ele>1339</ele>
        <time>2022-07-27T15:22:16Z</time>
      </trkpt>
      <trkpt lat="45.39701" lon="5.79257">
        <ele>1339</ele>
        <time>2022-07-27T15:22:19Z</time>
      </trkpt>
      <trkpt lat="45.39703" lon="5.79259">
        <ele>1339</ele>
        <time>2022-07-27T15:22:29Z</time>
      </trkpt>
      <trkpt lat="45.39701" lon="5.79261">
        <ele>1351</ele>
        <time>2022-07-27T15:22:35Z</time>
      </trkpt>
      <trkpt lat="45.397" lon="5.79263">
        <ele>1351</ele>
        <time>2022-07-27T15:22:41Z</time>
      </trkpt>
      <trkpt lat="45.397" lon="5.79267">
        <ele>1353</ele>
        <time>2022-07-27T15:22:45Z</time>
      </trkpt>
      <trkpt lat="45.39701" lon="5.7927">
        <ele>1353</ele>
        <time>2022-07-27T15:22:49Z</time>
      </trkpt>
      <trkpt lat="45.39702" lon="5.79272">
        <ele>1353</ele>
        <time>2022-07-27T15:22:51Z</time>
      </trkpt>
      <trkpt lat="45.39703" lon="5.79275">
        <ele>1353</ele>
        <time>2022-07-27T15:22:53Z</time>
      </trkpt>
      <trkpt lat="45.39703" lon="5.79287">
        <ele>1353</ele>
        <time>2022-07-27T15:23:04Z</time>
      </trkpt>
      <trkpt lat="45.39696" lon="5.79297">
        <ele>1353</ele>
        <time>2022-07-27T15:23:14Z</time>
      </trkpt>
      <trkpt lat="45.3969" lon="5.79306">
        <ele>1353</ele>
        <time>2022-07-27T15:23:23Z</time>
      </trkpt>
      <trkpt lat="45.39684" lon="5.79314">
        <ele>1353</ele>
        <time>2022-07-27T15:23:31Z</time>
      </trkpt>
      <trkpt lat="45.39681" lon="5.79312">
        <ele>1353</ele>
        <time>2022-07-27T15:23:36Z</time>
      </trkpt>
      <trkpt lat="45.39679" lon="5.79312">
        <ele>1353</ele>
        <time>2022-07-27T15:23:39Z</time>
      </trkpt>
      <trkpt lat="45.39677" lon="5.79312">
        <ele>1353</ele>
        <time>2022-07-27T15:23:41Z</time>
      </trkpt>
      <trkpt lat="45.39676" lon="5.79314">
        <ele>1353</ele>
        <time>2022-07-27T15:23:47Z</time>
      </trkpt>
      <trkpt lat="45.39674" lon="5.79315">
        <ele>1353</ele>
        <time>2022-07-27T15:23:50Z</time>
      </trkpt>
      <trkpt lat="45.39671" lon="5.79316">
        <ele>1353</ele>
        <time>2022-07-27T15:23:53Z</time>
      </trkpt>
      <trkpt lat="45.39669" lon="5.79316">
        <ele>1362</ele>
        <time>2022-07-27T15:23:55Z</time>
      </trkpt>
      <trkpt lat="45.39666" lon="5.79316">
        <ele>1362</ele>
        <time>2022-07-27T15:23:58Z</time>
      </trkpt>
      <trkpt lat="45.39661" lon="5.79316">
        <ele>1362</ele>
        <time>2022-07-27T15:24:02Z</time>
      </trkpt>
      <trkpt lat="45.39652" lon="5.79309">
        <ele>1362</ele>
        <time>2022-07-27T15:24:09Z</time>
      </trkpt>
      <trkpt lat="45.39643" lon="5.79311">
        <ele>1362</ele>
        <time>2022-07-27T15:24:19Z</time>
      </trkpt>
      <trkpt lat="45.39637" lon="5.79313">
        <ele>1362</ele>
        <time>2022-07-27T15:24:24Z</time>
      </trkpt>
      <trkpt lat="45.39635" lon="5.79313">
        <ele>1362</ele>
        <time>2022-07-27T15:24:26Z</time>
      </trkpt>
      <trkpt lat="45.39632" lon="5.79311">
        <ele>1362</ele>
        <time>2022-07-27T15:24:29Z</time>
      </trkpt>
      <trkpt lat="45.39631" lon="5.79309">
        <ele>1362</ele>
        <time>2022-07-27T15:24:31Z</time>
      </trkpt>
      <trkpt lat="45.39631" lon="5.79306">
        <ele>1362</ele>
        <time>2022-07-27T15:24:34Z</time>
      </trkpt>
      <trkpt lat="45.39629" lon="5.79304">
        <ele>1362</ele>
        <time>2022-07-27T15:24:38Z</time>
      </trkpt>
      <trkpt lat="45.39626" lon="5.79303">
        <ele>1362</ele>
        <time>2022-07-27T15:24:40Z</time>
      </trkpt>
      <trkpt lat="45.39626" lon="5.79295">
        <ele>1362</ele>
        <time>2022-07-27T15:24:44Z</time>
      </trkpt>
      <trkpt lat="45.39626" lon="5.79292">
        <ele>1369</ele>
        <time>2022-07-27T15:24:45Z</time>
      </trkpt>
      <trkpt lat="45.39626" lon="5.79279">
        <ele>1369</ele>
        <time>2022-07-27T15:25:01Z</time>
      </trkpt>
      <trkpt lat="45.3962" lon="5.79269">
        <ele>1369</ele>
        <time>2022-07-27T15:25:14Z</time>
      </trkpt>
      <trkpt lat="45.3962" lon="5.79263">
        <ele>1369</ele>
        <time>2022-07-27T15:25:21Z</time>
      </trkpt>
      <trkpt lat="45.39616" lon="5.79252">
        <ele>1369</ele>
        <time>2022-07-27T15:25:34Z</time>
      </trkpt>
      <trkpt lat="45.39613" lon="5.79248">
        <ele>1369</ele>
        <time>2022-07-27T15:25:40Z</time>
      </trkpt>
      <trkpt lat="45.3961" lon="5.79239">
        <ele>1369</ele>
        <time>2022-07-27T15:25:47Z</time>
      </trkpt>
      <trkpt lat="45.39608" lon="5.79233">
        <ele>1369</ele>
        <time>2022-07-27T15:25:54Z</time>
      </trkpt>
      <trkpt lat="45.396" lon="5.79228">
        <ele>1369</ele>
        <time>2022-07-27T15:26:04Z</time>
      </trkpt>
      <trkpt lat="45.39597" lon="5.79221">
        <ele>1369</ele>
        <time>2022-07-27T15:26:12Z</time>
      </trkpt>
      <trkpt lat="45.39596" lon="5.79219">
        <ele>1369</ele>
        <time>2022-07-27T15:26:14Z</time>
      </trkpt>
      <trkpt lat="45.39595" lon="5.79216">
        <ele>1369</ele>
        <time>2022-07-27T15:26:16Z</time>
      </trkpt>
      <trkpt lat="45.39594" lon="5.79213">
        <ele>1369</ele>
        <time>2022-07-27T15:26:20Z</time>
      </trkpt>
      <trkpt lat="45.39592" lon="5.79211">
        <ele>1369</ele>
        <time>2022-07-27T15:26:21Z</time>
      </trkpt>
      <trkpt lat="45.3959" lon="5.79209">
        <ele>1369</ele>
        <time>2022-07-27T15:26:24Z</time>
      </trkpt>
      <trkpt lat="45.39584" lon="5.79199">
        <ele>1369</ele>
        <time>2022-07-27T15:26:34Z</time>
      </trkpt>
      <trkpt lat="45.39575" lon="5.79196">
        <ele>1369</ele>
        <time>2022-07-27T15:26:47Z</time>
      </trkpt>
      <trkpt lat="45.39566" lon="5.79196">
        <ele>1369</ele>
        <time>2022-07-27T15:26:58Z</time>
      </trkpt>
      <trkpt lat="45.39556" lon="5.79196">
        <ele>1369</ele>
        <time>2022-07-27T15:27:09Z</time>
      </trkpt>
      <trkpt lat="45.39546" lon="5.79191">
        <ele>1369</ele>
        <time>2022-07-27T15:27:16Z</time>
      </trkpt>
      <trkpt lat="45.39544" lon="5.79189">
        <ele>1369</ele>
        <time>2022-07-27T15:27:18Z</time>
      </trkpt>
      <trkpt lat="45.39541" lon="5.79186">
        <ele>1369</ele>
        <time>2022-07-27T15:27:21Z</time>
      </trkpt>
      <trkpt lat="45.39539" lon="5.79185">
        <ele>1369</ele>
        <time>2022-07-27T15:27:23Z</time>
      </trkpt>
      <trkpt lat="45.39538" lon="5.79183">
        <ele>1369</ele>
        <time>2022-07-27T15:27:27Z</time>
      </trkpt>
      <trkpt lat="45.39535" lon="5.7918">
        <ele>1369</ele>
        <time>2022-07-27T15:27:31Z</time>
      </trkpt>
      <trkpt lat="45.39527" lon="5.79173">
        <ele>1369</ele>
        <time>2022-07-27T15:27:40Z</time>
      </trkpt>
      <trkpt lat="45.39522" lon="5.79166">
        <ele>1369</ele>
        <time>2022-07-27T15:27:50Z</time>
      </trkpt>
      <trkpt lat="45.39524" lon="5.79153">
        <ele>1380</ele>
        <time>2022-07-27T15:27:55Z</time>
      </trkpt>
      <trkpt lat="45.39525" lon="5.79149">
        <ele>1380</ele>
        <time>2022-07-27T15:27:57Z</time>
      </trkpt>
      <trkpt lat="45.39524" lon="5.79147">
        <ele>1380</ele>
        <time>2022-07-27T15:27:59Z</time>
      </trkpt>
      <trkpt lat="45.39523" lon="5.79143">
        <ele>1380</ele>
        <time>2022-07-27T15:28:01Z</time>
      </trkpt>
      <trkpt lat="45.39522" lon="5.7914">
        <ele>1380</ele>
        <time>2022-07-27T15:28:03Z</time>
      </trkpt>
      <trkpt lat="45.3952" lon="5.79138">
        <ele>1380</ele>
        <time>2022-07-27T15:28:06Z</time>
      </trkpt>
      <trkpt lat="45.39518" lon="5.79137">
        <ele>1380</ele>
        <time>2022-07-27T15:28:07Z</time>
      </trkpt>
      <trkpt lat="45.39516" lon="5.79136">
        <ele>1380</ele>
        <time>2022-07-27T15:28:09Z</time>
      </trkpt>
      <trkpt lat="45.39514" lon="5.79134">
        <ele>1380</ele>
        <time>2022-07-27T15:28:11Z</time>
      </trkpt>
      <trkpt lat="45.39513" lon="5.79132">
        <ele>1380</ele>
        <time>2022-07-27T15:28:13Z</time>
      </trkpt>
      <trkpt lat="45.39511" lon="5.7913">
        <ele>1381</ele>
        <time>2022-07-27T15:28:15Z</time>
      </trkpt>
      <trkpt lat="45.3951" lon="5.79128">
        <ele>1381</ele>
        <time>2022-07-27T15:28:17Z</time>
      </trkpt>
      <trkpt lat="45.39508" lon="5.79126">
        <ele>1381</ele>
        <time>2022-07-27T15:28:19Z</time>
      </trkpt>
      <trkpt lat="45.39507" lon="5.79124">
        <ele>1381</ele>
        <time>2022-07-27T15:28:22Z</time>
      </trkpt>
      <trkpt lat="45.39498" lon="5.7912">
        <ele>1381</ele>
        <time>2022-07-27T15:28:39Z</time>
      </trkpt>
      <trkpt lat="45.39489" lon="5.79119">
        <ele>1381</ele>
        <time>2022-07-27T15:28:50Z</time>
      </trkpt>
      <trkpt lat="45.39479" lon="5.79123">
        <ele>1381</ele>
        <time>2022-07-27T15:29:01Z</time>
      </trkpt>
      <trkpt lat="45.3947" lon="5.79124">
        <ele>1381</ele>
        <time>2022-07-27T15:29:12Z</time>
      </trkpt>
      <trkpt lat="45.39461" lon="5.79121">
        <ele>1388</ele>
        <time>2022-07-27T15:29:25Z</time>
      </trkpt>
      <trkpt lat="45.39452" lon="5.79116">
        <ele>1388</ele>
        <time>2022-07-27T15:29:31Z</time>
      </trkpt>
      <trkpt lat="45.39451" lon="5.79109">
        <ele>1389</ele>
        <time>2022-07-27T15:29:35Z</time>
      </trkpt>
      <trkpt lat="45.3945" lon="5.79106">
        <ele>1389</ele>
        <time>2022-07-27T15:29:38Z</time>
      </trkpt>
      <trkpt lat="45.39442" lon="5.79099">
        <ele>1389</ele>
        <time>2022-07-27T15:29:46Z</time>
      </trkpt>
      <trkpt lat="45.3944" lon="5.79096">
        <ele>1389</ele>
        <time>2022-07-27T15:29:48Z</time>
      </trkpt>
      <trkpt lat="45.39438" lon="5.79096">
        <ele>1389</ele>
        <time>2022-07-27T15:29:53Z</time>
      </trkpt>
      <trkpt lat="45.39436" lon="5.79095">
        <ele>1390</ele>
        <time>2022-07-27T15:29:55Z</time>
      </trkpt>
      <trkpt lat="45.39434" lon="5.79095">
        <ele>1390</ele>
        <time>2022-07-27T15:29:56Z</time>
      </trkpt>
      <trkpt lat="45.39431" lon="5.79095">
        <ele>1390</ele>
        <time>2022-07-27T15:29:58Z</time>
      </trkpt>
      <trkpt lat="45.39429" lon="5.79095">
        <ele>1390</ele>
        <time>2022-07-27T15:29:59Z</time>
      </trkpt>
      <trkpt lat="45.39426" lon="5.79095">
        <ele>1390</ele>
        <time>2022-07-27T15:30:02Z</time>
      </trkpt>
      <trkpt lat="45.39423" lon="5.79094">
        <ele>1390</ele>
        <time>2022-07-27T15:30:05Z</time>
      </trkpt>
      <trkpt lat="45.3942" lon="5.79095">
        <ele>1390</ele>
        <time>2022-07-27T15:30:07Z</time>
      </trkpt>
      <trkpt lat="45.39419" lon="5.79093">
        <ele>1390</ele>
        <time>2022-07-27T15:30:09Z</time>
      </trkpt>
      <trkpt lat="45.39417" lon="5.79092">
        <ele>1390</ele>
        <time>2022-07-27T15:30:11Z</time>
      </trkpt>
      <trkpt lat="45.39415" lon="5.79091">
        <ele>1391</ele>
        <time>2022-07-27T15:30:15Z</time>
      </trkpt>
      <trkpt lat="45.39413" lon="5.7909">
        <ele>1391</ele>
        <time>2022-07-27T15:30:17Z</time>
      </trkpt>
      <trkpt lat="45.39411" lon="5.79091">
        <ele>1391</ele>
        <time>2022-07-27T15:30:21Z</time>
      </trkpt>
      <trkpt lat="45.39409" lon="5.79092">
        <ele>1391</ele>
        <time>2022-07-27T15:30:24Z</time>
      </trkpt>
      <trkpt lat="45.39406" lon="5.79093">
        <ele>1392</ele>
        <time>2022-07-27T15:30:25Z</time>
      </trkpt>
      <trkpt lat="45.39396" lon="5.79098">
        <ele>1392</ele>
        <time>2022-07-27T15:30:33Z</time>
      </trkpt>
      <trkpt lat="45.39394" lon="5.791">
        <ele>1392</ele>
        <time>2022-07-27T15:30:34Z</time>
      </trkpt>
      <trkpt lat="45.39391" lon="5.79101">
        <ele>1392</ele>
        <time>2022-07-27T15:30:37Z</time>
      </trkpt>
      <trkpt lat="45.39389" lon="5.79102">
        <ele>1392</ele>
        <time>2022-07-27T15:30:39Z</time>
      </trkpt>
      <trkpt lat="45.39387" lon="5.79104">
        <ele>1392</ele>
        <time>2022-07-27T15:30:40Z</time>
      </trkpt>
      <trkpt lat="45.39386" lon="5.79106">
        <ele>1392</ele>
        <time>2022-07-27T15:30:43Z</time>
      </trkpt>
      <trkpt lat="45.39386" lon="5.7911">
        <ele>1392</ele>
        <time>2022-07-27T15:30:44Z</time>
      </trkpt>
      <trkpt lat="45.39386" lon="5.79113">
        <ele>1392</ele>
        <time>2022-07-27T15:30:47Z</time>
      </trkpt>
      <trkpt lat="45.39385" lon="5.79116">
        <ele>1392</ele>
        <time>2022-07-27T15:30:48Z</time>
      </trkpt>
      <trkpt lat="45.39384" lon="5.7912">
        <ele>1392</ele>
        <time>2022-07-27T15:30:52Z</time>
      </trkpt>
      <trkpt lat="45.39384" lon="5.79124">
        <ele>1392</ele>
        <time>2022-07-27T15:30:55Z</time>
      </trkpt>
      <trkpt lat="45.39383" lon="5.79126">
        <ele>1392</ele>
        <time>2022-07-27T15:30:56Z</time>
      </trkpt>
      <trkpt lat="45.39382" lon="5.79129">
        <ele>1392</ele>
        <time>2022-07-27T15:30:58Z</time>
      </trkpt>
      <trkpt lat="45.39383" lon="5.79132">
        <ele>1392</ele>
        <time>2022-07-27T15:31:02Z</time>
      </trkpt>
      <trkpt lat="45.39384" lon="5.79137">
        <ele>1392</ele>
        <time>2022-07-27T15:31:05Z</time>
      </trkpt>
      <trkpt lat="45.39386" lon="5.79139">
        <ele>1392</ele>
        <time>2022-07-27T15:31:07Z</time>
      </trkpt>
      <trkpt lat="45.39386" lon="5.79141">
        <ele>1392</ele>
        <time>2022-07-27T15:31:09Z</time>
      </trkpt>
      <trkpt lat="45.39386" lon="5.79144">
        <ele>1392</ele>
        <time>2022-07-27T15:31:11Z</time>
      </trkpt>
      <trkpt lat="45.39386" lon="5.79158">
        <ele>1392</ele>
        <time>2022-07-27T15:31:20Z</time>
      </trkpt>
      <trkpt lat="45.39384" lon="5.79171">
        <ele>1392</ele>
        <time>2022-07-27T15:31:29Z</time>
      </trkpt>
      <trkpt lat="45.39384" lon="5.79184">
        <ele>1392</ele>
        <time>2022-07-27T15:31:41Z</time>
      </trkpt>
      <trkpt lat="45.3938" lon="5.79197">
        <ele>1392</ele>
        <time>2022-07-27T15:31:48Z</time>
      </trkpt>
      <trkpt lat="45.39378" lon="5.792">
        <ele>1392</ele>
        <time>2022-07-27T15:31:50Z</time>
      </trkpt>
      <trkpt lat="45.39376" lon="5.79202">
        <ele>1392</ele>
        <time>2022-07-27T15:31:51Z</time>
      </trkpt>
      <trkpt lat="45.39374" lon="5.79205">
        <ele>1392</ele>
        <time>2022-07-27T15:31:53Z</time>
      </trkpt>
      <trkpt lat="45.39372" lon="5.79207">
        <ele>1392</ele>
        <time>2022-07-27T15:31:56Z</time>
      </trkpt>
      <trkpt lat="45.3937" lon="5.7921">
        <ele>1392</ele>
        <time>2022-07-27T15:31:58Z</time>
      </trkpt>
      <trkpt lat="45.39368" lon="5.79212">
        <ele>1392</ele>
        <time>2022-07-27T15:31:59Z</time>
      </trkpt>
      <trkpt lat="45.39366" lon="5.79213">
        <ele>1392</ele>
        <time>2022-07-27T15:32:01Z</time>
      </trkpt>
      <trkpt lat="45.39364" lon="5.79215">
        <ele>1395</ele>
        <time>2022-07-27T15:32:05Z</time>
      </trkpt>
      <trkpt lat="45.39362" lon="5.79218">
        <ele>1395</ele>
        <time>2022-07-27T15:32:08Z</time>
      </trkpt>
      <trkpt lat="45.3936" lon="5.79218">
        <ele>1395</ele>
        <time>2022-07-27T15:32:10Z</time>
      </trkpt>
      <trkpt lat="45.39358" lon="5.79217">
        <ele>1395</ele>
        <time>2022-07-27T15:32:14Z</time>
      </trkpt>
      <trkpt lat="45.39356" lon="5.79219">
        <ele>1395</ele>
        <time>2022-07-27T15:32:16Z</time>
      </trkpt>
      <trkpt lat="45.39356" lon="5.79222">
        <ele>1395</ele>
        <time>2022-07-27T15:32:21Z</time>
      </trkpt>
      <trkpt lat="45.39354" lon="5.79224">
        <ele>1395</ele>
        <time>2022-07-27T15:32:24Z</time>
      </trkpt>
      <trkpt lat="45.39344" lon="5.79225">
        <ele>1395</ele>
        <time>2022-07-27T15:32:36Z</time>
      </trkpt>
      <trkpt lat="45.39335" lon="5.79228">
        <ele>1395</ele>
        <time>2022-07-27T15:32:44Z</time>
      </trkpt>
      <trkpt lat="45.39326" lon="5.79233">
        <ele>1395</ele>
        <time>2022-07-27T15:32:52Z</time>
      </trkpt>
      <trkpt lat="45.39315" lon="5.79235">
        <ele>1395</ele>
        <time>2022-07-27T15:33:00Z</time>
      </trkpt>
      <trkpt lat="45.39313" lon="5.79234">
        <ele>1395</ele>
        <time>2022-07-27T15:33:03Z</time>
      </trkpt>
      <trkpt lat="45.3931" lon="5.79232">
        <ele>1395</ele>
        <time>2022-07-27T15:33:07Z</time>
      </trkpt>
      <trkpt lat="45.39308" lon="5.79232">
        <ele>1395</ele>
        <time>2022-07-27T15:33:09Z</time>
      </trkpt>
      <trkpt lat="45.39308" lon="5.7923">
        <ele>1395</ele>
        <time>2022-07-27T15:33:16Z</time>
      </trkpt>
      <trkpt lat="45.39306" lon="5.79233">
        <ele>1395</ele>
        <time>2022-07-27T15:33:19Z</time>
      </trkpt>
      <trkpt lat="45.39304" lon="5.79235">
        <ele>1395</ele>
        <time>2022-07-27T15:33:22Z</time>
      </trkpt>
      <trkpt lat="45.39302" lon="5.79237">
        <ele>1395</ele>
        <time>2022-07-27T15:33:25Z</time>
      </trkpt>
      <trkpt lat="45.393" lon="5.79236">
        <ele>1395</ele>
        <time>2022-07-27T15:33:26Z</time>
      </trkpt>
      <trkpt lat="45.39298" lon="5.79237">
        <ele>1395</ele>
        <time>2022-07-27T15:33:28Z</time>
      </trkpt>
      <trkpt lat="45.39296" lon="5.79239">
        <ele>1395</ele>
        <time>2022-07-27T15:33:32Z</time>
      </trkpt>
      <trkpt lat="45.39293" lon="5.7924">
        <ele>1395</ele>
        <time>2022-07-27T15:33:34Z</time>
      </trkpt>
      <trkpt lat="45.3929" lon="5.79242">
        <ele>1396</ele>
        <time>2022-07-27T15:33:35Z</time>
      </trkpt>
      <trkpt lat="45.39289" lon="5.79243">
        <ele>1396</ele>
        <time>2022-07-27T15:33:37Z</time>
      </trkpt>
      <trkpt lat="45.39287" lon="5.79245">
        <ele>1396</ele>
        <time>2022-07-27T15:33:40Z</time>
      </trkpt>
      <trkpt lat="45.39285" lon="5.79245">
        <ele>1396</ele>
        <time>2022-07-27T15:33:42Z</time>
      </trkpt>
      <trkpt lat="45.39283" lon="5.79245">
        <ele>1396</ele>
        <time>2022-07-27T15:33:49Z</time>
      </trkpt>
      <trkpt lat="45.39281" lon="5.79246">
        <ele>1396</ele>
        <time>2022-07-27T15:33:50Z</time>
      </trkpt>
      <trkpt lat="45.39278" lon="5.79246">
        <ele>1396</ele>
        <time>2022-07-27T15:33:52Z</time>
      </trkpt>
      <trkpt lat="45.39276" lon="5.79246">
        <ele>1396</ele>
        <time>2022-07-27T15:33:54Z</time>
      </trkpt>
      <trkpt lat="45.39274" lon="5.79247">
        <ele>1396</ele>
        <time>2022-07-27T15:33:57Z</time>
      </trkpt>
      <trkpt lat="45.39266" lon="5.79249">
        <ele>1398</ele>
        <time>2022-07-27T15:34:05Z</time>
      </trkpt>
      <trkpt lat="45.39262" lon="5.7925">
        <ele>1398</ele>
        <time>2022-07-27T15:34:08Z</time>
      </trkpt>
      <trkpt lat="45.39253" lon="5.79256">
        <ele>1398</ele>
        <time>2022-07-27T15:34:18Z</time>
      </trkpt>
      <trkpt lat="45.39249" lon="5.79258">
        <ele>1398</ele>
        <time>2022-07-27T15:34:23Z</time>
      </trkpt>
      <trkpt lat="45.39247" lon="5.79258">
        <ele>1398</ele>
        <time>2022-07-27T15:34:26Z</time>
      </trkpt>
      <trkpt lat="45.39244" lon="5.79258">
        <ele>1398</ele>
        <time>2022-07-27T15:34:29Z</time>
      </trkpt>
      <trkpt lat="45.3924" lon="5.79259">
        <ele>1398</ele>
        <time>2022-07-27T15:34:33Z</time>
      </trkpt>
      <trkpt lat="45.39238" lon="5.7926">
        <ele>1400</ele>
        <time>2022-07-27T15:34:35Z</time>
      </trkpt>
      <trkpt lat="45.39235" lon="5.79261">
        <ele>1400</ele>
        <time>2022-07-27T15:34:37Z</time>
      </trkpt>
      <trkpt lat="45.39232" lon="5.79261">
        <ele>1400</ele>
        <time>2022-07-27T15:34:39Z</time>
      </trkpt>
      <trkpt lat="45.3923" lon="5.79261">
        <ele>1400</ele>
        <time>2022-07-27T15:34:41Z</time>
      </trkpt>
      <trkpt lat="45.39228" lon="5.79262">
        <ele>1400</ele>
        <time>2022-07-27T15:34:43Z</time>
      </trkpt>
      <trkpt lat="45.39226" lon="5.79262">
        <ele>1400</ele>
        <time>2022-07-27T15:34:46Z</time>
      </trkpt>
      <trkpt lat="45.39224" lon="5.79263">
        <ele>1400</ele>
        <time>2022-07-27T15:34:49Z</time>
      </trkpt>
      <trkpt lat="45.39222" lon="5.79264">
        <ele>1400</ele>
        <time>2022-07-27T15:34:52Z</time>
      </trkpt>
      <trkpt lat="45.3922" lon="5.79266">
        <ele>1400</ele>
        <time>2022-07-27T15:34:53Z</time>
      </trkpt>
      <trkpt lat="45.39219" lon="5.79267">
        <ele>1400</ele>
        <time>2022-07-27T15:34:56Z</time>
      </trkpt>
      <trkpt lat="45.39217" lon="5.79268">
        <ele>1400</ele>
        <time>2022-07-27T15:34:58Z</time>
      </trkpt>
      <trkpt lat="45.39213" lon="5.7927">
        <ele>1400</ele>
        <time>2022-07-27T15:35:03Z</time>
      </trkpt>
      <trkpt lat="45.3921" lon="5.79271">
        <ele>1400</ele>
        <time>2022-07-27T15:35:07Z</time>
      </trkpt>
      <trkpt lat="45.39208" lon="5.79273">
        <ele>1400</ele>
        <time>2022-07-27T15:35:08Z</time>
      </trkpt>
      <trkpt lat="45.39206" lon="5.79274">
        <ele>1400</ele>
        <time>2022-07-27T15:35:12Z</time>
      </trkpt>
      <trkpt lat="45.39201" lon="5.79275">
        <ele>1400</ele>
        <time>2022-07-27T15:35:17Z</time>
      </trkpt>
      <trkpt lat="45.39199" lon="5.79276">
        <ele>1400</ele>
        <time>2022-07-27T15:35:19Z</time>
      </trkpt>
      <trkpt lat="45.39197" lon="5.79276">
        <ele>1400</ele>
        <time>2022-07-27T15:35:22Z</time>
      </trkpt>
      <trkpt lat="45.39195" lon="5.79277">
        <ele>1400</ele>
        <time>2022-07-27T15:35:26Z</time>
      </trkpt>
      <trkpt lat="45.39185" lon="5.7928">
        <ele>1407</ele>
        <time>2022-07-27T15:35:35Z</time>
      </trkpt>
      <trkpt lat="45.39176" lon="5.79283">
        <ele>1407</ele>
        <time>2022-07-27T15:35:47Z</time>
      </trkpt>
      <trkpt lat="45.39167" lon="5.7929">
        <ele>1409</ele>
        <time>2022-07-27T15:35:55Z</time>
      </trkpt>
      <trkpt lat="45.39163" lon="5.79281">
        <ele>1409</ele>
        <time>2022-07-27T15:36:16Z</time>
      </trkpt>
      <trkpt lat="45.39163" lon="5.79285">
        <ele>1409</ele>
        <time>2022-07-27T15:36:22Z</time>
      </trkpt>
      <trkpt lat="45.39161" lon="5.79283">
        <ele>1409</ele>
        <time>2022-07-27T15:36:52Z</time>
      </trkpt>
      <trkpt lat="45.39159" lon="5.79283">
        <ele>1409</ele>
        <time>2022-07-27T15:37:01Z</time>
      </trkpt>
      <trkpt lat="45.39153" lon="5.79296">
        <ele>1409</ele>
        <time>2022-07-27T15:37:10Z</time>
      </trkpt>
      <trkpt lat="45.3915" lon="5.79308">
        <ele>1409</ele>
        <time>2022-07-27T15:37:22Z</time>
      </trkpt>
      <trkpt lat="45.39142" lon="5.79315">
        <ele>1409</ele>
        <time>2022-07-27T15:37:26Z</time>
      </trkpt>
      <trkpt lat="45.39133" lon="5.79317">
        <ele>1409</ele>
        <time>2022-07-27T15:37:33Z</time>
      </trkpt>
      <trkpt lat="45.39123" lon="5.79317">
        <ele>1409</ele>
        <time>2022-07-27T15:37:43Z</time>
      </trkpt>
      <trkpt lat="45.39118" lon="5.79306">
        <ele>1409</ele>
        <time>2022-07-27T15:37:52Z</time>
      </trkpt>
      <trkpt lat="45.3911" lon="5.79299">
        <ele>1409</ele>
        <time>2022-07-27T15:38:01Z</time>
      </trkpt>
      <trkpt lat="45.39102" lon="5.79293">
        <ele>1409</ele>
        <time>2022-07-27T15:38:07Z</time>
      </trkpt>
      <trkpt lat="45.39099" lon="5.79288">
        <ele>1409</ele>
        <time>2022-07-27T15:38:13Z</time>
      </trkpt>
      <trkpt lat="45.3909" lon="5.79287">
        <ele>1409</ele>
        <time>2022-07-27T15:38:26Z</time>
      </trkpt>
      <trkpt lat="45.39081" lon="5.79281">
        <ele>1409</ele>
        <time>2022-07-27T15:38:36Z</time>
      </trkpt>
      <trkpt lat="45.39073" lon="5.79276">
        <ele>1409</ele>
        <time>2022-07-27T15:38:41Z</time>
      </trkpt>
      <trkpt lat="45.39069" lon="5.79272">
        <ele>1409</ele>
        <time>2022-07-27T15:38:46Z</time>
      </trkpt>
      <trkpt lat="45.39068" lon="5.7927">
        <ele>1409</ele>
        <time>2022-07-27T15:38:51Z</time>
      </trkpt>
      <trkpt lat="45.39069" lon="5.7927">
        <ele>1409</ele>
        <time>2022-07-27T15:39:03Z</time>
      </trkpt>
      <trkpt lat="45.3907" lon="5.79273">
        <ele>1409</ele>
        <time>2022-07-27T15:39:20Z</time>
      </trkpt>
      <trkpt lat="45.3906" lon="5.79277">
        <ele>1409</ele>
        <time>2022-07-27T15:39:56Z</time>
      </trkpt>
      <trkpt lat="45.39058" lon="5.79278">
        <ele>1409</ele>
        <time>2022-07-27T15:40:01Z</time>
      </trkpt>
      <trkpt lat="45.39057" lon="5.79281">
        <ele>1409</ele>
        <time>2022-07-27T15:40:11Z</time>
      </trkpt>
      <trkpt lat="45.39058" lon="5.79283">
        <ele>1409</ele>
        <time>2022-07-27T15:40:14Z</time>
      </trkpt>
      <trkpt lat="45.39057" lon="5.79287">
        <ele>1409</ele>
        <time>2022-07-27T15:40:20Z</time>
      </trkpt>
      <trkpt lat="45.39055" lon="5.79291">
        <ele>1423</ele>
        <time>2022-07-27T15:40:25Z</time>
      </trkpt>
      <trkpt lat="45.39054" lon="5.79297">
        <ele>1423</ele>
        <time>2022-07-27T15:40:31Z</time>
      </trkpt>
      <trkpt lat="45.39054" lon="5.793">
        <ele>1423</ele>
        <time>2022-07-27T15:40:33Z</time>
      </trkpt>
      <trkpt lat="45.39055" lon="5.79303">
        <ele>1423</ele>
        <time>2022-07-27T15:40:36Z</time>
      </trkpt>
      <trkpt lat="45.39057" lon="5.79311">
        <ele>1423</ele>
        <time>2022-07-27T15:40:43Z</time>
      </trkpt>
      <trkpt lat="45.39057" lon="5.79314">
        <ele>1423</ele>
        <time>2022-07-27T15:40:47Z</time>
      </trkpt>
      <trkpt lat="45.39059" lon="5.79317">
        <ele>1423</ele>
        <time>2022-07-27T15:40:50Z</time>
      </trkpt>
      <trkpt lat="45.3906" lon="5.7932">
        <ele>1423</ele>
        <time>2022-07-27T15:40:53Z</time>
      </trkpt>
      <trkpt lat="45.39061" lon="5.79324">
        <ele>1426</ele>
        <time>2022-07-27T15:40:55Z</time>
      </trkpt>
      <trkpt lat="45.39062" lon="5.79328">
        <ele>1426</ele>
        <time>2022-07-27T15:40:58Z</time>
      </trkpt>
      <trkpt lat="45.39063" lon="5.79331">
        <ele>1426</ele>
        <time>2022-07-27T15:41:00Z</time>
      </trkpt>
      <trkpt lat="45.39065" lon="5.79333">
        <ele>1426</ele>
        <time>2022-07-27T15:41:02Z</time>
      </trkpt>
      <trkpt lat="45.39066" lon="5.79335">
        <ele>1426</ele>
        <time>2022-07-27T15:41:04Z</time>
      </trkpt>
      <trkpt lat="45.39068" lon="5.79338">
        <ele>1426</ele>
        <time>2022-07-27T15:41:07Z</time>
      </trkpt>
      <trkpt lat="45.39069" lon="5.7934">
        <ele>1426</ele>
        <time>2022-07-27T15:41:10Z</time>
      </trkpt>
      <trkpt lat="45.3907" lon="5.79343">
        <ele>1429</ele>
        <time>2022-07-27T15:41:15Z</time>
      </trkpt>
      <trkpt lat="45.39071" lon="5.79346">
        <ele>1429</ele>
        <time>2022-07-27T15:41:19Z</time>
      </trkpt>
      <trkpt lat="45.39072" lon="5.79349">
        <ele>1429</ele>
        <time>2022-07-27T15:41:21Z</time>
      </trkpt>
      <trkpt lat="45.39073" lon="5.79352">
        <ele>1430</ele>
        <time>2022-07-27T15:41:25Z</time>
      </trkpt>
      <trkpt lat="45.39073" lon="5.79355">
        <ele>1430</ele>
        <time>2022-07-27T15:41:26Z</time>
      </trkpt>
      <trkpt lat="45.39074" lon="5.79357">
        <ele>1430</ele>
        <time>2022-07-27T15:41:30Z</time>
      </trkpt>
      <trkpt lat="45.39076" lon="5.7936">
        <ele>1430</ele>
        <time>2022-07-27T15:41:33Z</time>
      </trkpt>
      <trkpt lat="45.39077" lon="5.79362">
        <ele>1430</ele>
        <time>2022-07-27T15:41:34Z</time>
      </trkpt>
      <trkpt lat="45.39082" lon="5.79368">
        <ele>1430</ele>
        <time>2022-07-27T15:41:41Z</time>
      </trkpt>
      <trkpt lat="45.39084" lon="5.7937">
        <ele>1430</ele>
        <time>2022-07-27T15:41:42Z</time>
      </trkpt>
      <trkpt lat="45.39085" lon="5.79373">
        <ele>1430</ele>
        <time>2022-07-27T15:41:46Z</time>
      </trkpt>
      <trkpt lat="45.39086" lon="5.79376">
        <ele>1430</ele>
        <time>2022-07-27T15:41:48Z</time>
      </trkpt>
      <trkpt lat="45.39086" lon="5.79378">
        <ele>1430</ele>
        <time>2022-07-27T15:41:54Z</time>
      </trkpt>
      <trkpt lat="45.39088" lon="5.79381">
        <ele>1430</ele>
        <time>2022-07-27T15:41:57Z</time>
      </trkpt>
      <trkpt lat="45.39088" lon="5.79385">
        <ele>1430</ele>
        <time>2022-07-27T15:42:00Z</time>
      </trkpt>
      <trkpt lat="45.3909" lon="5.79388">
        <ele>1430</ele>
        <time>2022-07-27T15:42:04Z</time>
      </trkpt>
      <trkpt lat="45.3909" lon="5.7939">
        <ele>1437</ele>
        <time>2022-07-27T15:42:05Z</time>
      </trkpt>
      <trkpt lat="45.39091" lon="5.79405">
        <ele>1437</ele>
        <time>2022-07-27T15:42:23Z</time>
      </trkpt>
      <trkpt lat="45.3908" lon="5.79407">
        <ele>1437</ele>
        <time>2022-07-27T15:42:38Z</time>
      </trkpt>
      <trkpt lat="45.39082" lon="5.79422">
        <ele>1437</ele>
        <time>2022-07-27T15:42:41Z</time>
      </trkpt>
      <trkpt lat="45.39086" lon="5.7943">
        <ele>1437</ele>
        <time>2022-07-27T15:42:46Z</time>
      </trkpt>
      <trkpt lat="45.39088" lon="5.79432">
        <ele>1437</ele>
        <time>2022-07-27T15:42:54Z</time>
      </trkpt>
      <trkpt lat="45.39089" lon="5.79433">
        <ele>1437</ele>
        <time>2022-07-27T15:42:59Z</time>
      </trkpt>
      <trkpt lat="45.39091" lon="5.79431">
        <ele>1437</ele>
        <time>2022-07-27T15:43:18Z</time>
      </trkpt>
      <trkpt lat="45.39089" lon="5.79433">
        <ele>1437</ele>
        <time>2022-07-27T15:43:43Z</time>
      </trkpt>
      <trkpt lat="45.39089" lon="5.79435">
        <ele>1437</ele>
        <time>2022-07-27T15:43:47Z</time>
      </trkpt>
      <trkpt lat="45.39087" lon="5.79437">
        <ele>1437</ele>
        <time>2022-07-27T15:43:49Z</time>
      </trkpt>
      <trkpt lat="45.39087" lon="5.79441">
        <ele>1437</ele>
        <time>2022-07-27T15:43:52Z</time>
      </trkpt>
      <trkpt lat="45.39085" lon="5.79443">
        <ele>1437</ele>
        <time>2022-07-27T15:43:57Z</time>
      </trkpt>
      <trkpt lat="45.39083" lon="5.79444">
        <ele>1437</ele>
        <time>2022-07-27T15:44:00Z</time>
      </trkpt>
      <trkpt lat="45.39081" lon="5.79446">
        <ele>1437</ele>
        <time>2022-07-27T15:44:02Z</time>
      </trkpt>
      <trkpt lat="45.3908" lon="5.79447">
        <ele>1441</ele>
        <time>2022-07-27T15:44:05Z</time>
      </trkpt>
      <trkpt lat="45.39078" lon="5.79448">
        <ele>1441</ele>
        <time>2022-07-27T15:44:07Z</time>
      </trkpt>
      <trkpt lat="45.39075" lon="5.79449">
        <ele>1441</ele>
        <time>2022-07-27T15:44:08Z</time>
      </trkpt>
      <trkpt lat="45.39073" lon="5.79451">
        <ele>1441</ele>
        <time>2022-07-27T15:44:11Z</time>
      </trkpt>
      <trkpt lat="45.39072" lon="5.79452">
        <ele>1441</ele>
        <time>2022-07-27T15:44:13Z</time>
      </trkpt>
      <trkpt lat="45.3907" lon="5.79454">
        <ele>1440</ele>
        <time>2022-07-27T15:44:15Z</time>
      </trkpt>
      <trkpt lat="45.39067" lon="5.79455">
        <ele>1440</ele>
        <time>2022-07-27T15:44:17Z</time>
      </trkpt>
      <trkpt lat="45.39065" lon="5.79457">
        <ele>1440</ele>
        <time>2022-07-27T15:44:18Z</time>
      </trkpt>
      <trkpt lat="45.39063" lon="5.79458">
        <ele>1440</ele>
        <time>2022-07-27T15:44:20Z</time>
      </trkpt>
      <trkpt lat="45.39061" lon="5.7946">
        <ele>1440</ele>
        <time>2022-07-27T15:44:24Z</time>
      </trkpt>
      <trkpt lat="45.39058" lon="5.79461">
        <ele>1439</ele>
        <time>2022-07-27T15:44:25Z</time>
      </trkpt>
      <trkpt lat="45.39056" lon="5.79462">
        <ele>1439</ele>
        <time>2022-07-27T15:44:28Z</time>
      </trkpt>
      <trkpt lat="45.39054" lon="5.79463">
        <ele>1439</ele>
        <time>2022-07-27T15:44:30Z</time>
      </trkpt>
      <trkpt lat="45.39052" lon="5.79462">
        <ele>1439</ele>
        <time>2022-07-27T15:44:32Z</time>
      </trkpt>
      <trkpt lat="45.3905" lon="5.79463">
        <ele>1439</ele>
        <time>2022-07-27T15:44:34Z</time>
      </trkpt>
      <trkpt lat="45.39048" lon="5.79464">
        <ele>1438</ele>
        <time>2022-07-27T15:44:35Z</time>
      </trkpt>
      <trkpt lat="45.39046" lon="5.79464">
        <ele>1438</ele>
        <time>2022-07-27T15:44:38Z</time>
      </trkpt>
      <trkpt lat="45.39044" lon="5.79464">
        <ele>1438</ele>
        <time>2022-07-27T15:44:40Z</time>
      </trkpt>
      <trkpt lat="45.39042" lon="5.79464">
        <ele>1438</ele>
        <time>2022-07-27T15:44:42Z</time>
      </trkpt>
      <trkpt lat="45.3904" lon="5.79464">
        <ele>1438</ele>
        <time>2022-07-27T15:44:43Z</time>
      </trkpt>
      <trkpt lat="45.39039" lon="5.79462">
        <ele>1438</ele>
        <time>2022-07-27T15:44:46Z</time>
      </trkpt>
      <trkpt lat="45.39037" lon="5.79463">
        <ele>1438</ele>
        <time>2022-07-27T15:45:00Z</time>
      </trkpt>
      <trkpt lat="45.39035" lon="5.79463">
        <ele>1438</ele>
        <time>2022-07-27T15:45:03Z</time>
      </trkpt>
      <trkpt lat="45.39033" lon="5.79463">
        <ele>1438</ele>
        <time>2022-07-27T15:45:08Z</time>
      </trkpt>
      <trkpt lat="45.3903" lon="5.79464">
        <ele>1438</ele>
        <time>2022-07-27T15:45:12Z</time>
      </trkpt>
      <trkpt lat="45.39028" lon="5.79464">
        <ele>1435</ele>
        <time>2022-07-27T15:45:15Z</time>
      </trkpt>
      <trkpt lat="45.39026" lon="5.79465">
        <ele>1435</ele>
        <time>2022-07-27T15:45:18Z</time>
      </trkpt>
      <trkpt lat="45.39024" lon="5.79465">
        <ele>1435</ele>
        <time>2022-07-27T15:45:20Z</time>
      </trkpt>
      <trkpt lat="45.39022" lon="5.79465">
        <ele>1435</ele>
        <time>2022-07-27T15:45:23Z</time>
      </trkpt>
      <trkpt lat="45.39019" lon="5.79465">
        <ele>1435</ele>
        <time>2022-07-27T15:45:26Z</time>
      </trkpt>
      <trkpt lat="45.39017" lon="5.79465">
        <ele>1435</ele>
        <time>2022-07-27T15:45:29Z</time>
      </trkpt>
      <trkpt lat="45.39015" lon="5.79465">
        <ele>1435</ele>
        <time>2022-07-27T15:45:31Z</time>
      </trkpt>
      <trkpt lat="45.39012" lon="5.79465">
        <ele>1435</ele>
        <time>2022-07-27T15:45:34Z</time>
      </trkpt>
      <trkpt lat="45.39011" lon="5.79464">
        <ele>1432</ele>
        <time>2022-07-27T15:45:35Z</time>
      </trkpt>
      <trkpt lat="45.39008" lon="5.79463">
        <ele>1432</ele>
        <time>2022-07-27T15:45:37Z</time>
      </trkpt>
      <trkpt lat="45.39006" lon="5.79463">
        <ele>1432</ele>
        <time>2022-07-27T15:45:40Z</time>
      </trkpt>
      <trkpt lat="45.39004" lon="5.79463">
        <ele>1432</ele>
        <time>2022-07-27T15:45:41Z</time>
      </trkpt>
      <trkpt lat="45.39002" lon="5.79463">
        <ele>1432</ele>
        <time>2022-07-27T15:45:43Z</time>
      </trkpt>
      <trkpt lat="45.39" lon="5.79462">
        <ele>1432</ele>
        <time>2022-07-27T15:45:46Z</time>
      </trkpt>
      <trkpt lat="45.38997" lon="5.79462">
        <ele>1432</ele>
        <time>2022-07-27T15:45:50Z</time>
      </trkpt>
      <trkpt lat="45.38995" lon="5.79462">
        <ele>1432</ele>
        <time>2022-07-27T15:45:51Z</time>
      </trkpt>
      <trkpt lat="45.38993" lon="5.79462">
        <ele>1432</ele>
        <time>2022-07-27T15:45:54Z</time>
      </trkpt>
      <trkpt lat="45.38991" lon="5.79462">
        <ele>1432</ele>
        <time>2022-07-27T15:45:56Z</time>
      </trkpt>
      <trkpt lat="45.3899" lon="5.79462">
        <ele>1432</ele>
        <time>2022-07-27T15:45:57Z</time>
      </trkpt>
      <trkpt lat="45.38987" lon="5.79462">
        <ele>1432</ele>
        <time>2022-07-27T15:46:02Z</time>
      </trkpt>
      <trkpt lat="45.38985" lon="5.79461">
        <ele>1432</ele>
        <time>2022-07-27T15:46:03Z</time>
      </trkpt>
      <trkpt lat="45.38983" lon="5.7946">
        <ele>1432</ele>
        <time>2022-07-27T15:46:06Z</time>
      </trkpt>
      <trkpt lat="45.38982" lon="5.79459">
        <ele>1432</ele>
        <time>2022-07-27T15:46:07Z</time>
      </trkpt>
      <trkpt lat="45.3898" lon="5.79458">
        <ele>1432</ele>
        <time>2022-07-27T15:46:10Z</time>
      </trkpt>
      <trkpt lat="45.38977" lon="5.79457">
        <ele>1432</ele>
        <time>2022-07-27T15:46:12Z</time>
      </trkpt>
      <trkpt lat="45.38975" lon="5.79456">
        <ele>1432</ele>
        <time>2022-07-27T15:46:14Z</time>
      </trkpt>
      <trkpt lat="45.38973" lon="5.79455">
        <ele>1432</ele>
        <time>2022-07-27T15:46:16Z</time>
      </trkpt>
      <trkpt lat="45.38971" lon="5.79454">
        <ele>1432</ele>
        <time>2022-07-27T15:46:18Z</time>
      </trkpt>
      <trkpt lat="45.38969" lon="5.79454">
        <ele>1432</ele>
        <time>2022-07-27T15:46:21Z</time>
      </trkpt>
      <trkpt lat="45.38967" lon="5.79454">
        <ele>1432</ele>
        <time>2022-07-27T15:46:23Z</time>
      </trkpt>
      <trkpt lat="45.38964" lon="5.79455">
        <ele>1432</ele>
        <time>2022-07-27T15:46:26Z</time>
      </trkpt>
      <trkpt lat="45.38962" lon="5.79454">
        <ele>1432</ele>
        <time>2022-07-27T15:46:28Z</time>
      </trkpt>
      <trkpt lat="45.3896" lon="5.79454">
        <ele>1432</ele>
        <time>2022-07-27T15:46:30Z</time>
      </trkpt>
      <trkpt lat="45.38957" lon="5.79454">
        <ele>1432</ele>
        <time>2022-07-27T15:46:33Z</time>
      </trkpt>
      <trkpt lat="45.38955" lon="5.79454">
        <ele>1427</ele>
        <time>2022-07-27T15:46:35Z</time>
      </trkpt>
      <trkpt lat="45.38952" lon="5.79454">
        <ele>1427</ele>
        <time>2022-07-27T15:46:38Z</time>
      </trkpt>
      <trkpt lat="45.3895" lon="5.79454">
        <ele>1427</ele>
        <time>2022-07-27T15:46:39Z</time>
      </trkpt>
      <trkpt lat="45.38948" lon="5.79453">
        <ele>1427</ele>
        <time>2022-07-27T15:46:41Z</time>
      </trkpt>
      <trkpt lat="45.38945" lon="5.79453">
        <ele>1427</ele>
        <time>2022-07-27T15:46:44Z</time>
      </trkpt>
      <trkpt lat="45.38944" lon="5.79453">
        <ele>1425</ele>
        <time>2022-07-27T15:46:45Z</time>
      </trkpt>
      <trkpt lat="45.38942" lon="5.79453">
        <ele>1425</ele>
        <time>2022-07-27T15:46:48Z</time>
      </trkpt>
      <trkpt lat="45.38939" lon="5.79454">
        <ele>1425</ele>
        <time>2022-07-27T15:46:57Z</time>
      </trkpt>
      <trkpt lat="45.38937" lon="5.79453">
        <ele>1425</ele>
        <time>2022-07-27T15:47:01Z</time>
      </trkpt>
      <trkpt lat="45.38935" lon="5.79453">
        <ele>1425</ele>
        <time>2022-07-27T15:47:03Z</time>
      </trkpt>
      <trkpt lat="45.38933" lon="5.79452">
        <ele>1425</ele>
        <time>2022-07-27T15:47:06Z</time>
      </trkpt>
      <trkpt lat="45.38931" lon="5.79451">
        <ele>1425</ele>
        <time>2022-07-27T15:47:07Z</time>
      </trkpt>
      <trkpt lat="45.3893" lon="5.7945">
        <ele>1425</ele>
        <time>2022-07-27T15:47:09Z</time>
      </trkpt>
      <trkpt lat="45.38928" lon="5.7945">
        <ele>1425</ele>
        <time>2022-07-27T15:47:11Z</time>
      </trkpt>
      <trkpt lat="45.38925" lon="5.79451">
        <ele>1425</ele>
        <time>2022-07-27T15:47:14Z</time>
      </trkpt>
      <trkpt lat="45.38923" lon="5.79452">
        <ele>1425</ele>
        <time>2022-07-27T15:47:17Z</time>
      </trkpt>
      <trkpt lat="45.38921" lon="5.79452">
        <ele>1425</ele>
        <time>2022-07-27T15:47:20Z</time>
      </trkpt>
      <trkpt lat="45.38919" lon="5.79452">
        <ele>1425</ele>
        <time>2022-07-27T15:47:22Z</time>
      </trkpt>
      <trkpt lat="45.38917" lon="5.79451">
        <ele>1425</ele>
        <time>2022-07-27T15:47:23Z</time>
      </trkpt>
      <trkpt lat="45.38914" lon="5.7945">
        <ele>1420</ele>
        <time>2022-07-27T15:47:25Z</time>
      </trkpt>
      <trkpt lat="45.38912" lon="5.7945">
        <ele>1420</ele>
        <time>2022-07-27T15:47:29Z</time>
      </trkpt>
      <trkpt lat="45.3891" lon="5.79449">
        <ele>1420</ele>
        <time>2022-07-27T15:47:31Z</time>
      </trkpt>
      <trkpt lat="45.38908" lon="5.79449">
        <ele>1420</ele>
        <time>2022-07-27T15:47:33Z</time>
      </trkpt>
      <trkpt lat="45.38906" lon="5.79448">
        <ele>1420</ele>
        <time>2022-07-27T15:47:36Z</time>
      </trkpt>
      <trkpt lat="45.38903" lon="5.79447">
        <ele>1420</ele>
        <time>2022-07-27T15:47:39Z</time>
      </trkpt>
      <trkpt lat="45.38901" lon="5.79446">
        <ele>1420</ele>
        <time>2022-07-27T15:47:42Z</time>
      </trkpt>
      <trkpt lat="45.38899" lon="5.79446">
        <ele>1420</ele>
        <time>2022-07-27T15:47:44Z</time>
      </trkpt>
      <trkpt lat="45.38895" lon="5.79445">
        <ele>1420</ele>
        <time>2022-07-27T15:47:47Z</time>
      </trkpt>
      <trkpt lat="45.38893" lon="5.79444">
        <ele>1420</ele>
        <time>2022-07-27T15:47:49Z</time>
      </trkpt>
      <trkpt lat="45.38891" lon="5.79444">
        <ele>1420</ele>
        <time>2022-07-27T15:47:50Z</time>
      </trkpt>
      <trkpt lat="45.38888" lon="5.79443">
        <ele>1420</ele>
        <time>2022-07-27T15:47:53Z</time>
      </trkpt>
      <trkpt lat="45.38885" lon="5.79441">
        <ele>1420</ele>
        <time>2022-07-27T15:47:56Z</time>
      </trkpt>
      <trkpt lat="45.38883" lon="5.79441">
        <ele>1420</ele>
        <time>2022-07-27T15:47:58Z</time>
      </trkpt>
      <trkpt lat="45.38879" lon="5.79441">
        <ele>1420</ele>
        <time>2022-07-27T15:48:00Z</time>
      </trkpt>
      <trkpt lat="45.38876" lon="5.7944">
        <ele>1420</ele>
        <time>2022-07-27T15:48:03Z</time>
      </trkpt>
      <trkpt lat="45.38874" lon="5.7944">
        <ele>1413</ele>
        <time>2022-07-27T15:48:05Z</time>
      </trkpt>
      <trkpt lat="45.38872" lon="5.79438">
        <ele>1413</ele>
        <time>2022-07-27T15:48:09Z</time>
      </trkpt>
      <trkpt lat="45.38869" lon="5.79436">
        <ele>1413</ele>
        <time>2022-07-27T15:48:12Z</time>
      </trkpt>
      <trkpt lat="45.38867" lon="5.79435">
        <ele>1413</ele>
        <time>2022-07-27T15:48:15Z</time>
      </trkpt>
      <trkpt lat="45.38865" lon="5.79434">
        <ele>1413</ele>
        <time>2022-07-27T15:48:16Z</time>
      </trkpt>
      <trkpt lat="45.38862" lon="5.79433">
        <ele>1413</ele>
        <time>2022-07-27T15:48:19Z</time>
      </trkpt>
      <trkpt lat="45.38852" lon="5.79431">
        <ele>1413</ele>
        <time>2022-07-27T15:48:26Z</time>
      </trkpt>
      <trkpt lat="45.3885" lon="5.7943">
        <ele>1413</ele>
        <time>2022-07-27T15:48:28Z</time>
      </trkpt>
      <trkpt lat="45.38848" lon="5.79429">
        <ele>1413</ele>
        <time>2022-07-27T15:48:30Z</time>
      </trkpt>
      <trkpt lat="45.38839" lon="5.79429">
        <ele>1413</ele>
        <time>2022-07-27T15:48:38Z</time>
      </trkpt>
      <trkpt lat="45.38837" lon="5.7943">
        <ele>1413</ele>
        <time>2022-07-27T15:48:39Z</time>
      </trkpt>
      <trkpt lat="45.38835" lon="5.79431">
        <ele>1413</ele>
        <time>2022-07-27T15:48:41Z</time>
      </trkpt>
      <trkpt lat="45.38833" lon="5.79432">
        <ele>1413</ele>
        <time>2022-07-27T15:48:44Z</time>
      </trkpt>
      <trkpt lat="45.3883" lon="5.79433">
        <ele>1413</ele>
        <time>2022-07-27T15:48:46Z</time>
      </trkpt>
      <trkpt lat="45.38828" lon="5.79435">
        <ele>1413</ele>
        <time>2022-07-27T15:48:48Z</time>
      </trkpt>
      <trkpt lat="45.38826" lon="5.79435">
        <ele>1413</ele>
        <time>2022-07-27T15:48:50Z</time>
      </trkpt>
      <trkpt lat="45.38824" lon="5.79436">
        <ele>1413</ele>
        <time>2022-07-27T15:48:53Z</time>
      </trkpt>
      <trkpt lat="45.38822" lon="5.79438">
        <ele>1413</ele>
        <time>2022-07-27T15:48:54Z</time>
      </trkpt>
      <trkpt lat="45.38819" lon="5.79439">
        <ele>1413</ele>
        <time>2022-07-27T15:48:58Z</time>
      </trkpt>
      <trkpt lat="45.38817" lon="5.7944">
        <ele>1413</ele>
        <time>2022-07-27T15:48:59Z</time>
      </trkpt>
      <trkpt lat="45.38815" lon="5.79442">
        <ele>1413</ele>
        <time>2022-07-27T15:49:03Z</time>
      </trkpt>
      <trkpt lat="45.38808" lon="5.79448">
        <ele>1413</ele>
        <time>2022-07-27T15:49:12Z</time>
      </trkpt>
      <trkpt lat="45.38807" lon="5.79451">
        <ele>1408</ele>
        <time>2022-07-27T15:49:15Z</time>
      </trkpt>
      <trkpt lat="45.38804" lon="5.79453">
        <ele>1408</ele>
        <time>2022-07-27T15:49:19Z</time>
      </trkpt>
      <trkpt lat="45.38802" lon="5.79454">
        <ele>1408</ele>
        <time>2022-07-27T15:49:21Z</time>
      </trkpt>
      <trkpt lat="45.38801" lon="5.79456">
        <ele>1408</ele>
        <time>2022-07-27T15:49:23Z</time>
      </trkpt>
      <trkpt lat="45.38799" lon="5.79457">
        <ele>1408</ele>
        <time>2022-07-27T15:49:26Z</time>
      </trkpt>
      <trkpt lat="45.38797" lon="5.79458">
        <ele>1408</ele>
        <time>2022-07-27T15:49:29Z</time>
      </trkpt>
      <trkpt lat="45.38795" lon="5.79459">
        <ele>1408</ele>
        <time>2022-07-27T15:49:32Z</time>
      </trkpt>
      <trkpt lat="45.38792" lon="5.7946">
        <ele>1408</ele>
        <time>2022-07-27T15:49:34Z</time>
      </trkpt>
      <trkpt lat="45.3879" lon="5.79462">
        <ele>1408</ele>
        <time>2022-07-27T15:49:37Z</time>
      </trkpt>
      <trkpt lat="45.38788" lon="5.79463">
        <ele>1408</ele>
        <time>2022-07-27T15:49:39Z</time>
      </trkpt>
      <trkpt lat="45.38786" lon="5.79464">
        <ele>1408</ele>
        <time>2022-07-27T15:49:41Z</time>
      </trkpt>
      <trkpt lat="45.38784" lon="5.79465">
        <ele>1408</ele>
        <time>2022-07-27T15:49:43Z</time>
      </trkpt>
      <trkpt lat="45.38782" lon="5.79467">
        <ele>1408</ele>
        <time>2022-07-27T15:49:46Z</time>
      </trkpt>
      <trkpt lat="45.3878" lon="5.79468">
        <ele>1408</ele>
        <time>2022-07-27T15:49:47Z</time>
      </trkpt>
      <trkpt lat="45.38771" lon="5.79472">
        <ele>1408</ele>
        <time>2022-07-27T15:49:57Z</time>
      </trkpt>
      <trkpt lat="45.38761" lon="5.79478">
        <ele>1408</ele>
        <time>2022-07-27T15:50:04Z</time>
      </trkpt>
      <trkpt lat="45.38755" lon="5.7949">
        <ele>1408</ele>
        <time>2022-07-27T15:50:10Z</time>
      </trkpt>
      <trkpt lat="45.38747" lon="5.79498">
        <ele>1408</ele>
        <time>2022-07-27T15:50:19Z</time>
      </trkpt>
      <trkpt lat="45.38739" lon="5.79505">
        <ele>1408</ele>
        <time>2022-07-27T15:50:31Z</time>
      </trkpt>
      <trkpt lat="45.3873" lon="5.79513">
        <ele>1408</ele>
        <time>2022-07-27T15:50:40Z</time>
      </trkpt>
      <trkpt lat="45.38724" lon="5.79522">
        <ele>1408</ele>
        <time>2022-07-27T15:50:49Z</time>
      </trkpt>
      <trkpt lat="45.38718" lon="5.79533">
        <ele>1408</ele>
        <time>2022-07-27T15:50:59Z</time>
      </trkpt>
      <trkpt lat="45.38716" lon="5.79545">
        <ele>1408</ele>
        <time>2022-07-27T15:51:08Z</time>
      </trkpt>
      <trkpt lat="45.38711" lon="5.79558">
        <ele>1408</ele>
        <time>2022-07-27T15:51:18Z</time>
      </trkpt>
      <trkpt lat="45.38703" lon="5.79565">
        <ele>1408</ele>
        <time>2022-07-27T15:51:26Z</time>
      </trkpt>
      <trkpt lat="45.38695" lon="5.79574">
        <ele>1408</ele>
        <time>2022-07-27T15:51:36Z</time>
      </trkpt>
      <trkpt lat="45.38697" lon="5.79588">
        <ele>1408</ele>
        <time>2022-07-27T15:51:48Z</time>
      </trkpt>
      <trkpt lat="45.38695" lon="5.79601">
        <ele>1408</ele>
        <time>2022-07-27T15:51:57Z</time>
      </trkpt>
      <trkpt lat="45.38695" lon="5.79613">
        <ele>1408</ele>
        <time>2022-07-27T15:52:08Z</time>
      </trkpt>
      <trkpt lat="45.38696" lon="5.79627">
        <ele>1408</ele>
        <time>2022-07-27T15:52:22Z</time>
      </trkpt>
      <trkpt lat="45.38697" lon="5.7964">
        <ele>1408</ele>
        <time>2022-07-27T15:52:29Z</time>
      </trkpt>
      <trkpt lat="45.38692" lon="5.79653">
        <ele>1408</ele>
        <time>2022-07-27T15:52:36Z</time>
      </trkpt>
      <trkpt lat="45.38686" lon="5.79663">
        <ele>1408</ele>
        <time>2022-07-27T15:52:44Z</time>
      </trkpt>
      <trkpt lat="45.38679" lon="5.79671">
        <ele>1408</ele>
        <time>2022-07-27T15:52:54Z</time>
      </trkpt>
      <trkpt lat="45.38677" lon="5.79684">
        <ele>1408</ele>
        <time>2022-07-27T15:53:04Z</time>
      </trkpt>
      <trkpt lat="45.3867" lon="5.79693">
        <ele>1408</ele>
        <time>2022-07-27T15:53:14Z</time>
      </trkpt>
      <trkpt lat="45.38664" lon="5.79703">
        <ele>1408</ele>
        <time>2022-07-27T15:53:33Z</time>
      </trkpt>
      <trkpt lat="45.38658" lon="5.79713">
        <ele>1408</ele>
        <time>2022-07-27T15:53:44Z</time>
      </trkpt>
      <trkpt lat="45.38654" lon="5.79725">
        <ele>1408</ele>
        <time>2022-07-27T15:53:53Z</time>
      </trkpt>
      <trkpt lat="45.38647" lon="5.79734">
        <ele>1408</ele>
        <time>2022-07-27T15:54:09Z</time>
      </trkpt>
      <trkpt lat="45.38642" lon="5.79745">
        <ele>1408</ele>
        <time>2022-07-27T15:54:20Z</time>
      </trkpt>
      <trkpt lat="45.38643" lon="5.79758">
        <ele>1408</ele>
        <time>2022-07-27T15:54:32Z</time>
      </trkpt>
      <trkpt lat="45.38643" lon="5.79764">
        <ele>1408</ele>
        <time>2022-07-27T15:54:38Z</time>
      </trkpt>
      <trkpt lat="45.38645" lon="5.79773">
        <ele>1408</ele>
        <time>2022-07-27T15:54:56Z</time>
      </trkpt>
      <trkpt lat="45.38644" lon="5.79776">
        <ele>1408</ele>
        <time>2022-07-27T15:55:00Z</time>
      </trkpt>
      <trkpt lat="45.38643" lon="5.79779">
        <ele>1421</ele>
        <time>2022-07-27T15:55:05Z</time>
      </trkpt>
      <trkpt lat="45.38643" lon="5.79782">
        <ele>1421</ele>
        <time>2022-07-27T15:55:10Z</time>
      </trkpt>
      <trkpt lat="45.38642" lon="5.79784">
        <ele>1421</ele>
        <time>2022-07-27T15:55:11Z</time>
      </trkpt>
      <trkpt lat="45.3864" lon="5.79786">
        <ele>1421</ele>
        <time>2022-07-27T15:55:16Z</time>
      </trkpt>
      <trkpt lat="45.38639" lon="5.79785">
        <ele>1421</ele>
        <time>2022-07-27T15:55:27Z</time>
      </trkpt>
      <trkpt lat="45.38637" lon="5.79786">
        <ele>1421</ele>
        <time>2022-07-27T15:55:34Z</time>
      </trkpt>
      <trkpt lat="45.38637" lon="5.79789">
        <ele>1421</ele>
        <time>2022-07-27T15:55:38Z</time>
      </trkpt>
      <trkpt lat="45.38639" lon="5.7979">
        <ele>1421</ele>
        <time>2022-07-27T15:56:17Z</time>
      </trkpt>
      <trkpt lat="45.3864" lon="5.79789">
        <ele>1421</ele>
        <time>2022-07-27T15:56:21Z</time>
      </trkpt>
      <trkpt lat="45.38641" lon="5.79792">
        <ele>1421</ele>
        <time>2022-07-27T15:56:32Z</time>
      </trkpt>
      <trkpt lat="45.38642" lon="5.79794">
        <ele>1426</ele>
        <time>2022-07-27T15:56:35Z</time>
      </trkpt>
      <trkpt lat="45.38643" lon="5.79796">
        <ele>1426</ele>
        <time>2022-07-27T15:56:46Z</time>
      </trkpt>
      <trkpt lat="45.38642" lon="5.79799">
        <ele>1426</ele>
        <time>2022-07-27T15:56:49Z</time>
      </trkpt>
      <trkpt lat="45.38641" lon="5.79803">
        <ele>1426</ele>
        <time>2022-07-27T15:56:52Z</time>
      </trkpt>
      <trkpt lat="45.3864" lon="5.79805">
        <ele>1426</ele>
        <time>2022-07-27T15:56:54Z</time>
      </trkpt>
      <trkpt lat="45.38639" lon="5.79807">
        <ele>1426</ele>
        <time>2022-07-27T15:56:56Z</time>
      </trkpt>
      <trkpt lat="45.38638" lon="5.7981">
        <ele>1426</ele>
        <time>2022-07-27T15:56:59Z</time>
      </trkpt>
      <trkpt lat="45.38636" lon="5.79811">
        <ele>1426</ele>
        <time>2022-07-27T15:57:36Z</time>
      </trkpt>
      <trkpt lat="45.38634" lon="5.7981">
        <ele>1426</ele>
        <time>2022-07-27T15:57:39Z</time>
      </trkpt>
      <trkpt lat="45.38631" lon="5.79809">
        <ele>1426</ele>
        <time>2022-07-27T15:57:40Z</time>
      </trkpt>
      <trkpt lat="45.38629" lon="5.79808">
        <ele>1426</ele>
        <time>2022-07-27T15:57:43Z</time>
      </trkpt>
      <trkpt lat="45.38627" lon="5.79807">
        <ele>1426</ele>
        <time>2022-07-27T15:57:44Z</time>
      </trkpt>
      <trkpt lat="45.38624" lon="5.79807">
        <ele>1426</ele>
        <time>2022-07-27T15:57:46Z</time>
      </trkpt>
      <trkpt lat="45.38622" lon="5.79808">
        <ele>1426</ele>
        <time>2022-07-27T15:57:48Z</time>
      </trkpt>
      <trkpt lat="45.3862" lon="5.79807">
        <ele>1426</ele>
        <time>2022-07-27T15:57:50Z</time>
      </trkpt>
      <trkpt lat="45.38618" lon="5.79808">
        <ele>1426</ele>
        <time>2022-07-27T15:57:54Z</time>
      </trkpt>
      <trkpt lat="45.38616" lon="5.79808">
        <ele>1427</ele>
        <time>2022-07-27T15:57:55Z</time>
      </trkpt>
      <trkpt lat="45.38613" lon="5.7981">
        <ele>1427</ele>
        <time>2022-07-27T15:57:58Z</time>
      </trkpt>
      <trkpt lat="45.38612" lon="5.79812">
        <ele>1427</ele>
        <time>2022-07-27T15:58:01Z</time>
      </trkpt>
      <trkpt lat="45.3861" lon="5.79813">
        <ele>1427</ele>
        <time>2022-07-27T15:58:02Z</time>
      </trkpt>
      <trkpt lat="45.38607" lon="5.79813">
        <ele>1427</ele>
        <time>2022-07-27T15:58:04Z</time>
      </trkpt>
      <trkpt lat="45.38605" lon="5.79815">
        <ele>1427</ele>
        <time>2022-07-27T15:58:07Z</time>
      </trkpt>
      <trkpt lat="45.38603" lon="5.79816">
        <ele>1427</ele>
        <time>2022-07-27T15:58:09Z</time>
      </trkpt>
      <trkpt lat="45.38601" lon="5.79817">
        <ele>1427</ele>
        <time>2022-07-27T15:58:12Z</time>
      </trkpt>
      <trkpt lat="45.38599" lon="5.79818">
        <ele>1425</ele>
        <time>2022-07-27T15:58:15Z</time>
      </trkpt>
      <trkpt lat="45.38597" lon="5.79819">
        <ele>1425</ele>
        <time>2022-07-27T15:58:16Z</time>
      </trkpt>
      <trkpt lat="45.38594" lon="5.7982">
        <ele>1425</ele>
        <time>2022-07-27T15:58:19Z</time>
      </trkpt>
      <trkpt lat="45.38592" lon="5.79821">
        <ele>1425</ele>
        <time>2022-07-27T15:58:22Z</time>
      </trkpt>
      <trkpt lat="45.3859" lon="5.79822">
        <ele>1425</ele>
        <time>2022-07-27T15:58:23Z</time>
      </trkpt>
      <trkpt lat="45.38588" lon="5.79824">
        <ele>1425</ele>
        <time>2022-07-27T15:58:25Z</time>
      </trkpt>
      <trkpt lat="45.38587" lon="5.79825">
        <ele>1425</ele>
        <time>2022-07-27T15:58:27Z</time>
      </trkpt>
      <trkpt lat="45.38584" lon="5.79826">
        <ele>1425</ele>
        <time>2022-07-27T15:58:29Z</time>
      </trkpt>
      <trkpt lat="45.38581" lon="5.79827">
        <ele>1425</ele>
        <time>2022-07-27T15:58:32Z</time>
      </trkpt>
      <trkpt lat="45.38579" lon="5.79829">
        <ele>1425</ele>
        <time>2022-07-27T15:58:34Z</time>
      </trkpt>
      <trkpt lat="45.38577" lon="5.79829">
        <ele>1425</ele>
        <time>2022-07-27T15:58:36Z</time>
      </trkpt>
      <trkpt lat="45.38575" lon="5.7983">
        <ele>1425</ele>
        <time>2022-07-27T15:58:38Z</time>
      </trkpt>
      <trkpt lat="45.38573" lon="5.79831">
        <ele>1425</ele>
        <time>2022-07-27T15:58:40Z</time>
      </trkpt>
      <trkpt lat="45.3857" lon="5.79831">
        <ele>1425</ele>
        <time>2022-07-27T15:58:43Z</time>
      </trkpt>
      <trkpt lat="45.38568" lon="5.79831">
        <ele>1424</ele>
        <time>2022-07-27T15:58:45Z</time>
      </trkpt>
      <trkpt lat="45.38566" lon="5.79832">
        <ele>1424</ele>
        <time>2022-07-27T15:58:46Z</time>
      </trkpt>
      <trkpt lat="45.38563" lon="5.79832">
        <ele>1424</ele>
        <time>2022-07-27T15:58:48Z</time>
      </trkpt>
      <trkpt lat="45.38561" lon="5.79833">
        <ele>1424</ele>
        <time>2022-07-27T15:58:51Z</time>
      </trkpt>
      <trkpt lat="45.38559" lon="5.79833">
        <ele>1424</ele>
        <time>2022-07-27T15:58:53Z</time>
      </trkpt>
      <trkpt lat="45.38557" lon="5.79833">
        <ele>1424</ele>
        <time>2022-07-27T15:58:55Z</time>
      </trkpt>
      <trkpt lat="45.38555" lon="5.79834">
        <ele>1424</ele>
        <time>2022-07-27T15:58:56Z</time>
      </trkpt>
      <trkpt lat="45.38553" lon="5.79835">
        <ele>1424</ele>
        <time>2022-07-27T15:58:58Z</time>
      </trkpt>
      <trkpt lat="45.38551" lon="5.79836">
        <ele>1424</ele>
        <time>2022-07-27T15:59:01Z</time>
      </trkpt>
      <trkpt lat="45.38549" lon="5.79837">
        <ele>1424</ele>
        <time>2022-07-27T15:59:02Z</time>
      </trkpt>
      <trkpt lat="45.38547" lon="5.79838">
        <ele>1424</ele>
        <time>2022-07-27T15:59:04Z</time>
      </trkpt>
      <trkpt lat="45.38545" lon="5.79839">
        <ele>1424</ele>
        <time>2022-07-27T15:59:07Z</time>
      </trkpt>
      <trkpt lat="45.38544" lon="5.7984">
        <ele>1424</ele>
        <time>2022-07-27T15:59:08Z</time>
      </trkpt>
      <trkpt lat="45.38542" lon="5.79841">
        <ele>1424</ele>
        <time>2022-07-27T15:59:10Z</time>
      </trkpt>
      <trkpt lat="45.38539" lon="5.79842">
        <ele>1424</ele>
        <time>2022-07-27T15:59:12Z</time>
      </trkpt>
      <trkpt lat="45.38537" lon="5.79842">
        <ele>1424</ele>
        <time>2022-07-27T15:59:16Z</time>
      </trkpt>
      <trkpt lat="45.38535" lon="5.79843">
        <ele>1424</ele>
        <time>2022-07-27T15:59:17Z</time>
      </trkpt>
      <trkpt lat="45.38533" lon="5.79845">
        <ele>1424</ele>
        <time>2022-07-27T15:59:20Z</time>
      </trkpt>
      <trkpt lat="45.38531" lon="5.79847">
        <ele>1422</ele>
        <time>2022-07-27T15:59:55Z</time>
      </trkpt>
      <trkpt lat="45.38529" lon="5.79846">
        <ele>1422</ele>
        <time>2022-07-27T15:59:56Z</time>
      </trkpt>
      <trkpt lat="45.38526" lon="5.79846">
        <ele>1422</ele>
        <time>2022-07-27T15:59:59Z</time>
      </trkpt>
      <trkpt lat="45.38524" lon="5.79846">
        <ele>1422</ele>
        <time>2022-07-27T16:00:02Z</time>
      </trkpt>
      <trkpt lat="45.38522" lon="5.79846">
        <ele>1422</ele>
        <time>2022-07-27T16:00:04Z</time>
      </trkpt>
      <trkpt lat="45.3852" lon="5.79846">
        <ele>1420</ele>
        <time>2022-07-27T16:00:05Z</time>
      </trkpt>
      <trkpt lat="45.38518" lon="5.79847">
        <ele>1420</ele>
        <time>2022-07-27T16:00:08Z</time>
      </trkpt>
      <trkpt lat="45.38515" lon="5.79847">
        <ele>1420</ele>
        <time>2022-07-27T16:00:09Z</time>
      </trkpt>
      <trkpt lat="45.38514" lon="5.79847">
        <ele>1420</ele>
        <time>2022-07-27T16:00:12Z</time>
      </trkpt>
      <trkpt lat="45.38511" lon="5.79847">
        <ele>1420</ele>
        <time>2022-07-27T16:00:13Z</time>
      </trkpt>
      <trkpt lat="45.38509" lon="5.79848">
        <ele>1419</ele>
        <time>2022-07-27T16:00:15Z</time>
      </trkpt>
      <trkpt lat="45.38506" lon="5.79848">
        <ele>1419</ele>
        <time>2022-07-27T16:00:18Z</time>
      </trkpt>
      <trkpt lat="45.38504" lon="5.79848">
        <ele>1419</ele>
        <time>2022-07-27T16:00:20Z</time>
      </trkpt>
      <trkpt lat="45.38502" lon="5.79849">
        <ele>1419</ele>
        <time>2022-07-27T16:00:21Z</time>
      </trkpt>
      <trkpt lat="45.385" lon="5.79849">
        <ele>1419</ele>
        <time>2022-07-27T16:00:24Z</time>
      </trkpt>
      <trkpt lat="45.38498" lon="5.7985">
        <ele>1419</ele>
        <time>2022-07-27T16:00:26Z</time>
      </trkpt>
      <trkpt lat="45.38496" lon="5.7985">
        <ele>1419</ele>
        <time>2022-07-27T16:00:28Z</time>
      </trkpt>
      <trkpt lat="45.38494" lon="5.79851">
        <ele>1419</ele>
        <time>2022-07-27T16:00:30Z</time>
      </trkpt>
      <trkpt lat="45.38492" lon="5.79852">
        <ele>1419</ele>
        <time>2022-07-27T16:00:32Z</time>
      </trkpt>
      <trkpt lat="45.38489" lon="5.79853">
        <ele>1419</ele>
        <time>2022-07-27T16:00:33Z</time>
      </trkpt>
      <trkpt lat="45.38487" lon="5.79854">
        <ele>1417</ele>
        <time>2022-07-27T16:00:35Z</time>
      </trkpt>
      <trkpt lat="45.38485" lon="5.79854">
        <ele>1417</ele>
        <time>2022-07-27T16:00:37Z</time>
      </trkpt>
      <trkpt lat="45.38483" lon="5.79855">
        <ele>1417</ele>
        <time>2022-07-27T16:00:39Z</time>
      </trkpt>
      <trkpt lat="45.38481" lon="5.79855">
        <ele>1417</ele>
        <time>2022-07-27T16:00:41Z</time>
      </trkpt>
      <trkpt lat="45.38478" lon="5.79855">
        <ele>1417</ele>
        <time>2022-07-27T16:00:44Z</time>
      </trkpt>
      <trkpt lat="45.38476" lon="5.79855">
        <ele>1417</ele>
        <time>2022-07-27T16:00:47Z</time>
      </trkpt>
      <trkpt lat="45.38473" lon="5.79856">
        <ele>1417</ele>
        <time>2022-07-27T16:00:48Z</time>
      </trkpt>
      <trkpt lat="45.38471" lon="5.79856">
        <ele>1417</ele>
        <time>2022-07-27T16:00:50Z</time>
      </trkpt>
      <trkpt lat="45.3847" lon="5.79856">
        <ele>1417</ele>
        <time>2022-07-27T16:01:07Z</time>
      </trkpt>
      <trkpt lat="45.38471" lon="5.79859">
        <ele>1417</ele>
        <time>2022-07-27T16:01:09Z</time>
      </trkpt>
      <trkpt lat="45.38471" lon="5.79862">
        <ele>1417</ele>
        <time>2022-07-27T16:01:12Z</time>
      </trkpt>
      <trkpt lat="45.38472" lon="5.79865">
        <ele>1417</ele>
        <time>2022-07-27T16:01:16Z</time>
      </trkpt>
      <trkpt lat="45.38474" lon="5.79866">
        <ele>1417</ele>
        <time>2022-07-27T16:01:21Z</time>
      </trkpt>
      <trkpt lat="45.38476" lon="5.79868">
        <ele>1414</ele>
        <time>2022-07-27T16:01:25Z</time>
      </trkpt>
      <trkpt lat="45.38477" lon="5.7987">
        <ele>1414</ele>
        <time>2022-07-27T16:01:27Z</time>
      </trkpt>
      <trkpt lat="45.38479" lon="5.79871">
        <ele>1414</ele>
        <time>2022-07-27T16:01:30Z</time>
      </trkpt>
      <trkpt lat="45.38481" lon="5.79872">
        <ele>1414</ele>
        <time>2022-07-27T16:01:33Z</time>
      </trkpt>
      <trkpt lat="45.38482" lon="5.79875">
        <ele>1414</ele>
        <time>2022-07-27T16:01:38Z</time>
      </trkpt>
      <trkpt lat="45.38481" lon="5.79878">
        <ele>1414</ele>
        <time>2022-07-27T16:01:40Z</time>
      </trkpt>
      <trkpt lat="45.38481" lon="5.79881">
        <ele>1417</ele>
        <time>2022-07-27T16:01:45Z</time>
      </trkpt>
      <trkpt lat="45.38479" lon="5.79882">
        <ele>1417</ele>
        <time>2022-07-27T16:01:47Z</time>
      </trkpt>
      <trkpt lat="45.38477" lon="5.79884">
        <ele>1417</ele>
        <time>2022-07-27T16:01:51Z</time>
      </trkpt>
      <trkpt lat="45.38476" lon="5.79886">
        <ele>1417</ele>
        <time>2022-07-27T16:01:55Z</time>
      </trkpt>
      <trkpt lat="45.38477" lon="5.79889">
        <ele>1417</ele>
        <time>2022-07-27T16:01:59Z</time>
      </trkpt>
      <trkpt lat="45.38479" lon="5.79888">
        <ele>1417</ele>
        <time>2022-07-27T16:02:02Z</time>
      </trkpt>
      <trkpt lat="45.38481" lon="5.79887">
        <ele>1417</ele>
        <time>2022-07-27T16:02:06Z</time>
      </trkpt>
      <trkpt lat="45.38483" lon="5.79887">
        <ele>1417</ele>
        <time>2022-07-27T16:02:14Z</time>
      </trkpt>
      <trkpt lat="45.38485" lon="5.79886">
        <ele>1417</ele>
        <time>2022-07-27T16:02:17Z</time>
      </trkpt>
      <trkpt lat="45.38487" lon="5.79888">
        <ele>1417</ele>
        <time>2022-07-27T16:02:22Z</time>
      </trkpt>
      <trkpt lat="45.38488" lon="5.7989">
        <ele>1417</ele>
        <time>2022-07-27T16:02:32Z</time>
      </trkpt>
      <trkpt lat="45.38488" lon="5.79893">
        <ele>1417</ele>
        <time>2022-07-27T16:02:37Z</time>
      </trkpt>
      <trkpt lat="45.38488" lon="5.79896">
        <ele>1417</ele>
        <time>2022-07-27T16:02:41Z</time>
      </trkpt>
      <trkpt lat="45.3849" lon="5.79898">
        <ele>1424</ele>
        <time>2022-07-27T16:02:46Z</time>
      </trkpt>
      <trkpt lat="45.38492" lon="5.799">
        <ele>1424</ele>
        <time>2022-07-27T16:02:49Z</time>
      </trkpt>
      <trkpt lat="45.38493" lon="5.79902">
        <ele>1424</ele>
        <time>2022-07-27T16:02:53Z</time>
      </trkpt>
      <trkpt lat="45.38494" lon="5.79903">
        <ele>1424</ele>
        <time>2022-07-27T16:02:58Z</time>
      </trkpt>
      <trkpt lat="45.38496" lon="5.79904">
        <ele>1424</ele>
        <time>2022-07-27T16:03:02Z</time>
      </trkpt>
      <trkpt lat="45.38498" lon="5.79906">
        <ele>1426</ele>
        <time>2022-07-27T16:03:05Z</time>
      </trkpt>
      <trkpt lat="45.38499" lon="5.79909">
        <ele>1426</ele>
        <time>2022-07-27T16:03:09Z</time>
      </trkpt>
      <trkpt lat="45.385" lon="5.79912">
        <ele>1426</ele>
        <time>2022-07-27T16:03:13Z</time>
      </trkpt>
      <trkpt lat="45.38502" lon="5.79914">
        <ele>1426</ele>
        <time>2022-07-27T16:03:16Z</time>
      </trkpt>
      <trkpt lat="45.38504" lon="5.79915">
        <ele>1426</ele>
        <time>2022-07-27T16:03:19Z</time>
      </trkpt>
      <trkpt lat="45.38505" lon="5.79918">
        <ele>1426</ele>
        <time>2022-07-27T16:03:24Z</time>
      </trkpt>
      <trkpt lat="45.38504" lon="5.79921">
        <ele>1426</ele>
        <time>2022-07-27T16:03:27Z</time>
      </trkpt>
      <trkpt lat="45.38504" lon="5.79923">
        <ele>1426</ele>
        <time>2022-07-27T16:03:31Z</time>
      </trkpt>
      <trkpt lat="45.38503" lon="5.79926">
        <ele>1426</ele>
        <time>2022-07-27T16:03:33Z</time>
      </trkpt>
      <trkpt lat="45.38503" lon="5.79929">
        <ele>1426</ele>
        <time>2022-07-27T16:03:38Z</time>
      </trkpt>
      <trkpt lat="45.38504" lon="5.79931">
        <ele>1426</ele>
        <time>2022-07-27T16:03:40Z</time>
      </trkpt>
      <trkpt lat="45.38504" lon="5.79935">
        <ele>1426</ele>
        <time>2022-07-27T16:03:44Z</time>
      </trkpt>
      <trkpt lat="45.38503" lon="5.79938">
        <ele>1426</ele>
        <time>2022-07-27T16:03:48Z</time>
      </trkpt>
      <trkpt lat="45.38502" lon="5.7994">
        <ele>1426</ele>
        <time>2022-07-27T16:03:52Z</time>
      </trkpt>
      <trkpt lat="45.38502" lon="5.79943">
        <ele>1426</ele>
        <time>2022-07-27T16:03:56Z</time>
      </trkpt>
      <trkpt lat="45.38501" lon="5.79945">
        <ele>1426</ele>
        <time>2022-07-27T16:03:59Z</time>
      </trkpt>
      <trkpt lat="45.38501" lon="5.79948">
        <ele>1426</ele>
        <time>2022-07-27T16:04:26Z</time>
      </trkpt>
      <trkpt lat="45.38501" lon="5.79951">
        <ele>1426</ele>
        <time>2022-07-27T16:04:30Z</time>
      </trkpt>
      <trkpt lat="45.38502" lon="5.79953">
        <ele>1426</ele>
        <time>2022-07-27T16:04:34Z</time>
      </trkpt>
      <trkpt lat="45.38504" lon="5.79954">
        <ele>1426</ele>
        <time>2022-07-27T16:04:37Z</time>
      </trkpt>
      <trkpt lat="45.38506" lon="5.79957">
        <ele>1426</ele>
        <time>2022-07-27T16:04:43Z</time>
      </trkpt>
      <trkpt lat="45.38507" lon="5.79959">
        <ele>1426</ele>
        <time>2022-07-27T16:04:46Z</time>
      </trkpt>
      <trkpt lat="45.38508" lon="5.79961">
        <ele>1426</ele>
        <time>2022-07-27T16:04:51Z</time>
      </trkpt>
      <trkpt lat="45.3851" lon="5.79961">
        <ele>1426</ele>
        <time>2022-07-27T16:04:58Z</time>
      </trkpt>
      <trkpt lat="45.38512" lon="5.79963">
        <ele>1426</ele>
        <time>2022-07-27T16:05:02Z</time>
      </trkpt>
      <trkpt lat="45.38514" lon="5.79965">
        <ele>1426</ele>
        <time>2022-07-27T16:05:07Z</time>
      </trkpt>
      <trkpt lat="45.38516" lon="5.79967">
        <ele>1426</ele>
        <time>2022-07-27T16:05:11Z</time>
      </trkpt>
      <trkpt lat="45.38517" lon="5.79968">
        <ele>1445</ele>
        <time>2022-07-27T16:05:15Z</time>
      </trkpt>
      <trkpt lat="45.38519" lon="5.7997">
        <ele>1445</ele>
        <time>2022-07-27T16:05:18Z</time>
      </trkpt>
      <trkpt lat="45.38521" lon="5.79972">
        <ele>1445</ele>
        <time>2022-07-27T16:05:22Z</time>
      </trkpt>
      <trkpt lat="45.38522" lon="5.79973">
        <ele>1446</ele>
        <time>2022-07-27T16:05:25Z</time>
      </trkpt>
      <trkpt lat="45.38524" lon="5.79975">
        <ele>1446</ele>
        <time>2022-07-27T16:05:28Z</time>
      </trkpt>
      <trkpt lat="45.38526" lon="5.79977">
        <ele>1446</ele>
        <time>2022-07-27T16:05:31Z</time>
      </trkpt>
      <trkpt lat="45.38528" lon="5.79978">
        <ele>1446</ele>
        <time>2022-07-27T16:05:34Z</time>
      </trkpt>
      <trkpt lat="45.38527" lon="5.79981">
        <ele>1446</ele>
        <time>2022-07-27T16:05:37Z</time>
      </trkpt>
      <trkpt lat="45.38527" lon="5.79984">
        <ele>1446</ele>
        <time>2022-07-27T16:05:41Z</time>
      </trkpt>
      <trkpt lat="45.38527" lon="5.79987">
        <ele>1446</ele>
        <time>2022-07-27T16:05:46Z</time>
      </trkpt>
      <trkpt lat="45.38527" lon="5.79989">
        <ele>1446</ele>
        <time>2022-07-27T16:05:49Z</time>
      </trkpt>
      <trkpt lat="45.38527" lon="5.79993">
        <ele>1446</ele>
        <time>2022-07-27T16:05:54Z</time>
      </trkpt>
      <trkpt lat="45.38528" lon="5.79995">
        <ele>1446</ele>
        <time>2022-07-27T16:05:59Z</time>
      </trkpt>
      <trkpt lat="45.38529" lon="5.79997">
        <ele>1446</ele>
        <time>2022-07-27T16:06:04Z</time>
      </trkpt>
      <trkpt lat="45.38531" lon="5.79997">
        <ele>1446</ele>
        <time>2022-07-27T16:06:09Z</time>
      </trkpt>
      <trkpt lat="45.38533" lon="5.79999">
        <ele>1446</ele>
        <time>2022-07-27T16:06:13Z</time>
      </trkpt>
      <trkpt lat="45.38535" lon="5.8">
        <ele>1446</ele>
        <time>2022-07-27T16:06:16Z</time>
      </trkpt>
      <trkpt lat="45.38537" lon="5.8">
        <ele>1446</ele>
        <time>2022-07-27T16:06:19Z</time>
      </trkpt>
      <trkpt lat="45.38539" lon="5.80001">
        <ele>1446</ele>
        <time>2022-07-27T16:06:22Z</time>
      </trkpt>
      <trkpt lat="45.38541" lon="5.80002">
        <ele>1446</ele>
        <time>2022-07-27T16:06:26Z</time>
      </trkpt>
      <trkpt lat="45.38543" lon="5.80003">
        <ele>1446</ele>
        <time>2022-07-27T16:06:29Z</time>
      </trkpt>
      <trkpt lat="45.38544" lon="5.80005">
        <ele>1446</ele>
        <time>2022-07-27T16:06:33Z</time>
      </trkpt>
      <trkpt lat="45.38545" lon="5.80007">
        <ele>1446</ele>
        <time>2022-07-27T16:06:36Z</time>
      </trkpt>
      <trkpt lat="45.38547" lon="5.80008">
        <ele>1446</ele>
        <time>2022-07-27T16:06:39Z</time>
      </trkpt>
      <trkpt lat="45.38545" lon="5.80009">
        <ele>1446</ele>
        <time>2022-07-27T16:07:12Z</time>
      </trkpt>
      <trkpt lat="45.38543" lon="5.8001">
        <ele>1446</ele>
        <time>2022-07-27T16:07:16Z</time>
      </trkpt>
      <trkpt lat="45.38542" lon="5.80012">
        <ele>1446</ele>
        <time>2022-07-27T16:07:19Z</time>
      </trkpt>
      <trkpt lat="45.3854" lon="5.80014">
        <ele>1446</ele>
        <time>2022-07-27T16:07:22Z</time>
      </trkpt>
      <trkpt lat="45.38539" lon="5.80016">
        <ele>1460</ele>
        <time>2022-07-27T16:07:25Z</time>
      </trkpt>
      <trkpt lat="45.38538" lon="5.80018">
        <ele>1460</ele>
        <time>2022-07-27T16:07:26Z</time>
      </trkpt>
      <trkpt lat="45.38536" lon="5.80019">
        <ele>1460</ele>
        <time>2022-07-27T16:07:30Z</time>
      </trkpt>
      <trkpt lat="45.38534" lon="5.80021">
        <ele>1460</ele>
        <time>2022-07-27T16:07:33Z</time>
      </trkpt>
      <trkpt lat="45.38532" lon="5.80024">
        <ele>1460</ele>
        <time>2022-07-27T16:07:37Z</time>
      </trkpt>
      <trkpt lat="45.38531" lon="5.80026">
        <ele>1460</ele>
        <time>2022-07-27T16:07:40Z</time>
      </trkpt>
      <trkpt lat="45.38529" lon="5.80028">
        <ele>1460</ele>
        <time>2022-07-27T16:07:43Z</time>
      </trkpt>
      <trkpt lat="45.38527" lon="5.8003">
        <ele>1460</ele>
        <time>2022-07-27T16:07:47Z</time>
      </trkpt>
      <trkpt lat="45.38525" lon="5.80031">
        <ele>1460</ele>
        <time>2022-07-27T16:07:50Z</time>
      </trkpt>
      <trkpt lat="45.38524" lon="5.80033">
        <ele>1460</ele>
        <time>2022-07-27T16:07:52Z</time>
      </trkpt>
      <trkpt lat="45.38522" lon="5.80035">
        <ele>1460</ele>
        <time>2022-07-27T16:07:56Z</time>
      </trkpt>
      <trkpt lat="45.3852" lon="5.80036">
        <ele>1460</ele>
        <time>2022-07-27T16:07:58Z</time>
      </trkpt>
      <trkpt lat="45.3852" lon="5.80039">
        <ele>1460</ele>
        <time>2022-07-27T16:08:03Z</time>
      </trkpt>
      <trkpt lat="45.38522" lon="5.80041">
        <ele>1460</ele>
        <time>2022-07-27T16:08:04Z</time>
      </trkpt>
      <trkpt lat="45.38524" lon="5.80042">
        <ele>1460</ele>
        <time>2022-07-27T16:08:07Z</time>
      </trkpt>
      <trkpt lat="45.38526" lon="5.80042">
        <ele>1460</ele>
        <time>2022-07-27T16:08:09Z</time>
      </trkpt>
      <trkpt lat="45.38528" lon="5.80042">
        <ele>1460</ele>
        <time>2022-07-27T16:08:12Z</time>
      </trkpt>
      <trkpt lat="45.3853" lon="5.80042">
        <ele>1466</ele>
        <time>2022-07-27T16:08:15Z</time>
      </trkpt>
      <trkpt lat="45.38532" lon="5.80042">
        <ele>1466</ele>
        <time>2022-07-27T16:08:19Z</time>
      </trkpt>
      <trkpt lat="45.38534" lon="5.80042">
        <ele>1466</ele>
        <time>2022-07-27T16:08:22Z</time>
      </trkpt>
      <trkpt lat="45.38536" lon="5.80042">
        <ele>1468</ele>
        <time>2022-07-27T16:08:25Z</time>
      </trkpt>
      <trkpt lat="45.38538" lon="5.80042">
        <ele>1468</ele>
        <time>2022-07-27T16:08:28Z</time>
      </trkpt>
      <trkpt lat="45.3854" lon="5.80042">
        <ele>1468</ele>
        <time>2022-07-27T16:08:31Z</time>
      </trkpt>
      <trkpt lat="45.38543" lon="5.80043">
        <ele>1468</ele>
        <time>2022-07-27T16:08:33Z</time>
      </trkpt>
      <trkpt lat="45.38544" lon="5.80045">
        <ele>1468</ele>
        <time>2022-07-27T16:08:36Z</time>
      </trkpt>
      <trkpt lat="45.38546" lon="5.80047">
        <ele>1468</ele>
        <time>2022-07-27T16:08:40Z</time>
      </trkpt>
      <trkpt lat="45.38547" lon="5.80049">
        <ele>1468</ele>
        <time>2022-07-27T16:08:43Z</time>
      </trkpt>
      <trkpt lat="45.38549" lon="5.80051">
        <ele>1471</ele>
        <time>2022-07-27T16:08:45Z</time>
      </trkpt>
      <trkpt lat="45.3855" lon="5.80053">
        <ele>1471</ele>
        <time>2022-07-27T16:08:49Z</time>
      </trkpt>
      <trkpt lat="45.38552" lon="5.80054">
        <ele>1471</ele>
        <time>2022-07-27T16:08:50Z</time>
      </trkpt>
      <trkpt lat="45.38553" lon="5.80056">
        <ele>1471</ele>
        <time>2022-07-27T16:08:54Z</time>
      </trkpt>
      <trkpt lat="45.38555" lon="5.80058">
        <ele>1471</ele>
        <time>2022-07-27T16:08:57Z</time>
      </trkpt>
      <trkpt lat="45.38557" lon="5.80059">
        <ele>1471</ele>
        <time>2022-07-27T16:09:00Z</time>
      </trkpt>
      <trkpt lat="45.38559" lon="5.80061">
        <ele>1471</ele>
        <time>2022-07-27T16:09:03Z</time>
      </trkpt>
      <trkpt lat="45.38561" lon="5.80063">
        <ele>1473</ele>
        <time>2022-07-27T16:09:06Z</time>
      </trkpt>
      <trkpt lat="45.38563" lon="5.80064">
        <ele>1473</ele>
        <time>2022-07-27T16:09:08Z</time>
      </trkpt>
      <trkpt lat="45.38564" lon="5.80065">
        <ele>1473</ele>
        <time>2022-07-27T16:09:11Z</time>
      </trkpt>
      <trkpt lat="45.38566" lon="5.80066">
        <ele>1473</ele>
        <time>2022-07-27T16:09:14Z</time>
      </trkpt>
      <trkpt lat="45.38568" lon="5.80067">
        <ele>1473</ele>
        <time>2022-07-27T16:09:17Z</time>
      </trkpt>
      <trkpt lat="45.3857" lon="5.80069">
        <ele>1473</ele>
        <time>2022-07-27T16:09:21Z</time>
      </trkpt>
      <trkpt lat="45.38572" lon="5.80071">
        <ele>1473</ele>
        <time>2022-07-27T16:09:24Z</time>
      </trkpt>
      <trkpt lat="45.38574" lon="5.80073">
        <ele>1473</ele>
        <time>2022-07-27T16:09:28Z</time>
      </trkpt>
      <trkpt lat="45.38576" lon="5.80074">
        <ele>1473</ele>
        <time>2022-07-27T16:09:31Z</time>
      </trkpt>
      <trkpt lat="45.38578" lon="5.80075">
        <ele>1477</ele>
        <time>2022-07-27T16:09:35Z</time>
      </trkpt>
      <trkpt lat="45.3858" lon="5.80076">
        <ele>1477</ele>
        <time>2022-07-27T16:09:37Z</time>
      </trkpt>
      <trkpt lat="45.38578" lon="5.80078">
        <ele>1477</ele>
        <time>2022-07-27T16:09:44Z</time>
      </trkpt>
      <trkpt lat="45.38577" lon="5.80081">
        <ele>1477</ele>
        <time>2022-07-27T16:09:50Z</time>
      </trkpt>
      <trkpt lat="45.38576" lon="5.80083">
        <ele>1477</ele>
        <time>2022-07-27T16:09:54Z</time>
      </trkpt>
      <trkpt lat="45.38575" lon="5.80085">
        <ele>1477</ele>
        <time>2022-07-27T16:09:57Z</time>
      </trkpt>
      <trkpt lat="45.38573" lon="5.80086">
        <ele>1477</ele>
        <time>2022-07-27T16:10:00Z</time>
      </trkpt>
      <trkpt lat="45.38571" lon="5.80087">
        <ele>1477</ele>
        <time>2022-07-27T16:10:03Z</time>
      </trkpt>
      <trkpt lat="45.38569" lon="5.80088">
        <ele>1481</ele>
        <time>2022-07-27T16:10:05Z</time>
      </trkpt>
      <trkpt lat="45.38567" lon="5.80089">
        <ele>1481</ele>
        <time>2022-07-27T16:10:08Z</time>
      </trkpt>
      <trkpt lat="45.38564" lon="5.8009">
        <ele>1481</ele>
        <time>2022-07-27T16:10:12Z</time>
      </trkpt>
      <trkpt lat="45.38562" lon="5.80091">
        <ele>1481</ele>
        <time>2022-07-27T16:10:13Z</time>
      </trkpt>
      <trkpt lat="45.3856" lon="5.80092">
        <ele>1481</ele>
        <time>2022-07-27T16:10:17Z</time>
      </trkpt>
      <trkpt lat="45.38558" lon="5.80093">
        <ele>1481</ele>
        <time>2022-07-27T16:10:20Z</time>
      </trkpt>
      <trkpt lat="45.38557" lon="5.80095">
        <ele>1481</ele>
        <time>2022-07-27T16:10:22Z</time>
      </trkpt>
      <trkpt lat="45.38555" lon="5.80097">
        <ele>1481</ele>
        <time>2022-07-27T16:10:26Z</time>
      </trkpt>
      <trkpt lat="45.38554" lon="5.80098">
        <ele>1481</ele>
        <time>2022-07-27T16:10:28Z</time>
      </trkpt>
      <trkpt lat="45.38552" lon="5.80099">
        <ele>1481</ele>
        <time>2022-07-27T16:10:32Z</time>
      </trkpt>
      <trkpt lat="45.38549" lon="5.801">
        <ele>1481</ele>
        <time>2022-07-27T16:10:34Z</time>
      </trkpt>
      <trkpt lat="45.38548" lon="5.80102">
        <ele>1481</ele>
        <time>2022-07-27T16:10:36Z</time>
      </trkpt>
      <trkpt lat="45.38546" lon="5.80103">
        <ele>1481</ele>
        <time>2022-07-27T16:10:37Z</time>
      </trkpt>
      <trkpt lat="45.38544" lon="5.80105">
        <ele>1481</ele>
        <time>2022-07-27T16:10:41Z</time>
      </trkpt>
      <trkpt lat="45.38542" lon="5.80107">
        <ele>1481</ele>
        <time>2022-07-27T16:10:47Z</time>
      </trkpt>
      <trkpt lat="45.38541" lon="5.80109">
        <ele>1481</ele>
        <time>2022-07-27T16:10:51Z</time>
      </trkpt>
      <trkpt lat="45.38541" lon="5.80112">
        <ele>1481</ele>
        <time>2022-07-27T16:11:41Z</time>
      </trkpt>
      <trkpt lat="45.38543" lon="5.80113">
        <ele>1481</ele>
        <time>2022-07-27T16:11:47Z</time>
      </trkpt>
      <trkpt lat="45.38545" lon="5.80115">
        <ele>1481</ele>
        <time>2022-07-27T16:11:50Z</time>
      </trkpt>
      <trkpt lat="45.38547" lon="5.80116">
        <ele>1481</ele>
        <time>2022-07-27T16:11:52Z</time>
      </trkpt>
      <trkpt lat="45.38549" lon="5.80116">
        <ele>1481</ele>
        <time>2022-07-27T16:11:54Z</time>
      </trkpt>
      <trkpt lat="45.38552" lon="5.80116">
        <ele>1481</ele>
        <time>2022-07-27T16:11:58Z</time>
      </trkpt>
      <trkpt lat="45.38554" lon="5.80115">
        <ele>1481</ele>
        <time>2022-07-27T16:12:01Z</time>
      </trkpt>
      <trkpt lat="45.38556" lon="5.80116">
        <ele>1481</ele>
        <time>2022-07-27T16:12:04Z</time>
      </trkpt>
      <trkpt lat="45.38557" lon="5.80118">
        <ele>1481</ele>
        <time>2022-07-27T16:12:07Z</time>
      </trkpt>
      <trkpt lat="45.38559" lon="5.80119">
        <ele>1481</ele>
        <time>2022-07-27T16:12:11Z</time>
      </trkpt>
      <trkpt lat="45.38561" lon="5.8012">
        <ele>1481</ele>
        <time>2022-07-27T16:12:14Z</time>
      </trkpt>
      <trkpt lat="45.38563" lon="5.8012">
        <ele>1481</ele>
        <time>2022-07-27T16:12:17Z</time>
      </trkpt>
      <trkpt lat="45.38565" lon="5.8012">
        <ele>1481</ele>
        <time>2022-07-27T16:12:20Z</time>
      </trkpt>
      <trkpt lat="45.38567" lon="5.80121">
        <ele>1481</ele>
        <time>2022-07-27T16:12:23Z</time>
      </trkpt>
      <trkpt lat="45.38569" lon="5.80121">
        <ele>1481</ele>
        <time>2022-07-27T16:12:26Z</time>
      </trkpt>
      <trkpt lat="45.3857" lon="5.80123">
        <ele>1481</ele>
        <time>2022-07-27T16:12:30Z</time>
      </trkpt>
      <trkpt lat="45.38568" lon="5.80124">
        <ele>1481</ele>
        <time>2022-07-27T16:12:33Z</time>
      </trkpt>
      <trkpt lat="45.38566" lon="5.80126">
        <ele>1481</ele>
        <time>2022-07-27T16:12:36Z</time>
      </trkpt>
      <trkpt lat="45.38564" lon="5.80127">
        <ele>1481</ele>
        <time>2022-07-27T16:12:39Z</time>
      </trkpt>
      <trkpt lat="45.38562" lon="5.80129">
        <ele>1481</ele>
        <time>2022-07-27T16:12:42Z</time>
      </trkpt>
      <trkpt lat="45.3856" lon="5.8013">
        <ele>1481</ele>
        <time>2022-07-27T16:12:46Z</time>
      </trkpt>
      <trkpt lat="45.38558" lon="5.80132">
        <ele>1481</ele>
        <time>2022-07-27T16:12:48Z</time>
      </trkpt>
      <trkpt lat="45.38556" lon="5.80134">
        <ele>1481</ele>
        <time>2022-07-27T16:12:52Z</time>
      </trkpt>
      <trkpt lat="45.38555" lon="5.80136">
        <ele>1481</ele>
        <time>2022-07-27T16:12:54Z</time>
      </trkpt>
      <trkpt lat="45.38554" lon="5.80138">
        <ele>1481</ele>
        <time>2022-07-27T16:12:57Z</time>
      </trkpt>
      <trkpt lat="45.38552" lon="5.8014">
        <ele>1481</ele>
        <time>2022-07-27T16:13:00Z</time>
      </trkpt>
      <trkpt lat="45.3855" lon="5.80143">
        <ele>1481</ele>
        <time>2022-07-27T16:13:03Z</time>
      </trkpt>
      <trkpt lat="45.38548" lon="5.80145">
        <ele>1481</ele>
        <time>2022-07-27T16:13:07Z</time>
      </trkpt>
      <trkpt lat="45.38547" lon="5.80147">
        <ele>1481</ele>
        <time>2022-07-27T16:13:10Z</time>
      </trkpt>
      <trkpt lat="45.38546" lon="5.80149">
        <ele>1481</ele>
        <time>2022-07-27T16:13:13Z</time>
      </trkpt>
      <trkpt lat="45.38544" lon="5.8015">
        <ele>1503</ele>
        <time>2022-07-27T16:13:15Z</time>
      </trkpt>
      <trkpt lat="45.38542" lon="5.80152">
        <ele>1503</ele>
        <time>2022-07-27T16:13:18Z</time>
      </trkpt>
      <trkpt lat="45.3854" lon="5.80154">
        <ele>1503</ele>
        <time>2022-07-27T16:13:21Z</time>
      </trkpt>
      <trkpt lat="45.38539" lon="5.80156">
        <ele>1503</ele>
        <time>2022-07-27T16:13:24Z</time>
      </trkpt>
      <trkpt lat="45.38537" lon="5.80159">
        <ele>1503</ele>
        <time>2022-07-27T16:13:27Z</time>
      </trkpt>
      <trkpt lat="45.38537" lon="5.80161">
        <ele>1503</ele>
        <time>2022-07-27T16:13:31Z</time>
      </trkpt>
      <trkpt lat="45.38535" lon="5.80163">
        <ele>1503</ele>
        <time>2022-07-27T16:13:33Z</time>
      </trkpt>
      <trkpt lat="45.38534" lon="5.80165">
        <ele>1503</ele>
        <time>2022-07-27T16:13:36Z</time>
      </trkpt>
      <trkpt lat="45.38533" lon="5.80168">
        <ele>1503</ele>
        <time>2022-07-27T16:13:40Z</time>
      </trkpt>
      <trkpt lat="45.38531" lon="5.8017">
        <ele>1503</ele>
        <time>2022-07-27T16:13:42Z</time>
      </trkpt>
      <trkpt lat="45.38529" lon="5.80172">
        <ele>1503</ele>
        <time>2022-07-27T16:13:44Z</time>
      </trkpt>
      <trkpt lat="45.38529" lon="5.80175">
        <ele>1503</ele>
        <time>2022-07-27T16:13:48Z</time>
      </trkpt>
      <trkpt lat="45.38528" lon="5.80177">
        <ele>1503</ele>
        <time>2022-07-27T16:13:51Z</time>
      </trkpt>
      <trkpt lat="45.38528" lon="5.8018">
        <ele>1503</ele>
        <time>2022-07-27T16:14:04Z</time>
      </trkpt>
      <trkpt lat="45.38528" lon="5.80183">
        <ele>1503</ele>
        <time>2022-07-27T16:14:08Z</time>
      </trkpt>
      <trkpt lat="45.38527" lon="5.80186">
        <ele>1503</ele>
        <time>2022-07-27T16:14:10Z</time>
      </trkpt>
      <trkpt lat="45.38526" lon="5.80189">
        <ele>1503</ele>
        <time>2022-07-27T16:14:13Z</time>
      </trkpt>
      <trkpt lat="45.38525" lon="5.80192">
        <ele>1503</ele>
        <time>2022-07-27T16:14:16Z</time>
      </trkpt>
      <trkpt lat="45.38524" lon="5.80195">
        <ele>1503</ele>
        <time>2022-07-27T16:14:20Z</time>
      </trkpt>
      <trkpt lat="45.38524" lon="5.80198">
        <ele>1503</ele>
        <time>2022-07-27T16:14:23Z</time>
      </trkpt>
      <trkpt lat="45.38524" lon="5.80201">
        <ele>1503</ele>
        <time>2022-07-27T16:14:27Z</time>
      </trkpt>
      <trkpt lat="45.38524" lon="5.80204">
        <ele>1503</ele>
        <time>2022-07-27T16:14:30Z</time>
      </trkpt>
      <trkpt lat="45.38524" lon="5.80207">
        <ele>1503</ele>
        <time>2022-07-27T16:14:33Z</time>
      </trkpt>
      <trkpt lat="45.38525" lon="5.80209">
        <ele>1503</ele>
        <time>2022-07-27T16:14:37Z</time>
      </trkpt>
      <trkpt lat="45.38527" lon="5.80207">
        <ele>1503</ele>
        <time>2022-07-27T16:14:40Z</time>
      </trkpt>
      <trkpt lat="45.38529" lon="5.80205">
        <ele>1503</ele>
        <time>2022-07-27T16:14:43Z</time>
      </trkpt>
      <trkpt lat="45.3853" lon="5.80203">
        <ele>1503</ele>
        <time>2022-07-27T16:14:47Z</time>
      </trkpt>
      <trkpt lat="45.38532" lon="5.80202">
        <ele>1503</ele>
        <time>2022-07-27T16:14:49Z</time>
      </trkpt>
      <trkpt lat="45.38533" lon="5.802">
        <ele>1503</ele>
        <time>2022-07-27T16:14:52Z</time>
      </trkpt>
      <trkpt lat="45.38536" lon="5.80198">
        <ele>1503</ele>
        <time>2022-07-27T16:14:56Z</time>
      </trkpt>
      <trkpt lat="45.38538" lon="5.80197">
        <ele>1503</ele>
        <time>2022-07-27T16:14:59Z</time>
      </trkpt>
      <trkpt lat="45.3854" lon="5.80196">
        <ele>1503</ele>
        <time>2022-07-27T16:15:02Z</time>
      </trkpt>
      <trkpt lat="45.38542" lon="5.80195">
        <ele>1518</ele>
        <time>2022-07-27T16:15:05Z</time>
      </trkpt>
      <trkpt lat="45.38544" lon="5.80193">
        <ele>1518</ele>
        <time>2022-07-27T16:15:08Z</time>
      </trkpt>
      <trkpt lat="45.38546" lon="5.80192">
        <ele>1518</ele>
        <time>2022-07-27T16:15:11Z</time>
      </trkpt>
      <trkpt lat="45.38548" lon="5.80191">
        <ele>1519</ele>
        <time>2022-07-27T16:15:15Z</time>
      </trkpt>
      <trkpt lat="45.38551" lon="5.80191">
        <ele>1519</ele>
        <time>2022-07-27T16:15:18Z</time>
      </trkpt>
      <trkpt lat="45.38553" lon="5.8019">
        <ele>1519</ele>
        <time>2022-07-27T16:15:20Z</time>
      </trkpt>
      <trkpt lat="45.38554" lon="5.8019">
        <ele>1519</ele>
        <time>2022-07-27T16:15:24Z</time>
      </trkpt>
      <trkpt lat="45.38557" lon="5.8019">
        <ele>1519</ele>
        <time>2022-07-27T16:15:26Z</time>
      </trkpt>
      <trkpt lat="45.38559" lon="5.80189">
        <ele>1519</ele>
        <time>2022-07-27T16:15:30Z</time>
      </trkpt>
      <trkpt lat="45.38561" lon="5.80188">
        <ele>1519</ele>
        <time>2022-07-27T16:15:33Z</time>
      </trkpt>
      <trkpt lat="45.38563" lon="5.80188">
        <ele>1519</ele>
        <time>2022-07-27T16:15:36Z</time>
      </trkpt>
      <trkpt lat="45.38566" lon="5.80188">
        <ele>1519</ele>
        <time>2022-07-27T16:15:40Z</time>
      </trkpt>
      <trkpt lat="45.38568" lon="5.80188">
        <ele>1519</ele>
        <time>2022-07-27T16:15:42Z</time>
      </trkpt>
      <trkpt lat="45.3857" lon="5.80188">
        <ele>1523</ele>
        <time>2022-07-27T16:15:45Z</time>
      </trkpt>
      <trkpt lat="45.38572" lon="5.80189">
        <ele>1523</ele>
        <time>2022-07-27T16:15:48Z</time>
      </trkpt>
      <trkpt lat="45.38573" lon="5.8019">
        <ele>1523</ele>
        <time>2022-07-27T16:15:53Z</time>
      </trkpt>
      <trkpt lat="45.38576" lon="5.8019">
        <ele>1523</ele>
        <time>2022-07-27T16:15:57Z</time>
      </trkpt>
      <trkpt lat="45.38578" lon="5.8019">
        <ele>1523</ele>
        <time>2022-07-27T16:16:00Z</time>
      </trkpt>
      <trkpt lat="45.38579" lon="5.80193">
        <ele>1523</ele>
        <time>2022-07-27T16:16:04Z</time>
      </trkpt>
      <trkpt lat="45.38577" lon="5.80195">
        <ele>1523</ele>
        <time>2022-07-27T16:16:07Z</time>
      </trkpt>
      <trkpt lat="45.38575" lon="5.80196">
        <ele>1523</ele>
        <time>2022-07-27T16:16:10Z</time>
      </trkpt>
      <trkpt lat="45.38573" lon="5.80197">
        <ele>1523</ele>
        <time>2022-07-27T16:16:14Z</time>
      </trkpt>
      <trkpt lat="45.38572" lon="5.80199">
        <ele>1523</ele>
        <time>2022-07-27T16:16:17Z</time>
      </trkpt>
      <trkpt lat="45.3857" lon="5.80201">
        <ele>1523</ele>
        <time>2022-07-27T16:16:20Z</time>
      </trkpt>
      <trkpt lat="45.38568" lon="5.80203">
        <ele>1523</ele>
        <time>2022-07-27T16:16:23Z</time>
      </trkpt>
      <trkpt lat="45.38567" lon="5.80206">
        <ele>1529</ele>
        <time>2022-07-27T16:16:25Z</time>
      </trkpt>
      <trkpt lat="45.38566" lon="5.80208">
        <ele>1529</ele>
        <time>2022-07-27T16:16:29Z</time>
      </trkpt>
      <trkpt lat="45.38565" lon="5.8021">
        <ele>1529</ele>
        <time>2022-07-27T16:16:31Z</time>
      </trkpt>
      <trkpt lat="45.38563" lon="5.80213">
        <ele>1529</ele>
        <time>2022-07-27T16:16:34Z</time>
      </trkpt>
      <trkpt lat="45.38562" lon="5.80215">
        <ele>1529</ele>
        <time>2022-07-27T16:16:37Z</time>
      </trkpt>
      <trkpt lat="45.38562" lon="5.80218">
        <ele>1529</ele>
        <time>2022-07-27T16:16:41Z</time>
      </trkpt>
      <trkpt lat="45.38561" lon="5.8022">
        <ele>1529</ele>
        <time>2022-07-27T16:16:44Z</time>
      </trkpt>
      <trkpt lat="45.38563" lon="5.80222">
        <ele>1529</ele>
        <time>2022-07-27T16:17:09Z</time>
      </trkpt>
      <trkpt lat="45.38565" lon="5.80223">
        <ele>1529</ele>
        <time>2022-07-27T16:17:33Z</time>
      </trkpt>
      <trkpt lat="45.38566" lon="5.80222">
        <ele>1529</ele>
        <time>2022-07-27T16:17:47Z</time>
      </trkpt>
      <trkpt lat="45.38568" lon="5.80222">
        <ele>1529</ele>
        <time>2022-07-27T16:17:50Z</time>
      </trkpt>
      <trkpt lat="45.3857" lon="5.80221">
        <ele>1529</ele>
        <time>2022-07-27T16:17:54Z</time>
      </trkpt>
      <trkpt lat="45.38572" lon="5.80222">
        <ele>1529</ele>
        <time>2022-07-27T16:17:59Z</time>
      </trkpt>
      <trkpt lat="45.38573" lon="5.80224">
        <ele>1529</ele>
        <time>2022-07-27T16:18:03Z</time>
      </trkpt>
      <trkpt lat="45.38575" lon="5.80227">
        <ele>1529</ele>
        <time>2022-07-27T16:18:06Z</time>
      </trkpt>
      <trkpt lat="45.38576" lon="5.80229">
        <ele>1529</ele>
        <time>2022-07-27T16:18:11Z</time>
      </trkpt>
      <trkpt lat="45.38578" lon="5.8023">
        <ele>1529</ele>
        <time>2022-07-27T16:18:16Z</time>
      </trkpt>
      <trkpt lat="45.3858" lon="5.8023">
        <ele>1529</ele>
        <time>2022-07-27T16:18:21Z</time>
      </trkpt>
      <trkpt lat="45.38582" lon="5.80232">
        <ele>1540</ele>
        <time>2022-07-27T16:18:25Z</time>
      </trkpt>
      <trkpt lat="45.38584" lon="5.80233">
        <ele>1540</ele>
        <time>2022-07-27T16:18:29Z</time>
      </trkpt>
      <trkpt lat="45.38585" lon="5.80235">
        <ele>1540</ele>
        <time>2022-07-27T16:18:34Z</time>
      </trkpt>
      <trkpt lat="45.38586" lon="5.80238">
        <ele>1540</ele>
        <time>2022-07-27T16:18:40Z</time>
      </trkpt>
      <trkpt lat="45.38587" lon="5.8024">
        <ele>1540</ele>
        <time>2022-07-27T16:18:46Z</time>
      </trkpt>
      <trkpt lat="45.38588" lon="5.80243">
        <ele>1540</ele>
        <time>2022-07-27T16:18:51Z</time>
      </trkpt>
      <trkpt lat="45.3859" lon="5.80244">
        <ele>1545</ele>
        <time>2022-07-27T16:18:55Z</time>
      </trkpt>
      <trkpt lat="45.38591" lon="5.80246">
        <ele>1545</ele>
        <time>2022-07-27T16:19:00Z</time>
      </trkpt>
      <trkpt lat="45.38593" lon="5.80248">
        <ele>1545</ele>
        <time>2022-07-27T16:19:03Z</time>
      </trkpt>
      <trkpt lat="45.38594" lon="5.8025">
        <ele>1545</ele>
        <time>2022-07-27T16:19:08Z</time>
      </trkpt>
      <trkpt lat="45.38595" lon="5.80252">
        <ele>1548</ele>
        <time>2022-07-27T16:19:15Z</time>
      </trkpt>
      <trkpt lat="45.38597" lon="5.80254">
        <ele>1548</ele>
        <time>2022-07-27T16:19:18Z</time>
      </trkpt>
      <trkpt lat="45.38599" lon="5.80256">
        <ele>1548</ele>
        <time>2022-07-27T16:19:22Z</time>
      </trkpt>
      <trkpt lat="45.38601" lon="5.80257">
        <ele>1548</ele>
        <time>2022-07-27T16:19:26Z</time>
      </trkpt>
      <trkpt lat="45.38602" lon="5.80258">
        <ele>1548</ele>
        <time>2022-07-27T16:19:32Z</time>
      </trkpt>
      <trkpt lat="45.38604" lon="5.8026">
        <ele>1548</ele>
        <time>2022-07-27T16:20:04Z</time>
      </trkpt>
      <trkpt lat="45.38605" lon="5.80262">
        <ele>1548</ele>
        <time>2022-07-27T16:20:08Z</time>
      </trkpt>
      <trkpt lat="45.38606" lon="5.80264">
        <ele>1548</ele>
        <time>2022-07-27T16:20:14Z</time>
      </trkpt>
      <trkpt lat="45.38608" lon="5.80266">
        <ele>1548</ele>
        <time>2022-07-27T16:20:19Z</time>
      </trkpt>
      <trkpt lat="45.38609" lon="5.80268">
        <ele>1556</ele>
        <time>2022-07-27T16:20:25Z</time>
      </trkpt>
      <trkpt lat="45.3861" lon="5.8027">
        <ele>1556</ele>
        <time>2022-07-27T16:20:30Z</time>
      </trkpt>
      <trkpt lat="45.38612" lon="5.80272">
        <ele>1558</ele>
        <time>2022-07-27T16:20:35Z</time>
      </trkpt>
      <trkpt lat="45.38613" lon="5.80274">
        <ele>1558</ele>
        <time>2022-07-27T16:20:43Z</time>
      </trkpt>
      <trkpt lat="45.38614" lon="5.80276">
        <ele>1558</ele>
        <time>2022-07-27T16:20:49Z</time>
      </trkpt>
      <trkpt lat="45.38616" lon="5.80278">
        <ele>1558</ele>
        <time>2022-07-27T16:20:53Z</time>
      </trkpt>
      <trkpt lat="45.38617" lon="5.8028">
        <ele>1558</ele>
        <time>2022-07-27T16:21:00Z</time>
      </trkpt>
      <trkpt lat="45.38618" lon="5.80283">
        <ele>1563</ele>
        <time>2022-07-27T16:21:05Z</time>
      </trkpt>
      <trkpt lat="45.38619" lon="5.80285">
        <ele>1563</ele>
        <time>2022-07-27T16:21:10Z</time>
      </trkpt>
      <trkpt lat="45.3862" lon="5.80287">
        <ele>1563</ele>
        <time>2022-07-27T16:21:16Z</time>
      </trkpt>
      <trkpt lat="45.38621" lon="5.8029">
        <ele>1563</ele>
        <time>2022-07-27T16:21:30Z</time>
      </trkpt>
      <trkpt lat="45.38622" lon="5.80292">
        <ele>1563</ele>
        <time>2022-07-27T16:21:36Z</time>
      </trkpt>
      <trkpt lat="45.38623" lon="5.80295">
        <ele>1563</ele>
        <time>2022-07-27T16:21:40Z</time>
      </trkpt>
      <trkpt lat="45.38625" lon="5.80297">
        <ele>1563</ele>
        <time>2022-07-27T16:21:44Z</time>
      </trkpt>
      <trkpt lat="45.38626" lon="5.80299">
        <ele>1563</ele>
        <time>2022-07-27T16:21:48Z</time>
      </trkpt>
      <trkpt lat="45.38627" lon="5.80302">
        <ele>1563</ele>
        <time>2022-07-27T16:21:53Z</time>
      </trkpt>
      <trkpt lat="45.38628" lon="5.80305">
        <ele>1563</ele>
        <time>2022-07-27T16:21:58Z</time>
      </trkpt>
      <trkpt lat="45.38629" lon="5.80303">
        <ele>1563</ele>
        <time>2022-07-27T16:22:17Z</time>
      </trkpt>
      <trkpt lat="45.3863" lon="5.803">
        <ele>1563</ele>
        <time>2022-07-27T16:22:43Z</time>
      </trkpt>
      <trkpt lat="45.38629" lon="5.80303">
        <ele>1563</ele>
        <time>2022-07-27T16:22:50Z</time>
      </trkpt>
      <trkpt lat="45.38629" lon="5.80305">
        <ele>1563</ele>
        <time>2022-07-27T16:22:56Z</time>
      </trkpt>
      <trkpt lat="45.38629" lon="5.80308">
        <ele>1563</ele>
        <time>2022-07-27T16:23:00Z</time>
      </trkpt>
      <trkpt lat="45.38629" lon="5.80311">
        <ele>1573</ele>
        <time>2022-07-27T16:23:05Z</time>
      </trkpt>
      <trkpt lat="45.38628" lon="5.80314">
        <ele>1573</ele>
        <time>2022-07-27T16:23:08Z</time>
      </trkpt>
      <trkpt lat="45.38627" lon="5.80316">
        <ele>1573</ele>
        <time>2022-07-27T16:23:13Z</time>
      </trkpt>
      <trkpt lat="45.38627" lon="5.80319">
        <ele>1573</ele>
        <time>2022-07-27T16:23:16Z</time>
      </trkpt>
      <trkpt lat="45.38627" lon="5.80322">
        <ele>1573</ele>
        <time>2022-07-27T16:23:21Z</time>
      </trkpt>
      <trkpt lat="45.38627" lon="5.80325">
        <ele>1573</ele>
        <time>2022-07-27T16:23:27Z</time>
      </trkpt>
      <trkpt lat="45.38628" lon="5.80327">
        <ele>1579</ele>
        <time>2022-07-27T16:23:35Z</time>
      </trkpt>
      <trkpt lat="45.38628" lon="5.8033">
        <ele>1579</ele>
        <time>2022-07-27T16:23:48Z</time>
      </trkpt>
      <trkpt lat="45.38628" lon="5.80333">
        <ele>1579</ele>
        <time>2022-07-27T16:23:51Z</time>
      </trkpt>
      <trkpt lat="45.3863" lon="5.80334">
        <ele>1579</ele>
        <time>2022-07-27T16:23:56Z</time>
      </trkpt>
      <trkpt lat="45.3863" lon="5.80337">
        <ele>1579</ele>
        <time>2022-07-27T16:24:02Z</time>
      </trkpt>
      <trkpt lat="45.3863" lon="5.80339">
        <ele>1579</ele>
        <time>2022-07-27T16:24:06Z</time>
      </trkpt>
      <trkpt lat="45.3863" lon="5.80342">
        <ele>1579</ele>
        <time>2022-07-27T16:24:09Z</time>
      </trkpt>
      <trkpt lat="45.38628" lon="5.80344">
        <ele>1579</ele>
        <time>2022-07-27T16:24:14Z</time>
      </trkpt>
      <trkpt lat="45.38628" lon="5.80347">
        <ele>1579</ele>
        <time>2022-07-27T16:24:20Z</time>
      </trkpt>
      <trkpt lat="45.38629" lon="5.8035">
        <ele>1585</ele>
        <time>2022-07-27T16:24:25Z</time>
      </trkpt>
      <trkpt lat="45.38631" lon="5.8035">
        <ele>1585</ele>
        <time>2022-07-27T16:24:30Z</time>
      </trkpt>
      <trkpt lat="45.38633" lon="5.80352">
        <ele>1585</ele>
        <time>2022-07-27T16:24:34Z</time>
      </trkpt>
      <trkpt lat="45.38632" lon="5.80354">
        <ele>1585</ele>
        <time>2022-07-27T16:24:39Z</time>
      </trkpt>
      <trkpt lat="45.38632" lon="5.80356">
        <ele>1585</ele>
        <time>2022-07-27T16:24:48Z</time>
      </trkpt>
      <trkpt lat="45.38633" lon="5.80359">
        <ele>1585</ele>
        <time>2022-07-27T16:24:53Z</time>
      </trkpt>
      <trkpt lat="45.38633" lon="5.80362">
        <ele>1585</ele>
        <time>2022-07-27T16:24:58Z</time>
      </trkpt>
      <trkpt lat="45.38633" lon="5.80364">
        <ele>1585</ele>
        <time>2022-07-27T16:25:04Z</time>
      </trkpt>
      <trkpt lat="45.38634" lon="5.80367">
        <ele>1594</ele>
        <time>2022-07-27T16:25:25Z</time>
      </trkpt>
      <trkpt lat="45.38632" lon="5.8037">
        <ele>1594</ele>
        <time>2022-07-27T16:25:30Z</time>
      </trkpt>
      <trkpt lat="45.38631" lon="5.80372">
        <ele>1594</ele>
        <time>2022-07-27T16:25:34Z</time>
      </trkpt>
      <trkpt lat="45.38629" lon="5.80374">
        <ele>1594</ele>
        <time>2022-07-27T16:25:37Z</time>
      </trkpt>
      <trkpt lat="45.38628" lon="5.80376">
        <ele>1594</ele>
        <time>2022-07-27T16:25:42Z</time>
      </trkpt>
      <trkpt lat="45.38626" lon="5.80378">
        <ele>1594</ele>
        <time>2022-07-27T16:25:57Z</time>
      </trkpt>
      <trkpt lat="45.38625" lon="5.8038">
        <ele>1594</ele>
        <time>2022-07-27T16:26:06Z</time>
      </trkpt>
      <trkpt lat="45.38623" lon="5.80383">
        <ele>1594</ele>
        <time>2022-07-27T16:26:11Z</time>
      </trkpt>
      <trkpt lat="45.38622" lon="5.80385">
        <ele>1594</ele>
        <time>2022-07-27T16:27:26Z</time>
      </trkpt>
      <trkpt lat="45.38621" lon="5.80388">
        <ele>1594</ele>
        <time>2022-07-27T16:27:29Z</time>
      </trkpt>
      <trkpt lat="45.3862" lon="5.8039">
        <ele>1594</ele>
        <time>2022-07-27T16:27:32Z</time>
      </trkpt>
      <trkpt lat="45.3862" lon="5.80393">
        <ele>1594</ele>
        <time>2022-07-27T16:27:36Z</time>
      </trkpt>
      <trkpt lat="45.38619" lon="5.80395">
        <ele>1594</ele>
        <time>2022-07-27T16:27:40Z</time>
      </trkpt>
      <trkpt lat="45.38618" lon="5.80398">
        <ele>1601</ele>
        <time>2022-07-27T16:27:45Z</time>
      </trkpt>
      <trkpt lat="45.38616" lon="5.804">
        <ele>1601</ele>
        <time>2022-07-27T16:27:48Z</time>
      </trkpt>
      <trkpt lat="45.38616" lon="5.80403">
        <ele>1601</ele>
        <time>2022-07-27T16:27:52Z</time>
      </trkpt>
      <trkpt lat="45.38616" lon="5.80406">
        <ele>1601</ele>
        <time>2022-07-27T16:27:56Z</time>
      </trkpt>
      <trkpt lat="45.38615" lon="5.80408">
        <ele>1601</ele>
        <time>2022-07-27T16:28:00Z</time>
      </trkpt>
      <trkpt lat="45.38614" lon="5.8041">
        <ele>1604</ele>
        <time>2022-07-27T16:28:05Z</time>
      </trkpt>
      <trkpt lat="45.38612" lon="5.80412">
        <ele>1604</ele>
        <time>2022-07-27T16:28:08Z</time>
      </trkpt>
      <trkpt lat="45.38613" lon="5.80415">
        <ele>1604</ele>
        <time>2022-07-27T16:28:17Z</time>
      </trkpt>
      <trkpt lat="45.38613" lon="5.80417">
        <ele>1604</ele>
        <time>2022-07-27T16:28:22Z</time>
      </trkpt>
      <trkpt lat="45.38616" lon="5.80418">
        <ele>1604</ele>
        <time>2022-07-27T16:28:26Z</time>
      </trkpt>
      <trkpt lat="45.38618" lon="5.80419">
        <ele>1604</ele>
        <time>2022-07-27T16:28:30Z</time>
      </trkpt>
      <trkpt lat="45.38621" lon="5.80416">
        <ele>1604</ele>
        <time>2022-07-27T16:28:36Z</time>
      </trkpt>
      <trkpt lat="45.38623" lon="5.80415">
        <ele>1604</ele>
        <time>2022-07-27T16:28:40Z</time>
      </trkpt>
      <trkpt lat="45.38625" lon="5.80416">
        <ele>1604</ele>
        <time>2022-07-27T16:28:43Z</time>
      </trkpt>
      <trkpt lat="45.38635" lon="5.80416">
        <ele>1604</ele>
        <time>2022-07-27T16:29:02Z</time>
      </trkpt>
      <trkpt lat="45.38643" lon="5.80422">
        <ele>1604</ele>
        <time>2022-07-27T16:29:22Z</time>
      </trkpt>
      <trkpt lat="45.38648" lon="5.80423">
        <ele>1616</ele>
        <time>2022-07-27T16:29:35Z</time>
      </trkpt>
      <trkpt lat="45.38648" lon="5.80419">
        <ele>1616</ele>
        <time>2022-07-27T16:29:37Z</time>
      </trkpt>
      <trkpt lat="45.3865" lon="5.80419">
        <ele>1616</ele>
        <time>2022-07-27T16:29:44Z</time>
      </trkpt>
      <trkpt lat="45.38653" lon="5.80418">
        <ele>1616</ele>
        <time>2022-07-27T16:29:48Z</time>
      </trkpt>
      <trkpt lat="45.38655" lon="5.8042">
        <ele>1616</ele>
        <time>2022-07-27T16:29:52Z</time>
      </trkpt>
      <trkpt lat="45.38657" lon="5.8042">
        <ele>1616</ele>
        <time>2022-07-27T16:29:56Z</time>
      </trkpt>
      <trkpt lat="45.38658" lon="5.80419">
        <ele>1616</ele>
        <time>2022-07-27T16:29:59Z</time>
      </trkpt>
      <trkpt lat="45.38661" lon="5.80419">
        <ele>1616</ele>
        <time>2022-07-27T16:30:02Z</time>
      </trkpt>
      <trkpt lat="45.38663" lon="5.80418">
        <ele>1620</ele>
        <time>2022-07-27T16:30:05Z</time>
      </trkpt>
      <trkpt lat="45.38665" lon="5.80419">
        <ele>1620</ele>
        <time>2022-07-27T16:30:09Z</time>
      </trkpt>
      <trkpt lat="45.38667" lon="5.80419">
        <ele>1620</ele>
        <time>2022-07-27T16:30:12Z</time>
      </trkpt>
      <trkpt lat="45.38671" lon="5.8042">
        <ele>1620</ele>
        <time>2022-07-27T16:30:19Z</time>
      </trkpt>
      <trkpt lat="45.38672" lon="5.80423">
        <ele>1620</ele>
        <time>2022-07-27T16:30:26Z</time>
      </trkpt>
      <trkpt lat="45.38673" lon="5.80424">
        <ele>1620</ele>
        <time>2022-07-27T16:30:31Z</time>
      </trkpt>
      <trkpt lat="45.38672" lon="5.80426">
        <ele>1620</ele>
        <time>2022-07-27T16:30:36Z</time>
      </trkpt>
      <trkpt lat="45.38672" lon="5.80429">
        <ele>1620</ele>
        <time>2022-07-27T16:30:41Z</time>
      </trkpt>
      <trkpt lat="45.38669" lon="5.80429">
        <ele>1620</ele>
        <time>2022-07-27T16:30:49Z</time>
      </trkpt>
      <trkpt lat="45.38667" lon="5.8043">
        <ele>1627</ele>
        <time>2022-07-27T16:30:55Z</time>
      </trkpt>
      <trkpt lat="45.38668" lon="5.80433">
        <ele>1627</ele>
        <time>2022-07-27T16:31:02Z</time>
      </trkpt>
      <trkpt lat="45.3867" lon="5.80434">
        <ele>1629</ele>
        <time>2022-07-27T16:31:05Z</time>
      </trkpt>
      <trkpt lat="45.38672" lon="5.80436">
        <ele>1629</ele>
        <time>2022-07-27T16:31:09Z</time>
      </trkpt>
      <trkpt lat="45.38673" lon="5.80437">
        <ele>1629</ele>
        <time>2022-07-27T16:31:12Z</time>
      </trkpt>
      <trkpt lat="45.38677" lon="5.80442">
        <ele>1632</ele>
        <time>2022-07-27T16:31:25Z</time>
      </trkpt>
      <trkpt lat="45.38679" lon="5.80443">
        <ele>1632</ele>
        <time>2022-07-27T16:31:30Z</time>
      </trkpt>
      <trkpt lat="45.38678" lon="5.80446">
        <ele>1632</ele>
        <time>2022-07-27T16:31:41Z</time>
      </trkpt>
      <trkpt lat="45.38678" lon="5.80449">
        <ele>1632</ele>
        <time>2022-07-27T16:31:49Z</time>
      </trkpt>
      <trkpt lat="45.38677" lon="5.80451">
        <ele>1632</ele>
        <time>2022-07-27T16:31:53Z</time>
      </trkpt>
      <trkpt lat="45.38676" lon="5.80454">
        <ele>1632</ele>
        <time>2022-07-27T16:31:58Z</time>
      </trkpt>
      <trkpt lat="45.38674" lon="5.80455">
        <ele>1632</ele>
        <time>2022-07-27T16:32:08Z</time>
      </trkpt>
      <trkpt lat="45.38676" lon="5.80457">
        <ele>1641</ele>
        <time>2022-07-27T16:33:05Z</time>
      </trkpt>
      <trkpt lat="45.38677" lon="5.80459">
        <ele>1641</ele>
        <time>2022-07-27T16:33:10Z</time>
      </trkpt>
      <trkpt lat="45.38679" lon="5.80461">
        <ele>1641</ele>
        <time>2022-07-27T16:33:12Z</time>
      </trkpt>
      <trkpt lat="45.3868" lon="5.80463">
        <ele>1641</ele>
        <time>2022-07-27T16:33:16Z</time>
      </trkpt>
      <trkpt lat="45.38682" lon="5.80466">
        <ele>1641</ele>
        <time>2022-07-27T16:33:19Z</time>
      </trkpt>
      <trkpt lat="45.38683" lon="5.80466">
        <ele>1641</ele>
        <time>2022-07-27T16:33:24Z</time>
      </trkpt>
      <trkpt lat="45.38685" lon="5.80468">
        <ele>1641</ele>
        <time>2022-07-27T16:33:30Z</time>
      </trkpt>
      <trkpt lat="45.38685" lon="5.80471">
        <ele>1641</ele>
        <time>2022-07-27T16:33:40Z</time>
      </trkpt>
      <trkpt lat="45.38686" lon="5.80473">
        <ele>1641</ele>
        <time>2022-07-27T16:33:46Z</time>
      </trkpt>
      <trkpt lat="45.38688" lon="5.80474">
        <ele>1641</ele>
        <time>2022-07-27T16:33:51Z</time>
      </trkpt>
      <trkpt lat="45.38689" lon="5.80477">
        <ele>1641</ele>
        <time>2022-07-27T16:33:54Z</time>
      </trkpt>
      <trkpt lat="45.38691" lon="5.80479">
        <ele>1641</ele>
        <time>2022-07-27T16:33:59Z</time>
      </trkpt>
      <trkpt lat="45.38693" lon="5.80481">
        <ele>1641</ele>
        <time>2022-07-27T16:34:03Z</time>
      </trkpt>
      <trkpt lat="45.38694" lon="5.80484">
        <ele>1641</ele>
        <time>2022-07-27T16:34:07Z</time>
      </trkpt>
      <trkpt lat="45.38694" lon="5.80486">
        <ele>1650</ele>
        <time>2022-07-27T16:34:25Z</time>
      </trkpt>
      <trkpt lat="45.38692" lon="5.80485">
        <ele>1650</ele>
        <time>2022-07-27T16:34:34Z</time>
      </trkpt>
      <trkpt lat="45.38689" lon="5.80487">
        <ele>1650</ele>
        <time>2022-07-27T16:34:42Z</time>
      </trkpt>
      <trkpt lat="45.38689" lon="5.8049">
        <ele>1650</ele>
        <time>2022-07-27T16:34:56Z</time>
      </trkpt>
      <trkpt lat="45.3869" lon="5.80492">
        <ele>1650</ele>
        <time>2022-07-27T16:35:00Z</time>
      </trkpt>
      <trkpt lat="45.38692" lon="5.80493">
        <ele>1650</ele>
        <time>2022-07-27T16:35:04Z</time>
      </trkpt>
      <trkpt lat="45.38694" lon="5.80495">
        <ele>1650</ele>
        <time>2022-07-27T16:35:09Z</time>
      </trkpt>
      <trkpt lat="45.38695" lon="5.80498">
        <ele>1650</ele>
        <time>2022-07-27T16:35:22Z</time>
      </trkpt>
      <trkpt lat="45.38696" lon="5.805">
        <ele>1650</ele>
        <time>2022-07-27T16:35:29Z</time>
      </trkpt>
      <trkpt lat="45.38698" lon="5.80501">
        <ele>1658</ele>
        <time>2022-07-27T16:35:35Z</time>
      </trkpt>
      <trkpt lat="45.387" lon="5.80503">
        <ele>1658</ele>
        <time>2022-07-27T16:35:38Z</time>
      </trkpt>
      <trkpt lat="45.38701" lon="5.80505">
        <ele>1658</ele>
        <time>2022-07-27T16:35:42Z</time>
      </trkpt>
      <trkpt lat="45.38703" lon="5.80508">
        <ele>1658</ele>
        <time>2022-07-27T16:35:48Z</time>
      </trkpt>
      <trkpt lat="45.38701" lon="5.80503">
        <ele>1658</ele>
        <time>2022-07-27T16:35:54Z</time>
      </trkpt>
      <trkpt lat="45.38701" lon="5.805">
        <ele>1658</ele>
        <time>2022-07-27T16:36:02Z</time>
      </trkpt>
      <trkpt lat="45.38699" lon="5.805">
        <ele>1658</ele>
        <time>2022-07-27T16:36:09Z</time>
      </trkpt>
      <trkpt lat="45.38697" lon="5.80499">
        <ele>1658</ele>
        <time>2022-07-27T16:36:12Z</time>
      </trkpt>
      <trkpt lat="45.38696" lon="5.80501">
        <ele>1658</ele>
        <time>2022-07-27T16:36:17Z</time>
      </trkpt>
      <trkpt lat="45.38697" lon="5.80504">
        <ele>1658</ele>
        <time>2022-07-27T16:36:26Z</time>
      </trkpt>
      <trkpt lat="45.38698" lon="5.80505">
        <ele>1658</ele>
        <time>2022-07-27T16:36:38Z</time>
      </trkpt>
      <trkpt lat="45.38698" lon="5.80508">
        <ele>1658</ele>
        <time>2022-07-27T16:36:53Z</time>
      </trkpt>
      <trkpt lat="45.38699" lon="5.80511">
        <ele>1658</ele>
        <time>2022-07-27T16:37:14Z</time>
      </trkpt>
      <trkpt lat="45.38697" lon="5.80512">
        <ele>1658</ele>
        <time>2022-07-27T16:37:24Z</time>
      </trkpt>
      <trkpt lat="45.38696" lon="5.80514">
        <ele>1658</ele>
        <time>2022-07-27T16:37:29Z</time>
      </trkpt>
      <trkpt lat="45.38694" lon="5.80514">
        <ele>1658</ele>
        <time>2022-07-27T16:37:33Z</time>
      </trkpt>
      <trkpt lat="45.38692" lon="5.80513">
        <ele>1658</ele>
        <time>2022-07-27T16:37:38Z</time>
      </trkpt>
      <trkpt lat="45.3869" lon="5.80513">
        <ele>1658</ele>
        <time>2022-07-27T16:37:43Z</time>
      </trkpt>
      <trkpt lat="45.38688" lon="5.80514">
        <ele>1658</ele>
        <time>2022-07-27T16:37:51Z</time>
      </trkpt>
      <trkpt lat="45.38687" lon="5.80516">
        <ele>1658</ele>
        <time>2022-07-27T16:37:58Z</time>
      </trkpt>
      <trkpt lat="45.38686" lon="5.80519">
        <ele>1658</ele>
        <time>2022-07-27T16:38:02Z</time>
      </trkpt>
      <trkpt lat="45.38684" lon="5.8052">
        <ele>1658</ele>
        <time>2022-07-27T16:38:08Z</time>
      </trkpt>
      <trkpt lat="45.38683" lon="5.80525">
        <ele>1658</ele>
        <time>2022-07-27T16:38:27Z</time>
      </trkpt>
      <trkpt lat="45.38681" lon="5.80525">
        <ele>1658</ele>
        <time>2022-07-27T16:38:33Z</time>
      </trkpt>
      <trkpt lat="45.38679" lon="5.80526">
        <ele>1658</ele>
        <time>2022-07-27T16:38:39Z</time>
      </trkpt>
      <trkpt lat="45.38679" lon="5.80529">
        <ele>1658</ele>
        <time>2022-07-27T16:38:59Z</time>
      </trkpt>
      <trkpt lat="45.3868" lon="5.80532">
        <ele>1658</ele>
        <time>2022-07-27T16:39:07Z</time>
      </trkpt>
      <trkpt lat="45.38679" lon="5.80534">
        <ele>1658</ele>
        <time>2022-07-27T16:39:11Z</time>
      </trkpt>
      <trkpt lat="45.38677" lon="5.80534">
        <ele>1658</ele>
        <time>2022-07-27T16:39:14Z</time>
      </trkpt>
      <trkpt lat="45.38675" lon="5.80534">
        <ele>1658</ele>
        <time>2022-07-27T16:39:19Z</time>
      </trkpt>
      <trkpt lat="45.38673" lon="5.80533">
        <ele>1679</ele>
        <time>2022-07-27T16:39:25Z</time>
      </trkpt>
      <trkpt lat="45.38673" lon="5.80531">
        <ele>1679</ele>
        <time>2022-07-27T16:39:39Z</time>
      </trkpt>
      <trkpt lat="45.38675" lon="5.80532">
        <ele>1679</ele>
        <time>2022-07-27T16:39:51Z</time>
      </trkpt>
      <trkpt lat="45.38676" lon="5.80535">
        <ele>1681</ele>
        <time>2022-07-27T16:40:05Z</time>
      </trkpt>
      <trkpt lat="45.38677" lon="5.80536">
        <ele>1681</ele>
        <time>2022-07-27T16:40:14Z</time>
      </trkpt>
      <trkpt lat="45.38676" lon="5.80539">
        <ele>1681</ele>
        <time>2022-07-27T16:40:48Z</time>
      </trkpt>
      <trkpt lat="45.38672" lon="5.80541">
        <ele>1681</ele>
        <time>2022-07-27T16:40:58Z</time>
      </trkpt>
      <trkpt lat="45.3867" lon="5.80543">
        <ele>1681</ele>
        <time>2022-07-27T16:41:16Z</time>
      </trkpt>
      <trkpt lat="45.38669" lon="5.80545">
        <ele>1681</ele>
        <time>2022-07-27T16:41:52Z</time>
      </trkpt>
      <trkpt lat="45.38667" lon="5.80543">
        <ele>1681</ele>
        <time>2022-07-27T16:42:02Z</time>
      </trkpt>
      <trkpt lat="45.38666" lon="5.80545">
        <ele>1681</ele>
        <time>2022-07-27T16:42:14Z</time>
      </trkpt>
      <trkpt lat="45.38664" lon="5.80546">
        <ele>1681</ele>
        <time>2022-07-27T16:42:24Z</time>
      </trkpt>
      <trkpt lat="45.38664" lon="5.80549">
        <ele>1681</ele>
        <time>2022-07-27T16:42:33Z</time>
      </trkpt>
      <trkpt lat="45.38667" lon="5.80551">
        <ele>1681</ele>
        <time>2022-07-27T16:42:38Z</time>
      </trkpt>
      <trkpt lat="45.38669" lon="5.80553">
        <ele>1696</ele>
        <time>2022-07-27T16:42:45Z</time>
      </trkpt>
      <trkpt lat="45.38667" lon="5.80552">
        <ele>1696</ele>
        <time>2022-07-27T16:42:53Z</time>
      </trkpt>
      <trkpt lat="45.38665" lon="5.80552">
        <ele>1696</ele>
        <time>2022-07-27T16:42:57Z</time>
      </trkpt>
      <trkpt lat="45.3866" lon="5.8055">
        <ele>1696</ele>
        <time>2022-07-27T16:43:30Z</time>
      </trkpt>
      <trkpt lat="45.38658" lon="5.80549">
        <ele>1696</ele>
        <time>2022-07-27T16:44:07Z</time>
      </trkpt>
      <trkpt lat="45.38655" lon="5.8055">
        <ele>1696</ele>
        <time>2022-07-27T16:44:26Z</time>
      </trkpt>
      <trkpt lat="45.38654" lon="5.80553">
        <ele>1696</ele>
        <time>2022-07-27T16:44:31Z</time>
      </trkpt>
      <trkpt lat="45.38654" lon="5.80555">
        <ele>1696</ele>
        <time>2022-07-27T16:44:51Z</time>
      </trkpt>
      <trkpt lat="45.38655" lon="5.80558">
        <ele>1696</ele>
        <time>2022-07-27T16:44:58Z</time>
      </trkpt>
      <trkpt lat="45.38657" lon="5.80557">
        <ele>1696</ele>
        <time>2022-07-27T16:45:04Z</time>
      </trkpt>
      <trkpt lat="45.38659" lon="5.80558">
        <ele>1710</ele>
        <time>2022-07-27T16:45:15Z</time>
      </trkpt>
      <trkpt lat="45.38661" lon="5.8056">
        <ele>1710</ele>
        <time>2022-07-27T16:45:18Z</time>
      </trkpt>
      <trkpt lat="45.38663" lon="5.80561">
        <ele>1710</ele>
        <time>2022-07-27T16:45:21Z</time>
      </trkpt>
      <trkpt lat="45.38666" lon="5.80562">
        <ele>1710</ele>
        <time>2022-07-27T16:45:28Z</time>
      </trkpt>
      <trkpt lat="45.38667" lon="5.80564">
        <ele>1710</ele>
        <time>2022-07-27T16:45:34Z</time>
      </trkpt>
      <trkpt lat="45.38667" lon="5.80567">
        <ele>1710</ele>
        <time>2022-07-27T16:47:10Z</time>
      </trkpt>
      <trkpt lat="45.38668" lon="5.80569">
        <ele>1712</ele>
        <time>2022-07-27T16:47:15Z</time>
      </trkpt>
      <trkpt lat="45.38667" lon="5.80572">
        <ele>1712</ele>
        <time>2022-07-27T16:47:38Z</time>
      </trkpt>
      <trkpt lat="45.38666" lon="5.80574">
        <ele>1712</ele>
        <time>2022-07-27T16:47:44Z</time>
      </trkpt>
      <trkpt lat="45.38664" lon="5.80574">
        <ele>1712</ele>
        <time>2022-07-27T16:48:00Z</time>
      </trkpt>
      <trkpt lat="45.38663" lon="5.80573">
        <ele>1716</ele>
        <time>2022-07-27T16:48:05Z</time>
      </trkpt>
      <trkpt lat="45.38664" lon="5.80575">
        <ele>1716</ele>
        <time>2022-07-27T16:48:17Z</time>
      </trkpt>
      <trkpt lat="45.38665" lon="5.80578">
        <ele>1718</ele>
        <time>2022-07-27T16:48:25Z</time>
      </trkpt>
      <trkpt lat="45.38663" lon="5.80579">
        <ele>1718</ele>
        <time>2022-07-27T16:48:40Z</time>
      </trkpt>
      <trkpt lat="45.38661" lon="5.80581">
        <ele>1720</ele>
        <time>2022-07-27T16:48:45Z</time>
      </trkpt>
      <trkpt lat="45.38659" lon="5.80583">
        <ele>1720</ele>
        <time>2022-07-27T16:48:50Z</time>
      </trkpt>
      <trkpt lat="45.38658" lon="5.80585">
        <ele>1720</ele>
        <time>2022-07-27T16:48:57Z</time>
      </trkpt>
      <trkpt lat="45.38656" lon="5.80586">
        <ele>1720</ele>
        <time>2022-07-27T16:49:00Z</time>
      </trkpt>
      <trkpt lat="45.38653" lon="5.80588">
        <ele>1720</ele>
        <time>2022-07-27T16:49:08Z</time>
      </trkpt>
      <trkpt lat="45.38651" lon="5.80589">
        <ele>1720</ele>
        <time>2022-07-27T16:49:26Z</time>
      </trkpt>
      <trkpt lat="45.3865" lon="5.80591">
        <ele>1720</ele>
        <time>2022-07-27T16:49:32Z</time>
      </trkpt>
      <trkpt lat="45.38651" lon="5.80593">
        <ele>1720</ele>
        <time>2022-07-27T16:49:40Z</time>
      </trkpt>
      <trkpt lat="45.38649" lon="5.80596">
        <ele>1720</ele>
        <time>2022-07-27T16:49:53Z</time>
      </trkpt>
      <trkpt lat="45.38647" lon="5.80596">
        <ele>1720</ele>
        <time>2022-07-27T16:49:57Z</time>
      </trkpt>
      <trkpt lat="45.38645" lon="5.80595">
        <ele>1720</ele>
        <time>2022-07-27T16:50:02Z</time>
      </trkpt>
      <trkpt lat="45.38643" lon="5.80596">
        <ele>1720</ele>
        <time>2022-07-27T16:50:10Z</time>
      </trkpt>
      <trkpt lat="45.38641" lon="5.80597">
        <ele>1720</ele>
        <time>2022-07-27T16:50:23Z</time>
      </trkpt>
      <trkpt lat="45.3864" lon="5.80599">
        <ele>1720</ele>
        <time>2022-07-27T16:50:32Z</time>
      </trkpt>
      <trkpt lat="45.3864" lon="5.80602">
        <ele>1720</ele>
        <time>2022-07-27T16:50:42Z</time>
      </trkpt>
      <trkpt lat="45.38642" lon="5.80603">
        <ele>1720</ele>
        <time>2022-07-27T16:50:47Z</time>
      </trkpt>
      <trkpt lat="45.38643" lon="5.80604">
        <ele>1720</ele>
        <time>2022-07-27T16:50:50Z</time>
      </trkpt>
      <trkpt lat="45.38645" lon="5.80605">
        <ele>1720</ele>
        <time>2022-07-27T16:50:53Z</time>
      </trkpt>
      <trkpt lat="45.38647" lon="5.80606">
        <ele>1736</ele>
        <time>2022-07-27T16:50:55Z</time>
      </trkpt>
      <trkpt lat="45.38649" lon="5.80607">
        <ele>1736</ele>
        <time>2022-07-27T16:50:58Z</time>
      </trkpt>
      <trkpt lat="45.3865" lon="5.80609">
        <ele>1736</ele>
        <time>2022-07-27T16:51:01Z</time>
      </trkpt>
      <trkpt lat="45.38652" lon="5.80611">
        <ele>1736</ele>
        <time>2022-07-27T16:51:04Z</time>
      </trkpt>
      <trkpt lat="45.38653" lon="5.80612">
        <ele>1736</ele>
        <time>2022-07-27T16:51:16Z</time>
      </trkpt>
      <trkpt lat="45.38655" lon="5.80614">
        <ele>1736</ele>
        <time>2022-07-27T16:51:19Z</time>
      </trkpt>
      <trkpt lat="45.38657" lon="5.80615">
        <ele>1736</ele>
        <time>2022-07-27T16:51:22Z</time>
      </trkpt>
      <trkpt lat="45.38659" lon="5.80616">
        <ele>1736</ele>
        <time>2022-07-27T16:51:26Z</time>
      </trkpt>
      <trkpt lat="45.3866" lon="5.80618">
        <ele>1736</ele>
        <time>2022-07-27T16:51:29Z</time>
      </trkpt>
      <trkpt lat="45.38662" lon="5.80619">
        <ele>1736</ele>
        <time>2022-07-27T16:51:32Z</time>
      </trkpt>
      <trkpt lat="45.38664" lon="5.80621">
        <ele>1736</ele>
        <time>2022-07-27T16:51:37Z</time>
      </trkpt>
      <trkpt lat="45.38666" lon="5.80622">
        <ele>1736</ele>
        <time>2022-07-27T16:51:41Z</time>
      </trkpt>
      <trkpt lat="45.38668" lon="5.80624">
        <ele>1741</ele>
        <time>2022-07-27T16:51:45Z</time>
      </trkpt>
      <trkpt lat="45.3867" lon="5.80624">
        <ele>1741</ele>
        <time>2022-07-27T16:51:49Z</time>
      </trkpt>
      <trkpt lat="45.38672" lon="5.80624">
        <ele>1741</ele>
        <time>2022-07-27T16:51:54Z</time>
      </trkpt>
      <trkpt lat="45.38673" lon="5.80625">
        <ele>1741</ele>
        <time>2022-07-27T16:51:57Z</time>
      </trkpt>
      <trkpt lat="45.38675" lon="5.80626">
        <ele>1741</ele>
        <time>2022-07-27T16:52:02Z</time>
      </trkpt>
      <trkpt lat="45.38677" lon="5.80627">
        <ele>1741</ele>
        <time>2022-07-27T16:52:07Z</time>
      </trkpt>
      <trkpt lat="45.38679" lon="5.80626">
        <ele>1741</ele>
        <time>2022-07-27T16:52:10Z</time>
      </trkpt>
      <trkpt lat="45.38681" lon="5.80627">
        <ele>1741</ele>
        <time>2022-07-27T16:52:24Z</time>
      </trkpt>
      <trkpt lat="45.38683" lon="5.80628">
        <ele>1741</ele>
        <time>2022-07-27T16:52:29Z</time>
      </trkpt>
      <trkpt lat="45.38684" lon="5.80629">
        <ele>1741</ele>
        <time>2022-07-27T16:52:33Z</time>
      </trkpt>
      <trkpt lat="45.38686" lon="5.8063">
        <ele>1741</ele>
        <time>2022-07-27T16:52:38Z</time>
      </trkpt>
      <trkpt lat="45.38688" lon="5.8063">
        <ele>1741</ele>
        <time>2022-07-27T16:52:46Z</time>
      </trkpt>
      <trkpt lat="45.38691" lon="5.8063">
        <ele>1741</ele>
        <time>2022-07-27T16:52:51Z</time>
      </trkpt>
      <trkpt lat="45.38693" lon="5.80631">
        <ele>1741</ele>
        <time>2022-07-27T16:52:54Z</time>
      </trkpt>
      <trkpt lat="45.38695" lon="5.80632">
        <ele>1741</ele>
        <time>2022-07-27T16:52:59Z</time>
      </trkpt>
      <trkpt lat="45.38697" lon="5.80632">
        <ele>1751</ele>
        <time>2022-07-27T16:53:05Z</time>
      </trkpt>
      <trkpt lat="45.38699" lon="5.80631">
        <ele>1751</ele>
        <time>2022-07-27T16:53:09Z</time>
      </trkpt>
      <trkpt lat="45.38701" lon="5.80631">
        <ele>1751</ele>
        <time>2022-07-27T16:53:31Z</time>
      </trkpt>
      <trkpt lat="45.38702" lon="5.80629">
        <ele>1751</ele>
        <time>2022-07-27T16:53:39Z</time>
      </trkpt>
      <trkpt lat="45.38704" lon="5.80628">
        <ele>1751</ele>
        <time>2022-07-27T16:53:43Z</time>
      </trkpt>
      <trkpt lat="45.38706" lon="5.80627">
        <ele>1754</ele>
        <time>2022-07-27T16:53:45Z</time>
      </trkpt>
      <trkpt lat="45.38709" lon="5.80627">
        <ele>1754</ele>
        <time>2022-07-27T16:53:48Z</time>
      </trkpt>
      <trkpt lat="45.3871" lon="5.80626">
        <ele>1754</ele>
        <time>2022-07-27T16:53:51Z</time>
      </trkpt>
      <trkpt lat="45.38712" lon="5.80626">
        <ele>1754</ele>
        <time>2022-07-27T16:53:54Z</time>
      </trkpt>
      <trkpt lat="45.38714" lon="5.80627">
        <ele>1754</ele>
        <time>2022-07-27T16:53:58Z</time>
      </trkpt>
      <trkpt lat="45.38717" lon="5.80626">
        <ele>1757</ele>
        <time>2022-07-27T16:54:05Z</time>
      </trkpt>
      <trkpt lat="45.38719" lon="5.80627">
        <ele>1757</ele>
        <time>2022-07-27T16:54:10Z</time>
      </trkpt>
      <trkpt lat="45.38721" lon="5.80626">
        <ele>1757</ele>
        <time>2022-07-27T16:54:13Z</time>
      </trkpt>
      <trkpt lat="45.38723" lon="5.80625">
        <ele>1757</ele>
        <time>2022-07-27T16:54:17Z</time>
      </trkpt>
      <trkpt lat="45.38724" lon="5.80624">
        <ele>1757</ele>
        <time>2022-07-27T16:54:19Z</time>
      </trkpt>
      <trkpt lat="45.38726" lon="5.80623">
        <ele>1757</ele>
        <time>2022-07-27T16:54:22Z</time>
      </trkpt>
      <trkpt lat="45.38728" lon="5.80622">
        <ele>1759</ele>
        <time>2022-07-27T16:54:25Z</time>
      </trkpt>
      <trkpt lat="45.3873" lon="5.80621">
        <ele>1759</ele>
        <time>2022-07-27T16:54:28Z</time>
      </trkpt>
      <trkpt lat="45.38732" lon="5.80619">
        <ele>1759</ele>
        <time>2022-07-27T16:54:31Z</time>
      </trkpt>
      <trkpt lat="45.38734" lon="5.80618">
        <ele>1760</ele>
        <time>2022-07-27T16:54:35Z</time>
      </trkpt>
      <trkpt lat="45.38736" lon="5.80616">
        <ele>1760</ele>
        <time>2022-07-27T16:54:37Z</time>
      </trkpt>
      <trkpt lat="45.38738" lon="5.80614">
        <ele>1760</ele>
        <time>2022-07-27T16:54:40Z</time>
      </trkpt>
      <trkpt lat="45.3874" lon="5.80613">
        <ele>1760</ele>
        <time>2022-07-27T16:54:44Z</time>
      </trkpt>
      <trkpt lat="45.38741" lon="5.8061">
        <ele>1760</ele>
        <time>2022-07-27T16:54:47Z</time>
      </trkpt>
      <trkpt lat="45.38741" lon="5.80607">
        <ele>1760</ele>
        <time>2022-07-27T16:54:49Z</time>
      </trkpt>
      <trkpt lat="45.38742" lon="5.80605">
        <ele>1760</ele>
        <time>2022-07-27T16:54:54Z</time>
      </trkpt>
      <trkpt lat="45.38743" lon="5.80602">
        <ele>1760</ele>
        <time>2022-07-27T16:54:57Z</time>
      </trkpt>
      <trkpt lat="45.38744" lon="5.80599">
        <ele>1760</ele>
        <time>2022-07-27T16:55:01Z</time>
      </trkpt>
      <trkpt lat="45.38745" lon="5.80596">
        <ele>1760</ele>
        <time>2022-07-27T16:55:04Z</time>
      </trkpt>
      <trkpt lat="45.38746" lon="5.80593">
        <ele>1760</ele>
        <time>2022-07-27T16:55:06Z</time>
      </trkpt>
      <trkpt lat="45.38747" lon="5.8059">
        <ele>1760</ele>
        <time>2022-07-27T16:55:08Z</time>
      </trkpt>
      <trkpt lat="45.38748" lon="5.80588">
        <ele>1760</ele>
        <time>2022-07-27T16:55:12Z</time>
      </trkpt>
      <trkpt lat="45.3875" lon="5.80585">
        <ele>1760</ele>
        <time>2022-07-27T16:55:14Z</time>
      </trkpt>
      <trkpt lat="45.38752" lon="5.80584">
        <ele>1760</ele>
        <time>2022-07-27T16:55:19Z</time>
      </trkpt>
      <trkpt lat="45.38753" lon="5.80581">
        <ele>1760</ele>
        <time>2022-07-27T16:55:23Z</time>
      </trkpt>
      <trkpt lat="45.38753" lon="5.80578">
        <ele>1760</ele>
        <time>2022-07-27T16:55:27Z</time>
      </trkpt>
      <trkpt lat="45.38754" lon="5.80575">
        <ele>1760</ele>
        <time>2022-07-27T16:55:30Z</time>
      </trkpt>
      <trkpt lat="45.38755" lon="5.80572">
        <ele>1760</ele>
        <time>2022-07-27T16:55:32Z</time>
      </trkpt>
      <trkpt lat="45.38755" lon="5.80569">
        <ele>1760</ele>
        <time>2022-07-27T16:55:36Z</time>
      </trkpt>
      <trkpt lat="45.38756" lon="5.80566">
        <ele>1760</ele>
        <time>2022-07-27T16:55:38Z</time>
      </trkpt>
      <trkpt lat="45.38756" lon="5.80564">
        <ele>1760</ele>
        <time>2022-07-27T16:55:39Z</time>
      </trkpt>
      <trkpt lat="45.38758" lon="5.80562">
        <ele>1760</ele>
        <time>2022-07-27T16:55:42Z</time>
      </trkpt>
      <trkpt lat="45.38759" lon="5.8056">
        <ele>1760</ele>
        <time>2022-07-27T16:55:44Z</time>
      </trkpt>
      <trkpt lat="45.38761" lon="5.80559">
        <ele>1760</ele>
        <time>2022-07-27T16:55:46Z</time>
      </trkpt>
      <trkpt lat="45.38763" lon="5.80558">
        <ele>1760</ele>
        <time>2022-07-27T16:55:49Z</time>
      </trkpt>
      <trkpt lat="45.38766" lon="5.80557">
        <ele>1760</ele>
        <time>2022-07-27T16:55:53Z</time>
      </trkpt>
      <trkpt lat="45.38767" lon="5.80556">
        <ele>1760</ele>
        <time>2022-07-27T16:56:03Z</time>
      </trkpt>
      <trkpt lat="45.3877" lon="5.80556">
        <ele>1760</ele>
        <time>2022-07-27T16:56:08Z</time>
      </trkpt>
      <trkpt lat="45.38771" lon="5.80554">
        <ele>1760</ele>
        <time>2022-07-27T16:56:21Z</time>
      </trkpt>
      <trkpt lat="45.38773" lon="5.80552">
        <ele>1761</ele>
        <time>2022-07-27T16:56:25Z</time>
      </trkpt>
      <trkpt lat="45.38775" lon="5.8055">
        <ele>1761</ele>
        <time>2022-07-27T16:56:29Z</time>
      </trkpt>
      <trkpt lat="45.38776" lon="5.80547">
        <ele>1761</ele>
        <time>2022-07-27T16:56:32Z</time>
      </trkpt>
      <trkpt lat="45.38778" lon="5.80545">
        <ele>1761</ele>
        <time>2022-07-27T16:56:36Z</time>
      </trkpt>
      <trkpt lat="45.38779" lon="5.80543">
        <ele>1761</ele>
        <time>2022-07-27T16:56:39Z</time>
      </trkpt>
      <trkpt lat="45.3878" lon="5.8054">
        <ele>1761</ele>
        <time>2022-07-27T16:56:42Z</time>
      </trkpt>
      <trkpt lat="45.38781" lon="5.80538">
        <ele>1761</ele>
        <time>2022-07-27T16:56:47Z</time>
      </trkpt>
      <trkpt lat="45.38783" lon="5.80536">
        <ele>1761</ele>
        <time>2022-07-27T16:56:50Z</time>
      </trkpt>
      <trkpt lat="45.38784" lon="5.80534">
        <ele>1766</ele>
        <time>2022-07-27T16:56:55Z</time>
      </trkpt>
      <trkpt lat="45.38784" lon="5.80531">
        <ele>1766</ele>
        <time>2022-07-27T16:56:59Z</time>
      </trkpt>
      <trkpt lat="45.38784" lon="5.80528">
        <ele>1766</ele>
        <time>2022-07-27T16:57:03Z</time>
      </trkpt>
      <trkpt lat="45.38785" lon="5.80526">
        <ele>1766</ele>
        <time>2022-07-27T16:57:06Z</time>
      </trkpt>
      <trkpt lat="45.38787" lon="5.80525">
        <ele>1766</ele>
        <time>2022-07-27T16:57:09Z</time>
      </trkpt>
      <trkpt lat="45.38789" lon="5.80524">
        <ele>1766</ele>
        <time>2022-07-27T16:57:20Z</time>
      </trkpt>
      <trkpt lat="45.3879" lon="5.80521">
        <ele>1766</ele>
        <time>2022-07-27T16:57:23Z</time>
      </trkpt>
      <trkpt lat="45.38792" lon="5.8052">
        <ele>1766</ele>
        <time>2022-07-27T16:57:27Z</time>
      </trkpt>
      <trkpt lat="45.38794" lon="5.8052">
        <ele>1766</ele>
        <time>2022-07-27T17:04:39Z</time>
      </trkpt>
      <trkpt lat="45.38792" lon="5.80522">
        <ele>1766</ele>
        <time>2022-07-27T17:10:30Z</time>
      </trkpt>
      <trkpt lat="45.3879" lon="5.80522">
        <ele>1766</ele>
        <time>2022-07-27T17:10:33Z</time>
      </trkpt>
      <trkpt lat="45.38789" lon="5.80524">
        <ele>1773</ele>
        <time>2022-07-27T17:10:35Z</time>
      </trkpt>
      <trkpt lat="45.38787" lon="5.80526">
        <ele>1773</ele>
        <time>2022-07-27T17:10:39Z</time>
      </trkpt>
      <trkpt lat="45.38785" lon="5.80527">
        <ele>1773</ele>
        <time>2022-07-27T17:10:42Z</time>
      </trkpt>
      <trkpt lat="45.38784" lon="5.80529">
        <ele>1773</ele>
        <time>2022-07-27T17:10:45Z</time>
      </trkpt>
      <trkpt lat="45.38785" lon="5.80532">
        <ele>1773</ele>
        <time>2022-07-27T17:10:49Z</time>
      </trkpt>
      <trkpt lat="45.38785" lon="5.80534">
        <ele>1773</ele>
        <time>2022-07-27T17:10:52Z</time>
      </trkpt>
      <trkpt lat="45.38783" lon="5.80536">
        <ele>1773</ele>
        <time>2022-07-27T17:10:56Z</time>
      </trkpt>
      <trkpt lat="45.38782" lon="5.80538">
        <ele>1773</ele>
        <time>2022-07-27T17:10:59Z</time>
      </trkpt>
      <trkpt lat="45.3878" lon="5.8054">
        <ele>1773</ele>
        <time>2022-07-27T17:11:02Z</time>
      </trkpt>
      <trkpt lat="45.38779" lon="5.80542">
        <ele>1773</ele>
        <time>2022-07-27T17:11:06Z</time>
      </trkpt>
      <trkpt lat="45.38778" lon="5.80544">
        <ele>1773</ele>
        <time>2022-07-27T17:11:09Z</time>
      </trkpt>
      <trkpt lat="45.38776" lon="5.80547">
        <ele>1773</ele>
        <time>2022-07-27T17:11:12Z</time>
      </trkpt>
      <trkpt lat="45.38775" lon="5.80549">
        <ele>1773</ele>
        <time>2022-07-27T17:11:14Z</time>
      </trkpt>
      <trkpt lat="45.38774" lon="5.80551">
        <ele>1773</ele>
        <time>2022-07-27T17:11:17Z</time>
      </trkpt>
      <trkpt lat="45.38772" lon="5.80553">
        <ele>1773</ele>
        <time>2022-07-27T17:11:19Z</time>
      </trkpt>
      <trkpt lat="45.38771" lon="5.80555">
        <ele>1773</ele>
        <time>2022-07-27T17:11:21Z</time>
      </trkpt>
      <trkpt lat="45.38769" lon="5.80557">
        <ele>1773</ele>
        <time>2022-07-27T17:11:23Z</time>
      </trkpt>
      <trkpt lat="45.38767" lon="5.80557">
        <ele>1773</ele>
        <time>2022-07-27T17:11:26Z</time>
      </trkpt>
      <trkpt lat="45.38765" lon="5.80558">
        <ele>1773</ele>
        <time>2022-07-27T17:11:28Z</time>
      </trkpt>
      <trkpt lat="45.38763" lon="5.80559">
        <ele>1773</ele>
        <time>2022-07-27T17:11:30Z</time>
      </trkpt>
      <trkpt lat="45.38761" lon="5.8056">
        <ele>1773</ele>
        <time>2022-07-27T17:11:32Z</time>
      </trkpt>
      <trkpt lat="45.38759" lon="5.80561">
        <ele>1773</ele>
        <time>2022-07-27T17:11:34Z</time>
      </trkpt>
      <trkpt lat="45.38757" lon="5.80563">
        <ele>1773</ele>
        <time>2022-07-27T17:11:36Z</time>
      </trkpt>
      <trkpt lat="45.38756" lon="5.80565">
        <ele>1773</ele>
        <time>2022-07-27T17:11:38Z</time>
      </trkpt>
      <trkpt lat="45.38755" lon="5.80567">
        <ele>1773</ele>
        <time>2022-07-27T17:11:40Z</time>
      </trkpt>
      <trkpt lat="45.38755" lon="5.8057">
        <ele>1773</ele>
        <time>2022-07-27T17:11:42Z</time>
      </trkpt>
      <trkpt lat="45.38754" lon="5.80573">
        <ele>1773</ele>
        <time>2022-07-27T17:11:44Z</time>
      </trkpt>
      <trkpt lat="45.38754" lon="5.80576">
        <ele>1773</ele>
        <time>2022-07-27T17:11:46Z</time>
      </trkpt>
      <trkpt lat="45.38753" lon="5.80579">
        <ele>1773</ele>
        <time>2022-07-27T17:11:48Z</time>
      </trkpt>
      <trkpt lat="45.38753" lon="5.80582">
        <ele>1773</ele>
        <time>2022-07-27T17:11:50Z</time>
      </trkpt>
      <trkpt lat="45.38752" lon="5.80584">
        <ele>1773</ele>
        <time>2022-07-27T17:11:52Z</time>
      </trkpt>
      <trkpt lat="45.3875" lon="5.80586">
        <ele>1763</ele>
        <time>2022-07-27T17:11:55Z</time>
      </trkpt>
      <trkpt lat="45.38748" lon="5.80588">
        <ele>1763</ele>
        <time>2022-07-27T17:11:57Z</time>
      </trkpt>
      <trkpt lat="45.38748" lon="5.8059">
        <ele>1763</ele>
        <time>2022-07-27T17:11:59Z</time>
      </trkpt>
      <trkpt lat="45.38746" lon="5.80593">
        <ele>1763</ele>
        <time>2022-07-27T17:12:01Z</time>
      </trkpt>
      <trkpt lat="45.38745" lon="5.80595">
        <ele>1763</ele>
        <time>2022-07-27T17:12:03Z</time>
      </trkpt>
      <trkpt lat="45.38744" lon="5.80597">
        <ele>1763</ele>
        <time>2022-07-27T17:12:05Z</time>
      </trkpt>
      <trkpt lat="45.38744" lon="5.806">
        <ele>1763</ele>
        <time>2022-07-27T17:12:07Z</time>
      </trkpt>
      <trkpt lat="45.38744" lon="5.80602">
        <ele>1763</ele>
        <time>2022-07-27T17:12:09Z</time>
      </trkpt>
      <trkpt lat="45.38744" lon="5.80605">
        <ele>1763</ele>
        <time>2022-07-27T17:12:12Z</time>
      </trkpt>
      <trkpt lat="45.38738" lon="5.80617">
        <ele>1763</ele>
        <time>2022-07-27T17:12:24Z</time>
      </trkpt>
      <trkpt lat="45.38729" lon="5.80621">
        <ele>1763</ele>
        <time>2022-07-27T17:12:30Z</time>
      </trkpt>
      <trkpt lat="45.38727" lon="5.80622">
        <ele>1763</ele>
        <time>2022-07-27T17:12:32Z</time>
      </trkpt>
      <trkpt lat="45.38725" lon="5.80623">
        <ele>1763</ele>
        <time>2022-07-27T17:12:36Z</time>
      </trkpt>
      <trkpt lat="45.38722" lon="5.80624">
        <ele>1763</ele>
        <time>2022-07-27T17:12:38Z</time>
      </trkpt>
      <trkpt lat="45.38721" lon="5.80626">
        <ele>1763</ele>
        <time>2022-07-27T17:12:41Z</time>
      </trkpt>
      <trkpt lat="45.38718" lon="5.80627">
        <ele>1763</ele>
        <time>2022-07-27T17:12:44Z</time>
      </trkpt>
      <trkpt lat="45.38716" lon="5.80628">
        <ele>1763</ele>
        <time>2022-07-27T17:12:46Z</time>
      </trkpt>
      <trkpt lat="45.38714" lon="5.80627">
        <ele>1763</ele>
        <time>2022-07-27T17:12:49Z</time>
      </trkpt>
      <trkpt lat="45.38712" lon="5.80628">
        <ele>1763</ele>
        <time>2022-07-27T17:12:53Z</time>
      </trkpt>
      <trkpt lat="45.3871" lon="5.80628">
        <ele>1763</ele>
        <time>2022-07-27T17:12:58Z</time>
      </trkpt>
      <trkpt lat="45.38709" lon="5.80628">
        <ele>1763</ele>
        <time>2022-07-27T17:13:01Z</time>
      </trkpt>
      <trkpt lat="45.38707" lon="5.80628">
        <ele>1762</ele>
        <time>2022-07-27T17:13:05Z</time>
      </trkpt>
      <trkpt lat="45.38705" lon="5.80628">
        <ele>1762</ele>
        <time>2022-07-27T17:13:16Z</time>
      </trkpt>
      <trkpt lat="45.38702" lon="5.80628">
        <ele>1762</ele>
        <time>2022-07-27T17:13:19Z</time>
      </trkpt>
      <trkpt lat="45.387" lon="5.80628">
        <ele>1762</ele>
        <time>2022-07-27T17:13:22Z</time>
      </trkpt>
      <trkpt lat="45.38699" lon="5.8063">
        <ele>1761</ele>
        <time>2022-07-27T17:13:25Z</time>
      </trkpt>
      <trkpt lat="45.38697" lon="5.80631">
        <ele>1761</ele>
        <time>2022-07-27T17:13:27Z</time>
      </trkpt>
      <trkpt lat="45.38696" lon="5.80634">
        <ele>1761</ele>
        <time>2022-07-27T17:13:34Z</time>
      </trkpt>
      <trkpt lat="45.38695" lon="5.80632">
        <ele>1761</ele>
        <time>2022-07-27T17:13:54Z</time>
      </trkpt>
      <trkpt lat="45.38693" lon="5.80631">
        <ele>1761</ele>
        <time>2022-07-27T17:14:04Z</time>
      </trkpt>
      <trkpt lat="45.38691" lon="5.8063">
        <ele>1761</ele>
        <time>2022-07-27T17:14:07Z</time>
      </trkpt>
      <trkpt lat="45.38689" lon="5.80629">
        <ele>1761</ele>
        <time>2022-07-27T17:14:10Z</time>
      </trkpt>
      <trkpt lat="45.38687" lon="5.8063">
        <ele>1757</ele>
        <time>2022-07-27T17:14:25Z</time>
      </trkpt>
      <trkpt lat="45.38685" lon="5.80629">
        <ele>1757</ele>
        <time>2022-07-27T17:14:43Z</time>
      </trkpt>
      <trkpt lat="45.38683" lon="5.80629">
        <ele>1757</ele>
        <time>2022-07-27T17:14:46Z</time>
      </trkpt>
      <trkpt lat="45.38681" lon="5.80627">
        <ele>1757</ele>
        <time>2022-07-27T17:14:49Z</time>
      </trkpt>
      <trkpt lat="45.38679" lon="5.80626">
        <ele>1757</ele>
        <time>2022-07-27T17:14:52Z</time>
      </trkpt>
      <trkpt lat="45.38677" lon="5.80624">
        <ele>1754</ele>
        <time>2022-07-27T17:14:55Z</time>
      </trkpt>
      <trkpt lat="45.38675" lon="5.80625">
        <ele>1754</ele>
        <time>2022-07-27T17:14:58Z</time>
      </trkpt>
      <trkpt lat="45.38673" lon="5.80625">
        <ele>1754</ele>
        <time>2022-07-27T17:15:01Z</time>
      </trkpt>
      <trkpt lat="45.38671" lon="5.80624">
        <ele>1754</ele>
        <time>2022-07-27T17:15:04Z</time>
      </trkpt>
      <trkpt lat="45.38669" lon="5.80623">
        <ele>1754</ele>
        <time>2022-07-27T17:15:07Z</time>
      </trkpt>
      <trkpt lat="45.38666" lon="5.80623">
        <ele>1754</ele>
        <time>2022-07-27T17:15:11Z</time>
      </trkpt>
      <trkpt lat="45.38664" lon="5.80623">
        <ele>1754</ele>
        <time>2022-07-27T17:15:13Z</time>
      </trkpt>
      <trkpt lat="45.38662" lon="5.80621">
        <ele>1754</ele>
        <time>2022-07-27T17:15:16Z</time>
      </trkpt>
      <trkpt lat="45.3866" lon="5.80619">
        <ele>1754</ele>
        <time>2022-07-27T17:15:18Z</time>
      </trkpt>
      <trkpt lat="45.38659" lon="5.80617">
        <ele>1754</ele>
        <time>2022-07-27T17:15:20Z</time>
      </trkpt>
      <trkpt lat="45.38657" lon="5.80616">
        <ele>1754</ele>
        <time>2022-07-27T17:15:22Z</time>
      </trkpt>
      <trkpt lat="45.38655" lon="5.80615">
        <ele>1754</ele>
        <time>2022-07-27T17:15:24Z</time>
      </trkpt>
      <trkpt lat="45.38654" lon="5.80613">
        <ele>1754</ele>
        <time>2022-07-27T17:15:27Z</time>
      </trkpt>
      <trkpt lat="45.38656" lon="5.80614">
        <ele>1754</ele>
        <time>2022-07-27T17:15:44Z</time>
      </trkpt>
      <trkpt lat="45.38658" lon="5.80616">
        <ele>1754</ele>
        <time>2022-07-27T17:15:48Z</time>
      </trkpt>
      <trkpt lat="45.3866" lon="5.80617">
        <ele>1754</ele>
        <time>2022-07-27T17:15:51Z</time>
      </trkpt>
      <trkpt lat="45.38662" lon="5.8062">
        <ele>1754</ele>
        <time>2022-07-27T17:15:54Z</time>
      </trkpt>
      <trkpt lat="45.38664" lon="5.80622">
        <ele>1754</ele>
        <time>2022-07-27T17:15:56Z</time>
      </trkpt>
      <trkpt lat="45.38665" lon="5.80624">
        <ele>1754</ele>
        <time>2022-07-27T17:15:59Z</time>
      </trkpt>
      <trkpt lat="45.38667" lon="5.80626">
        <ele>1754</ele>
        <time>2022-07-27T17:16:02Z</time>
      </trkpt>
      <trkpt lat="45.38669" lon="5.80628">
        <ele>1754</ele>
        <time>2022-07-27T17:16:06Z</time>
      </trkpt>
      <trkpt lat="45.3867" lon="5.8063">
        <ele>1754</ele>
        <time>2022-07-27T17:16:08Z</time>
      </trkpt>
      <trkpt lat="45.38672" lon="5.80634">
        <ele>1754</ele>
        <time>2022-07-27T17:16:11Z</time>
      </trkpt>
      <trkpt lat="45.38673" lon="5.80636">
        <ele>1754</ele>
        <time>2022-07-27T17:16:14Z</time>
      </trkpt>
      <trkpt lat="45.38675" lon="5.80638">
        <ele>1754</ele>
        <time>2022-07-27T17:16:17Z</time>
      </trkpt>
      <trkpt lat="45.38676" lon="5.8064">
        <ele>1754</ele>
        <time>2022-07-27T17:16:19Z</time>
      </trkpt>
      <trkpt lat="45.38677" lon="5.80642">
        <ele>1754</ele>
        <time>2022-07-27T17:16:21Z</time>
      </trkpt>
      <trkpt lat="45.38679" lon="5.80644">
        <ele>1754</ele>
        <time>2022-07-27T17:16:24Z</time>
      </trkpt>
      <trkpt lat="45.3868" lon="5.80647">
        <ele>1754</ele>
        <time>2022-07-27T17:16:27Z</time>
      </trkpt>
      <trkpt lat="45.38682" lon="5.8065">
        <ele>1754</ele>
        <time>2022-07-27T17:16:30Z</time>
      </trkpt>
      <trkpt lat="45.38684" lon="5.80652">
        <ele>1754</ele>
        <time>2022-07-27T17:16:33Z</time>
      </trkpt>
      <trkpt lat="45.38686" lon="5.80655">
        <ele>1754</ele>
        <time>2022-07-27T17:16:36Z</time>
      </trkpt>
      <trkpt lat="45.38687" lon="5.80657">
        <ele>1754</ele>
        <time>2022-07-27T17:16:39Z</time>
      </trkpt>
      <trkpt lat="45.38688" lon="5.8066">
        <ele>1754</ele>
        <time>2022-07-27T17:16:42Z</time>
      </trkpt>
      <trkpt lat="45.3869" lon="5.80662">
        <ele>1747</ele>
        <time>2022-07-27T17:16:45Z</time>
      </trkpt>
      <trkpt lat="45.38692" lon="5.80664">
        <ele>1747</ele>
        <time>2022-07-27T17:16:48Z</time>
      </trkpt>
      <trkpt lat="45.38693" lon="5.80666">
        <ele>1747</ele>
        <time>2022-07-27T17:16:51Z</time>
      </trkpt>
      <trkpt lat="45.38694" lon="5.80669">
        <ele>1747</ele>
        <time>2022-07-27T17:16:54Z</time>
      </trkpt>
      <trkpt lat="45.38695" lon="5.80672">
        <ele>1747</ele>
        <time>2022-07-27T17:16:58Z</time>
      </trkpt>
      <trkpt lat="45.38696" lon="5.80675">
        <ele>1747</ele>
        <time>2022-07-27T17:17:01Z</time>
      </trkpt>
      <trkpt lat="45.38697" lon="5.80677">
        <ele>1747</ele>
        <time>2022-07-27T17:17:04Z</time>
      </trkpt>
      <trkpt lat="45.38697" lon="5.80681">
        <ele>1747</ele>
        <time>2022-07-27T17:17:09Z</time>
      </trkpt>
      <trkpt lat="45.38698" lon="5.80684">
        <ele>1747</ele>
        <time>2022-07-27T17:17:13Z</time>
      </trkpt>
      <trkpt lat="45.38699" lon="5.80686">
        <ele>1747</ele>
        <time>2022-07-27T17:17:16Z</time>
      </trkpt>
      <trkpt lat="45.387" lon="5.80689">
        <ele>1747</ele>
        <time>2022-07-27T17:17:19Z</time>
      </trkpt>
      <trkpt lat="45.38701" lon="5.80692">
        <ele>1747</ele>
        <time>2022-07-27T17:17:22Z</time>
      </trkpt>
      <trkpt lat="45.38702" lon="5.80694">
        <ele>1741</ele>
        <time>2022-07-27T17:17:25Z</time>
      </trkpt>
      <trkpt lat="45.38702" lon="5.80697">
        <ele>1741</ele>
        <time>2022-07-27T17:17:36Z</time>
      </trkpt>
      <trkpt lat="45.38703" lon="5.807">
        <ele>1741</ele>
        <time>2022-07-27T17:17:39Z</time>
      </trkpt>
      <trkpt lat="45.38703" lon="5.80702">
        <ele>1741</ele>
        <time>2022-07-27T17:17:42Z</time>
      </trkpt>
      <trkpt lat="45.38703" lon="5.80705">
        <ele>1741</ele>
        <time>2022-07-27T17:17:46Z</time>
      </trkpt>
      <trkpt lat="45.38704" lon="5.80708">
        <ele>1741</ele>
        <time>2022-07-27T17:17:50Z</time>
      </trkpt>
      <trkpt lat="45.38704" lon="5.80711">
        <ele>1741</ele>
        <time>2022-07-27T17:17:54Z</time>
      </trkpt>
      <trkpt lat="45.38703" lon="5.80713">
        <ele>1741</ele>
        <time>2022-07-27T17:17:57Z</time>
      </trkpt>
      <trkpt lat="45.38703" lon="5.80716">
        <ele>1741</ele>
        <time>2022-07-27T17:18:01Z</time>
      </trkpt>
      <trkpt lat="45.38702" lon="5.80719">
        <ele>1731</ele>
        <time>2022-07-27T17:18:05Z</time>
      </trkpt>
      <trkpt lat="45.38703" lon="5.80721">
        <ele>1731</ele>
        <time>2022-07-27T17:18:09Z</time>
      </trkpt>
      <trkpt lat="45.38703" lon="5.80724">
        <ele>1731</ele>
        <time>2022-07-27T17:18:13Z</time>
      </trkpt>
      <trkpt lat="45.38704" lon="5.80726">
        <ele>1731</ele>
        <time>2022-07-27T17:18:17Z</time>
      </trkpt>
      <trkpt lat="45.38705" lon="5.80729">
        <ele>1731</ele>
        <time>2022-07-27T17:18:21Z</time>
      </trkpt>
      <trkpt lat="45.38705" lon="5.80732">
        <ele>1731</ele>
        <time>2022-07-27T17:18:24Z</time>
      </trkpt>
      <trkpt lat="45.38705" lon="5.80734">
        <ele>1731</ele>
        <time>2022-07-27T17:18:27Z</time>
      </trkpt>
      <trkpt lat="45.38705" lon="5.80738">
        <ele>1731</ele>
        <time>2022-07-27T17:18:31Z</time>
      </trkpt>
      <trkpt lat="45.38706" lon="5.8074">
        <ele>1731</ele>
        <time>2022-07-27T17:18:34Z</time>
      </trkpt>
      <trkpt lat="45.38706" lon="5.80743">
        <ele>1731</ele>
        <time>2022-07-27T17:18:37Z</time>
      </trkpt>
      <trkpt lat="45.38707" lon="5.80746">
        <ele>1731</ele>
        <time>2022-07-27T17:18:40Z</time>
      </trkpt>
      <trkpt lat="45.38707" lon="5.80749">
        <ele>1731</ele>
        <time>2022-07-27T17:18:43Z</time>
      </trkpt>
      <trkpt lat="45.38707" lon="5.80752">
        <ele>1724</ele>
        <time>2022-07-27T17:18:46Z</time>
      </trkpt>
      <trkpt lat="45.38708" lon="5.80754">
        <ele>1724</ele>
        <time>2022-07-27T17:18:48Z</time>
      </trkpt>
      <trkpt lat="45.38708" lon="5.80757">
        <ele>1724</ele>
        <time>2022-07-27T17:18:51Z</time>
      </trkpt>
      <trkpt lat="45.38709" lon="5.8076">
        <ele>1724</ele>
        <time>2022-07-27T17:18:54Z</time>
      </trkpt>
      <trkpt lat="45.38709" lon="5.80763">
        <ele>1724</ele>
        <time>2022-07-27T17:19:02Z</time>
      </trkpt>
      <trkpt lat="45.3871" lon="5.80767">
        <ele>1721</ele>
        <time>2022-07-27T17:19:05Z</time>
      </trkpt>
      <trkpt lat="45.3871" lon="5.8077">
        <ele>1721</ele>
        <time>2022-07-27T17:19:08Z</time>
      </trkpt>
      <trkpt lat="45.38709" lon="5.80773">
        <ele>1721</ele>
        <time>2022-07-27T17:19:11Z</time>
      </trkpt>
      <trkpt lat="45.3871" lon="5.80777">
        <ele>1721</ele>
        <time>2022-07-27T17:19:14Z</time>
      </trkpt>
      <trkpt lat="45.3871" lon="5.8078">
        <ele>1721</ele>
        <time>2022-07-27T17:19:17Z</time>
      </trkpt>
      <trkpt lat="45.3871" lon="5.80784">
        <ele>1721</ele>
        <time>2022-07-27T17:19:20Z</time>
      </trkpt>
      <trkpt lat="45.3871" lon="5.80787">
        <ele>1721</ele>
        <time>2022-07-27T17:19:23Z</time>
      </trkpt>
      <trkpt lat="45.38711" lon="5.80783">
        <ele>1721</ele>
        <time>2022-07-27T17:19:37Z</time>
      </trkpt>
      <trkpt lat="45.38711" lon="5.8078">
        <ele>1721</ele>
        <time>2022-07-27T17:19:40Z</time>
      </trkpt>
      <trkpt lat="45.38711" lon="5.80778">
        <ele>1721</ele>
        <time>2022-07-27T17:19:43Z</time>
      </trkpt>
      <trkpt lat="45.3871" lon="5.80781">
        <ele>1721</ele>
        <time>2022-07-27T17:20:39Z</time>
      </trkpt>
      <trkpt lat="45.3871" lon="5.80784">
        <ele>1721</ele>
        <time>2022-07-27T17:20:42Z</time>
      </trkpt>
      <trkpt lat="45.38711" lon="5.80787">
        <ele>1718</ele>
        <time>2022-07-27T17:20:45Z</time>
      </trkpt>
      <trkpt lat="45.38712" lon="5.80791">
        <ele>1718</ele>
        <time>2022-07-27T17:20:48Z</time>
      </trkpt>
      <trkpt lat="45.38712" lon="5.80794">
        <ele>1718</ele>
        <time>2022-07-27T17:20:52Z</time>
      </trkpt>
      <trkpt lat="45.38712" lon="5.80797">
        <ele>1718</ele>
        <time>2022-07-27T17:21:01Z</time>
      </trkpt>
      <trkpt lat="45.38713" lon="5.80799">
        <ele>1718</ele>
        <time>2022-07-27T17:21:10Z</time>
      </trkpt>
      <trkpt lat="45.38714" lon="5.80801">
        <ele>1718</ele>
        <time>2022-07-27T17:21:14Z</time>
      </trkpt>
      <trkpt lat="45.38715" lon="5.80804">
        <ele>1718</ele>
        <time>2022-07-27T17:21:19Z</time>
      </trkpt>
      <trkpt lat="45.38715" lon="5.80808">
        <ele>1718</ele>
        <time>2022-07-27T17:21:27Z</time>
      </trkpt>
      <trkpt lat="45.38716" lon="5.80811">
        <ele>1718</ele>
        <time>2022-07-27T17:21:30Z</time>
      </trkpt>
      <trkpt lat="45.38717" lon="5.80814">
        <ele>1718</ele>
        <time>2022-07-27T17:21:33Z</time>
      </trkpt>
      <trkpt lat="45.38717" lon="5.80817">
        <ele>1718</ele>
        <time>2022-07-27T17:21:37Z</time>
      </trkpt>
      <trkpt lat="45.38717" lon="5.8082">
        <ele>1718</ele>
        <time>2022-07-27T17:21:40Z</time>
      </trkpt>
      <trkpt lat="45.38717" lon="5.80823">
        <ele>1718</ele>
        <time>2022-07-27T17:21:43Z</time>
      </trkpt>
      <trkpt lat="45.38717" lon="5.80825">
        <ele>1718</ele>
        <time>2022-07-27T17:21:46Z</time>
      </trkpt>
      <trkpt lat="45.38718" lon="5.80829">
        <ele>1718</ele>
        <time>2022-07-27T17:21:49Z</time>
      </trkpt>
      <trkpt lat="45.38717" lon="5.80831">
        <ele>1718</ele>
        <time>2022-07-27T17:21:52Z</time>
      </trkpt>
      <trkpt lat="45.38717" lon="5.80835">
        <ele>1718</ele>
        <time>2022-07-27T17:21:54Z</time>
      </trkpt>
      <trkpt lat="45.38717" lon="5.80838">
        <ele>1711</ele>
        <time>2022-07-27T17:21:56Z</time>
      </trkpt>
      <trkpt lat="45.38718" lon="5.80841">
        <ele>1711</ele>
        <time>2022-07-27T17:21:58Z</time>
      </trkpt>
      <trkpt lat="45.38718" lon="5.80844">
        <ele>1711</ele>
        <time>2022-07-27T17:22:00Z</time>
      </trkpt>
      <trkpt lat="45.38717" lon="5.80847">
        <ele>1711</ele>
        <time>2022-07-27T17:22:02Z</time>
      </trkpt>
      <trkpt lat="45.38717" lon="5.8085">
        <ele>1711</ele>
        <time>2022-07-27T17:22:04Z</time>
      </trkpt>
      <trkpt lat="45.38717" lon="5.80853">
        <ele>1711</ele>
        <time>2022-07-27T17:22:07Z</time>
      </trkpt>
      <trkpt lat="45.38717" lon="5.80856">
        <ele>1711</ele>
        <time>2022-07-27T17:22:09Z</time>
      </trkpt>
      <trkpt lat="45.38718" lon="5.80859">
        <ele>1711</ele>
        <time>2022-07-27T17:22:11Z</time>
      </trkpt>
      <trkpt lat="45.38719" lon="5.80862">
        <ele>1711</ele>
        <time>2022-07-27T17:22:13Z</time>
      </trkpt>
      <trkpt lat="45.38719" lon="5.80865">
        <ele>1709</ele>
        <time>2022-07-27T17:22:15Z</time>
      </trkpt>
      <trkpt lat="45.3872" lon="5.80869">
        <ele>1709</ele>
        <time>2022-07-27T17:22:18Z</time>
      </trkpt>
      <trkpt lat="45.3872" lon="5.80871">
        <ele>1709</ele>
        <time>2022-07-27T17:22:20Z</time>
      </trkpt>
      <trkpt lat="45.38719" lon="5.80874">
        <ele>1709</ele>
        <time>2022-07-27T17:22:22Z</time>
      </trkpt>
      <trkpt lat="45.38719" lon="5.80877">
        <ele>1709</ele>
        <time>2022-07-27T17:22:27Z</time>
      </trkpt>
      <trkpt lat="45.38718" lon="5.8088">
        <ele>1709</ele>
        <time>2022-07-27T17:22:31Z</time>
      </trkpt>
      <trkpt lat="45.38717" lon="5.80883">
        <ele>1708</ele>
        <time>2022-07-27T17:22:35Z</time>
      </trkpt>
      <trkpt lat="45.38716" lon="5.80886">
        <ele>1708</ele>
        <time>2022-07-27T17:22:39Z</time>
      </trkpt>
      <trkpt lat="45.38715" lon="5.80888">
        <ele>1708</ele>
        <time>2022-07-27T17:22:41Z</time>
      </trkpt>
      <trkpt lat="45.38714" lon="5.80891">
        <ele>1708</ele>
        <time>2022-07-27T17:22:42Z</time>
      </trkpt>
      <trkpt lat="45.38713" lon="5.80894">
        <ele>1708</ele>
        <time>2022-07-27T17:22:45Z</time>
      </trkpt>
      <trkpt lat="45.38712" lon="5.80896">
        <ele>1708</ele>
        <time>2022-07-27T17:22:47Z</time>
      </trkpt>
      <trkpt lat="45.38711" lon="5.80898">
        <ele>1708</ele>
        <time>2022-07-27T17:22:50Z</time>
      </trkpt>
      <trkpt lat="45.3871" lon="5.80901">
        <ele>1708</ele>
        <time>2022-07-27T17:22:53Z</time>
      </trkpt>
      <trkpt lat="45.38709" lon="5.80904">
        <ele>1708</ele>
        <time>2022-07-27T17:22:56Z</time>
      </trkpt>
      <trkpt lat="45.3871" lon="5.80907">
        <ele>1708</ele>
        <time>2022-07-27T17:22:59Z</time>
      </trkpt>
      <trkpt lat="45.38709" lon="5.8091">
        <ele>1708</ele>
        <time>2022-07-27T17:23:02Z</time>
      </trkpt>
      <trkpt lat="45.38708" lon="5.80913">
        <ele>1710</ele>
        <time>2022-07-27T17:23:05Z</time>
      </trkpt>
      <trkpt lat="45.38707" lon="5.80916">
        <ele>1710</ele>
        <time>2022-07-27T17:23:07Z</time>
      </trkpt>
      <trkpt lat="45.38706" lon="5.80918">
        <ele>1710</ele>
        <time>2022-07-27T17:23:11Z</time>
      </trkpt>
      <trkpt lat="45.38704" lon="5.8092">
        <ele>1710</ele>
        <time>2022-07-27T17:23:14Z</time>
      </trkpt>
      <trkpt lat="45.38702" lon="5.80921">
        <ele>1710</ele>
        <time>2022-07-27T17:23:17Z</time>
      </trkpt>
      <trkpt lat="45.38701" lon="5.80924">
        <ele>1710</ele>
        <time>2022-07-27T17:23:20Z</time>
      </trkpt>
      <trkpt lat="45.387" lon="5.80927">
        <ele>1710</ele>
        <time>2022-07-27T17:23:23Z</time>
      </trkpt>
      <trkpt lat="45.38699" lon="5.8093">
        <ele>1710</ele>
        <time>2022-07-27T17:23:26Z</time>
      </trkpt>
      <trkpt lat="45.38698" lon="5.80933">
        <ele>1710</ele>
        <time>2022-07-27T17:23:29Z</time>
      </trkpt>
      <trkpt lat="45.38697" lon="5.80935">
        <ele>1710</ele>
        <time>2022-07-27T17:23:32Z</time>
      </trkpt>
      <trkpt lat="45.38697" lon="5.80938">
        <ele>1710</ele>
        <time>2022-07-27T17:23:34Z</time>
      </trkpt>
      <trkpt lat="45.38697" lon="5.80941">
        <ele>1710</ele>
        <time>2022-07-27T17:23:38Z</time>
      </trkpt>
      <trkpt lat="45.38696" lon="5.80944">
        <ele>1710</ele>
        <time>2022-07-27T17:23:41Z</time>
      </trkpt>
      <trkpt lat="45.38695" lon="5.80947">
        <ele>1714</ele>
        <time>2022-07-27T17:23:45Z</time>
      </trkpt>
      <trkpt lat="45.38693" lon="5.80949">
        <ele>1714</ele>
        <time>2022-07-27T17:23:48Z</time>
      </trkpt>
      <trkpt lat="45.38692" lon="5.80952">
        <ele>1714</ele>
        <time>2022-07-27T17:23:51Z</time>
      </trkpt>
      <trkpt lat="45.38691" lon="5.80955">
        <ele>1714</ele>
        <time>2022-07-27T17:23:54Z</time>
      </trkpt>
      <trkpt lat="45.3869" lon="5.80958">
        <ele>1714</ele>
        <time>2022-07-27T17:23:57Z</time>
      </trkpt>
      <trkpt lat="45.38689" lon="5.8096">
        <ele>1714</ele>
        <time>2022-07-27T17:24:00Z</time>
      </trkpt>
      <trkpt lat="45.38688" lon="5.80963">
        <ele>1714</ele>
        <time>2022-07-27T17:24:03Z</time>
      </trkpt>
      <trkpt lat="45.38686" lon="5.80965">
        <ele>1714</ele>
        <time>2022-07-27T17:24:08Z</time>
      </trkpt>
      <trkpt lat="45.38684" lon="5.80966">
        <ele>1714</ele>
        <time>2022-07-27T17:24:11Z</time>
      </trkpt>
      <trkpt lat="45.38683" lon="5.80968">
        <ele>1714</ele>
        <time>2022-07-27T17:24:14Z</time>
      </trkpt>
      <trkpt lat="45.38682" lon="5.80971">
        <ele>1714</ele>
        <time>2022-07-27T17:24:17Z</time>
      </trkpt>
      <trkpt lat="45.3868" lon="5.80973">
        <ele>1714</ele>
        <time>2022-07-27T17:24:20Z</time>
      </trkpt>
      <trkpt lat="45.38678" lon="5.80975">
        <ele>1714</ele>
        <time>2022-07-27T17:24:23Z</time>
      </trkpt>
      <trkpt lat="45.38677" lon="5.80978">
        <ele>1714</ele>
        <time>2022-07-27T17:24:28Z</time>
      </trkpt>
      <trkpt lat="45.38676" lon="5.80981">
        <ele>1714</ele>
        <time>2022-07-27T17:24:31Z</time>
      </trkpt>
      <trkpt lat="45.38674" lon="5.80983">
        <ele>1714</ele>
        <time>2022-07-27T17:24:34Z</time>
      </trkpt>
      <trkpt lat="45.38673" lon="5.80986">
        <ele>1714</ele>
        <time>2022-07-27T17:24:37Z</time>
      </trkpt>
      <trkpt lat="45.38671" lon="5.80989">
        <ele>1714</ele>
        <time>2022-07-27T17:24:40Z</time>
      </trkpt>
      <trkpt lat="45.3867" lon="5.80992">
        <ele>1714</ele>
        <time>2022-07-27T17:24:43Z</time>
      </trkpt>
      <trkpt lat="45.3867" lon="5.80994">
        <ele>1714</ele>
        <time>2022-07-27T17:24:46Z</time>
      </trkpt>
      <trkpt lat="45.38669" lon="5.80997">
        <ele>1714</ele>
        <time>2022-07-27T17:24:49Z</time>
      </trkpt>
      <trkpt lat="45.38667" lon="5.81">
        <ele>1714</ele>
        <time>2022-07-27T17:24:53Z</time>
      </trkpt>
      <trkpt lat="45.38666" lon="5.81002">
        <ele>1714</ele>
        <time>2022-07-27T17:24:56Z</time>
      </trkpt>
      <trkpt lat="45.38666" lon="5.81005">
        <ele>1714</ele>
        <time>2022-07-27T17:25:00Z</time>
      </trkpt>
      <trkpt lat="45.38665" lon="5.81008">
        <ele>1714</ele>
        <time>2022-07-27T17:25:04Z</time>
      </trkpt>
      <trkpt lat="45.38663" lon="5.81011">
        <ele>1714</ele>
        <time>2022-07-27T17:25:07Z</time>
      </trkpt>
      <trkpt lat="45.38662" lon="5.81013">
        <ele>1714</ele>
        <time>2022-07-27T17:25:10Z</time>
      </trkpt>
      <trkpt lat="45.38661" lon="5.81015">
        <ele>1714</ele>
        <time>2022-07-27T17:25:13Z</time>
      </trkpt>
      <trkpt lat="45.38659" lon="5.8102">
        <ele>1714</ele>
        <time>2022-07-27T17:25:18Z</time>
      </trkpt>
      <trkpt lat="45.38657" lon="5.81023">
        <ele>1714</ele>
        <time>2022-07-27T17:25:21Z</time>
      </trkpt>
      <trkpt lat="45.38656" lon="5.81025">
        <ele>1729</ele>
        <time>2022-07-27T17:25:25Z</time>
      </trkpt>
      <trkpt lat="45.38654" lon="5.81026">
        <ele>1729</ele>
        <time>2022-07-27T17:25:29Z</time>
      </trkpt>
      <trkpt lat="45.38652" lon="5.81028">
        <ele>1729</ele>
        <time>2022-07-27T17:25:33Z</time>
      </trkpt>
      <trkpt lat="45.38651" lon="5.8103">
        <ele>1729</ele>
        <time>2022-07-27T17:25:38Z</time>
      </trkpt>
      <trkpt lat="45.38648" lon="5.81034">
        <ele>1729</ele>
        <time>2022-07-27T17:25:44Z</time>
      </trkpt>
      <trkpt lat="45.38647" lon="5.81037">
        <ele>1732</ele>
        <time>2022-07-27T17:25:55Z</time>
      </trkpt>
      <trkpt lat="45.38646" lon="5.81039">
        <ele>1732</ele>
        <time>2022-07-27T17:26:00Z</time>
      </trkpt>
      <trkpt lat="45.38644" lon="5.81041">
        <ele>1732</ele>
        <time>2022-07-27T17:26:04Z</time>
      </trkpt>
      <trkpt lat="45.38642" lon="5.81042">
        <ele>1732</ele>
        <time>2022-07-27T17:26:14Z</time>
      </trkpt>
      <trkpt lat="45.38641" lon="5.81044">
        <ele>1732</ele>
        <time>2022-07-27T17:26:30Z</time>
      </trkpt>
      <trkpt lat="45.3864" lon="5.81046">
        <ele>1732</ele>
        <time>2022-07-27T17:26:34Z</time>
      </trkpt>
      <trkpt lat="45.38639" lon="5.81049">
        <ele>1732</ele>
        <time>2022-07-27T17:26:39Z</time>
      </trkpt>
      <trkpt lat="45.38638" lon="5.81051">
        <ele>1732</ele>
        <time>2022-07-27T17:26:43Z</time>
      </trkpt>
      <trkpt lat="45.38637" lon="5.81053">
        <ele>1732</ele>
        <time>2022-07-27T17:26:47Z</time>
      </trkpt>
      <trkpt lat="45.38636" lon="5.81056">
        <ele>1732</ele>
        <time>2022-07-27T17:26:51Z</time>
      </trkpt>
      <trkpt lat="45.38634" lon="5.81058">
        <ele>1740</ele>
        <time>2022-07-27T17:26:55Z</time>
      </trkpt>
      <trkpt lat="45.38632" lon="5.8106">
        <ele>1740</ele>
        <time>2022-07-27T17:27:00Z</time>
      </trkpt>
      <trkpt lat="45.38631" lon="5.8106">
        <ele>1740</ele>
        <time>2022-07-27T17:27:06Z</time>
      </trkpt>
      <trkpt lat="45.38629" lon="5.81062">
        <ele>1740</ele>
        <time>2022-07-27T17:27:11Z</time>
      </trkpt>
      <trkpt lat="45.38628" lon="5.81064">
        <ele>1740</ele>
        <time>2022-07-27T17:27:22Z</time>
      </trkpt>
      <trkpt lat="45.38626" lon="5.81067">
        <ele>1740</ele>
        <time>2022-07-27T17:27:29Z</time>
      </trkpt>
      <trkpt lat="45.38625" lon="5.81069">
        <ele>1740</ele>
        <time>2022-07-27T17:27:34Z</time>
      </trkpt>
      <trkpt lat="45.38624" lon="5.81071">
        <ele>1740</ele>
        <time>2022-07-27T17:27:38Z</time>
      </trkpt>
      <trkpt lat="45.38623" lon="5.81073">
        <ele>1740</ele>
        <time>2022-07-27T17:27:42Z</time>
      </trkpt>
      <trkpt lat="45.38622" lon="5.81076">
        <ele>1740</ele>
        <time>2022-07-27T17:27:47Z</time>
      </trkpt>
      <trkpt lat="45.38621" lon="5.81079">
        <ele>1740</ele>
        <time>2022-07-27T17:27:53Z</time>
      </trkpt>
      <trkpt lat="45.38619" lon="5.8108">
        <ele>1740</ele>
        <time>2022-07-27T17:28:00Z</time>
      </trkpt>
      <trkpt lat="45.38618" lon="5.81082">
        <ele>1740</ele>
        <time>2022-07-27T17:29:01Z</time>
      </trkpt>
      <trkpt lat="45.38616" lon="5.81084">
        <ele>1740</ele>
        <time>2022-07-27T17:29:28Z</time>
      </trkpt>
      <trkpt lat="45.38614" lon="5.81085">
        <ele>1740</ele>
        <time>2022-07-27T17:29:32Z</time>
      </trkpt>
      <trkpt lat="45.38612" lon="5.81087">
        <ele>1740</ele>
        <time>2022-07-27T17:29:36Z</time>
      </trkpt>
      <trkpt lat="45.38611" lon="5.8109">
        <ele>1740</ele>
        <time>2022-07-27T17:29:41Z</time>
      </trkpt>
      <trkpt lat="45.38609" lon="5.8109">
        <ele>1733</ele>
        <time>2022-07-27T17:29:45Z</time>
      </trkpt>
      <trkpt lat="45.38608" lon="5.81092">
        <ele>1733</ele>
        <time>2022-07-27T17:29:49Z</time>
      </trkpt>
      <trkpt lat="45.38607" lon="5.81095">
        <ele>1733</ele>
        <time>2022-07-27T17:29:53Z</time>
      </trkpt>
      <trkpt lat="45.38606" lon="5.81098">
        <ele>1733</ele>
        <time>2022-07-27T17:29:57Z</time>
      </trkpt>
      <trkpt lat="45.38607" lon="5.81101">
        <ele>1733</ele>
        <time>2022-07-27T17:30:02Z</time>
      </trkpt>
      <trkpt lat="45.38605" lon="5.81104">
        <ele>1733</ele>
        <time>2022-07-27T17:30:06Z</time>
      </trkpt>
      <trkpt lat="45.38603" lon="5.81106">
        <ele>1733</ele>
        <time>2022-07-27T17:30:09Z</time>
      </trkpt>
      <trkpt lat="45.38602" lon="5.81109">
        <ele>1733</ele>
        <time>2022-07-27T17:30:12Z</time>
      </trkpt>
      <trkpt lat="45.386" lon="5.81111">
        <ele>1733</ele>
        <time>2022-07-27T17:30:16Z</time>
      </trkpt>
      <trkpt lat="45.38599" lon="5.81112">
        <ele>1733</ele>
        <time>2022-07-27T17:30:19Z</time>
      </trkpt>
      <trkpt lat="45.38597" lon="5.81113">
        <ele>1733</ele>
        <time>2022-07-27T17:30:23Z</time>
      </trkpt>
      <trkpt lat="45.38595" lon="5.81115">
        <ele>1733</ele>
        <time>2022-07-27T17:30:29Z</time>
      </trkpt>
      <trkpt lat="45.38594" lon="5.81116">
        <ele>1733</ele>
        <time>2022-07-27T17:30:34Z</time>
      </trkpt>
      <trkpt lat="45.38593" lon="5.81118">
        <ele>1733</ele>
        <time>2022-07-27T17:30:38Z</time>
      </trkpt>
      <trkpt lat="45.38592" lon="5.81121">
        <ele>1733</ele>
        <time>2022-07-27T17:30:41Z</time>
      </trkpt>
      <trkpt lat="45.38592" lon="5.81124">
        <ele>1733</ele>
        <time>2022-07-27T17:30:47Z</time>
      </trkpt>
      <trkpt lat="45.3859" lon="5.81124">
        <ele>1733</ele>
        <time>2022-07-27T17:30:52Z</time>
      </trkpt>
      <trkpt lat="45.38588" lon="5.81125">
        <ele>1733</ele>
        <time>2022-07-27T17:30:56Z</time>
      </trkpt>
      <trkpt lat="45.38587" lon="5.81127">
        <ele>1733</ele>
        <time>2022-07-27T17:31:01Z</time>
      </trkpt>
      <trkpt lat="45.38585" lon="5.81129">
        <ele>1721</ele>
        <time>2022-07-27T17:31:05Z</time>
      </trkpt>
      <trkpt lat="45.38584" lon="5.81132">
        <ele>1721</ele>
        <time>2022-07-27T17:31:11Z</time>
      </trkpt>
      <trkpt lat="45.38583" lon="5.81134">
        <ele>1721</ele>
        <time>2022-07-27T17:31:18Z</time>
      </trkpt>
      <trkpt lat="45.38581" lon="5.81136">
        <ele>1721</ele>
        <time>2022-07-27T17:31:22Z</time>
      </trkpt>
      <trkpt lat="45.3858" lon="5.81138">
        <ele>1721</ele>
        <time>2022-07-27T17:31:28Z</time>
      </trkpt>
      <trkpt lat="45.38578" lon="5.8114">
        <ele>1721</ele>
        <time>2022-07-27T17:31:33Z</time>
      </trkpt>
      <trkpt lat="45.38577" lon="5.81142">
        <ele>1721</ele>
        <time>2022-07-27T17:31:38Z</time>
      </trkpt>
      <trkpt lat="45.38575" lon="5.81144">
        <ele>1721</ele>
        <time>2022-07-27T17:31:41Z</time>
      </trkpt>
      <trkpt lat="45.38575" lon="5.81147">
        <ele>1721</ele>
        <time>2022-07-27T17:31:44Z</time>
      </trkpt>
      <trkpt lat="45.38573" lon="5.81149">
        <ele>1721</ele>
        <time>2022-07-27T17:31:46Z</time>
      </trkpt>
      <trkpt lat="45.38571" lon="5.81151">
        <ele>1721</ele>
        <time>2022-07-27T17:31:49Z</time>
      </trkpt>
      <trkpt lat="45.3857" lon="5.81153">
        <ele>1721</ele>
        <time>2022-07-27T17:31:52Z</time>
      </trkpt>
      <trkpt lat="45.38569" lon="5.81156">
        <ele>1721</ele>
        <time>2022-07-27T17:31:59Z</time>
      </trkpt>
      <trkpt lat="45.38568" lon="5.81158">
        <ele>1721</ele>
        <time>2022-07-27T17:32:03Z</time>
      </trkpt>
      <trkpt lat="45.38567" lon="5.81161">
        <ele>1721</ele>
        <time>2022-07-27T17:32:06Z</time>
      </trkpt>
      <trkpt lat="45.38567" lon="5.81164">
        <ele>1721</ele>
        <time>2022-07-27T17:32:10Z</time>
      </trkpt>
      <trkpt lat="45.38568" lon="5.81166">
        <ele>1721</ele>
        <time>2022-07-27T17:32:16Z</time>
      </trkpt>
      <trkpt lat="45.38568" lon="5.81169">
        <ele>1721</ele>
        <time>2022-07-27T17:32:20Z</time>
      </trkpt>
      <trkpt lat="45.38567" lon="5.81172">
        <ele>1721</ele>
        <time>2022-07-27T17:32:24Z</time>
      </trkpt>
      <trkpt lat="45.38567" lon="5.81175">
        <ele>1721</ele>
        <time>2022-07-27T17:32:27Z</time>
      </trkpt>
      <trkpt lat="45.38565" lon="5.81176">
        <ele>1721</ele>
        <time>2022-07-27T17:32:30Z</time>
      </trkpt>
      <trkpt lat="45.38563" lon="5.81177">
        <ele>1721</ele>
        <time>2022-07-27T17:32:34Z</time>
      </trkpt>
      <trkpt lat="45.38561" lon="5.81178">
        <ele>1721</ele>
        <time>2022-07-27T17:32:41Z</time>
      </trkpt>
      <trkpt lat="45.38559" lon="5.8118">
        <ele>1711</ele>
        <time>2022-07-27T17:32:45Z</time>
      </trkpt>
      <trkpt lat="45.38558" lon="5.81181">
        <ele>1711</ele>
        <time>2022-07-27T17:32:50Z</time>
      </trkpt>
      <trkpt lat="45.38557" lon="5.81184">
        <ele>1711</ele>
        <time>2022-07-27T17:32:54Z</time>
      </trkpt>
      <trkpt lat="45.38555" lon="5.81186">
        <ele>1711</ele>
        <time>2022-07-27T17:32:57Z</time>
      </trkpt>
      <trkpt lat="45.38554" lon="5.81189">
        <ele>1711</ele>
        <time>2022-07-27T17:33:00Z</time>
      </trkpt>
      <trkpt lat="45.38552" lon="5.81192">
        <ele>1711</ele>
        <time>2022-07-27T17:33:03Z</time>
      </trkpt>
      <trkpt lat="45.38551" lon="5.81194">
        <ele>1707</ele>
        <time>2022-07-27T17:33:05Z</time>
      </trkpt>
      <trkpt lat="45.38549" lon="5.81195">
        <ele>1707</ele>
        <time>2022-07-27T17:33:08Z</time>
      </trkpt>
      <trkpt lat="45.38547" lon="5.81196">
        <ele>1707</ele>
        <time>2022-07-27T17:33:12Z</time>
      </trkpt>
      <trkpt lat="45.38545" lon="5.81197">
        <ele>1707</ele>
        <time>2022-07-27T17:33:16Z</time>
      </trkpt>
      <trkpt lat="45.38543" lon="5.81199">
        <ele>1707</ele>
        <time>2022-07-27T17:33:20Z</time>
      </trkpt>
      <trkpt lat="45.38541" lon="5.81202">
        <ele>1707</ele>
        <time>2022-07-27T17:33:23Z</time>
      </trkpt>
      <trkpt lat="45.38539" lon="5.81203">
        <ele>1705</ele>
        <time>2022-07-27T17:33:25Z</time>
      </trkpt>
      <trkpt lat="45.38537" lon="5.81203">
        <ele>1705</ele>
        <time>2022-07-27T17:33:28Z</time>
      </trkpt>
      <trkpt lat="45.38535" lon="5.81203">
        <ele>1705</ele>
        <time>2022-07-27T17:33:30Z</time>
      </trkpt>
      <trkpt lat="45.38533" lon="5.81204">
        <ele>1705</ele>
        <time>2022-07-27T17:33:32Z</time>
      </trkpt>
      <trkpt lat="45.38531" lon="5.81205">
        <ele>1705</ele>
        <time>2022-07-27T17:33:34Z</time>
      </trkpt>
      <trkpt lat="45.38529" lon="5.81205">
        <ele>1705</ele>
        <time>2022-07-27T17:33:37Z</time>
      </trkpt>
      <trkpt lat="45.38527" lon="5.81205">
        <ele>1705</ele>
        <time>2022-07-27T17:33:40Z</time>
      </trkpt>
      <trkpt lat="45.38525" lon="5.81206">
        <ele>1705</ele>
        <time>2022-07-27T17:33:43Z</time>
      </trkpt>
      <trkpt lat="45.38523" lon="5.81207">
        <ele>1705</ele>
        <time>2022-07-27T17:33:46Z</time>
      </trkpt>
      <trkpt lat="45.38522" lon="5.81211">
        <ele>1705</ele>
        <time>2022-07-27T17:33:52Z</time>
      </trkpt>
      <trkpt lat="45.38521" lon="5.81212">
        <ele>1702</ele>
        <time>2022-07-27T17:33:55Z</time>
      </trkpt>
      <trkpt lat="45.38519" lon="5.81215">
        <ele>1702</ele>
        <time>2022-07-27T17:33:57Z</time>
      </trkpt>
      <trkpt lat="45.38518" lon="5.81216">
        <ele>1702</ele>
        <time>2022-07-27T17:34:01Z</time>
      </trkpt>
      <trkpt lat="45.38516" lon="5.81217">
        <ele>1700</ele>
        <time>2022-07-27T17:34:05Z</time>
      </trkpt>
      <trkpt lat="45.38514" lon="5.81219">
        <ele>1700</ele>
        <time>2022-07-27T17:34:08Z</time>
      </trkpt>
      <trkpt lat="45.38512" lon="5.81222">
        <ele>1700</ele>
        <time>2022-07-27T17:34:11Z</time>
      </trkpt>
      <trkpt lat="45.3851" lon="5.81223">
        <ele>1700</ele>
        <time>2022-07-27T17:34:14Z</time>
      </trkpt>
      <trkpt lat="45.38508" lon="5.81223">
        <ele>1700</ele>
        <time>2022-07-27T17:34:16Z</time>
      </trkpt>
      <trkpt lat="45.38506" lon="5.81223">
        <ele>1700</ele>
        <time>2022-07-27T17:34:18Z</time>
      </trkpt>
      <trkpt lat="45.38504" lon="5.81223">
        <ele>1700</ele>
        <time>2022-07-27T17:34:21Z</time>
      </trkpt>
      <trkpt lat="45.38502" lon="5.81223">
        <ele>1700</ele>
        <time>2022-07-27T17:34:24Z</time>
      </trkpt>
      <trkpt lat="45.385" lon="5.81222">
        <ele>1700</ele>
        <time>2022-07-27T17:34:28Z</time>
      </trkpt>
      <trkpt lat="45.38498" lon="5.81221">
        <ele>1700</ele>
        <time>2022-07-27T17:34:34Z</time>
      </trkpt>
      <trkpt lat="45.38496" lon="5.8122">
        <ele>1700</ele>
        <time>2022-07-27T17:34:38Z</time>
      </trkpt>
      <trkpt lat="45.38494" lon="5.8122">
        <ele>1700</ele>
        <time>2022-07-27T17:34:42Z</time>
      </trkpt>
      <trkpt lat="45.38492" lon="5.8122">
        <ele>1700</ele>
        <time>2022-07-27T17:34:47Z</time>
      </trkpt>
      <trkpt lat="45.38492" lon="5.81223">
        <ele>1700</ele>
        <time>2022-07-27T17:34:51Z</time>
      </trkpt>
      <trkpt lat="45.38491" lon="5.81226">
        <ele>1700</ele>
        <time>2022-07-27T17:34:54Z</time>
      </trkpt>
      <trkpt lat="45.3849" lon="5.81229">
        <ele>1698</ele>
        <time>2022-07-27T17:34:55Z</time>
      </trkpt>
      <trkpt lat="45.38488" lon="5.8123">
        <ele>1698</ele>
        <time>2022-07-27T17:34:57Z</time>
      </trkpt>
      <trkpt lat="45.38486" lon="5.8123">
        <ele>1698</ele>
        <time>2022-07-27T17:35:00Z</time>
      </trkpt>
      <trkpt lat="45.38484" lon="5.81228">
        <ele>1698</ele>
        <time>2022-07-27T17:35:03Z</time>
      </trkpt>
      <trkpt lat="45.38483" lon="5.81227">
        <ele>1698</ele>
        <time>2022-07-27T17:35:07Z</time>
      </trkpt>
      <trkpt lat="45.38481" lon="5.81224">
        <ele>1698</ele>
        <time>2022-07-27T17:35:11Z</time>
      </trkpt>
      <trkpt lat="45.38479" lon="5.81223">
        <ele>1696</ele>
        <time>2022-07-27T17:35:15Z</time>
      </trkpt>
      <trkpt lat="45.38478" lon="5.81224">
        <ele>1696</ele>
        <time>2022-07-27T17:35:19Z</time>
      </trkpt>
      <trkpt lat="45.38476" lon="5.81226">
        <ele>1696</ele>
        <time>2022-07-27T17:35:24Z</time>
      </trkpt>
      <trkpt lat="45.38476" lon="5.81229">
        <ele>1696</ele>
        <time>2022-07-27T17:35:32Z</time>
      </trkpt>
      <trkpt lat="45.38474" lon="5.81231">
        <ele>1696</ele>
        <time>2022-07-27T17:35:36Z</time>
      </trkpt>
      <trkpt lat="45.38473" lon="5.81234">
        <ele>1696</ele>
        <time>2022-07-27T17:35:46Z</time>
      </trkpt>
      <trkpt lat="45.38473" lon="5.81237">
        <ele>1696</ele>
        <time>2022-07-27T17:35:51Z</time>
      </trkpt>
      <trkpt lat="45.38473" lon="5.8124">
        <ele>1696</ele>
        <time>2022-07-27T17:36:02Z</time>
      </trkpt>
      <trkpt lat="45.38473" lon="5.81243">
        <ele>1696</ele>
        <time>2022-07-27T17:36:11Z</time>
      </trkpt>
      <trkpt lat="45.38473" lon="5.81246">
        <ele>1696</ele>
        <time>2022-07-27T17:36:16Z</time>
      </trkpt>
      <trkpt lat="45.38472" lon="5.81247">
        <ele>1696</ele>
        <time>2022-07-27T17:36:20Z</time>
      </trkpt>
      <trkpt lat="45.3847" lon="5.81246">
        <ele>1696</ele>
        <time>2022-07-27T17:36:23Z</time>
      </trkpt>
      <trkpt lat="45.38468" lon="5.81244">
        <ele>1696</ele>
        <time>2022-07-27T17:36:26Z</time>
      </trkpt>
      <trkpt lat="45.38466" lon="5.81243">
        <ele>1696</ele>
        <time>2022-07-27T17:36:49Z</time>
      </trkpt>
      <trkpt lat="45.38464" lon="5.81242">
        <ele>1696</ele>
        <time>2022-07-27T17:36:53Z</time>
      </trkpt>
      <trkpt lat="45.38462" lon="5.81243">
        <ele>1696</ele>
        <time>2022-07-27T17:36:56Z</time>
      </trkpt>
      <trkpt lat="45.3846" lon="5.81244">
        <ele>1696</ele>
        <time>2022-07-27T17:37:01Z</time>
      </trkpt>
      <trkpt lat="45.38458" lon="5.81246">
        <ele>1683</ele>
        <time>2022-07-27T17:37:05Z</time>
      </trkpt>
      <trkpt lat="45.38457" lon="5.81248">
        <ele>1683</ele>
        <time>2022-07-27T17:37:08Z</time>
      </trkpt>
      <trkpt lat="45.38455" lon="5.81249">
        <ele>1683</ele>
        <time>2022-07-27T17:37:12Z</time>
      </trkpt>
      <trkpt lat="45.38453" lon="5.81249">
        <ele>1680</ele>
        <time>2022-07-27T17:37:15Z</time>
      </trkpt>
      <trkpt lat="45.38451" lon="5.8125">
        <ele>1680</ele>
        <time>2022-07-27T17:37:20Z</time>
      </trkpt>
      <trkpt lat="45.3845" lon="5.81252">
        <ele>1680</ele>
        <time>2022-07-27T17:37:36Z</time>
      </trkpt>
      <trkpt lat="45.38449" lon="5.81255">
        <ele>1680</ele>
        <time>2022-07-27T17:37:39Z</time>
      </trkpt>
      <trkpt lat="45.38448" lon="5.81258">
        <ele>1680</ele>
        <time>2022-07-27T17:37:42Z</time>
      </trkpt>
      <trkpt lat="45.38447" lon="5.8126">
        <ele>1678</ele>
        <time>2022-07-27T17:37:45Z</time>
      </trkpt>
      <trkpt lat="45.38449" lon="5.81262">
        <ele>1678</ele>
        <time>2022-07-27T17:37:48Z</time>
      </trkpt>
      <trkpt lat="45.3845" lon="5.81265">
        <ele>1678</ele>
        <time>2022-07-27T17:37:52Z</time>
      </trkpt>
      <trkpt lat="45.38449" lon="5.81268">
        <ele>1678</ele>
        <time>2022-07-27T17:37:57Z</time>
      </trkpt>
      <trkpt lat="45.38448" lon="5.8127">
        <ele>1678</ele>
        <time>2022-07-27T17:38:00Z</time>
      </trkpt>
      <trkpt lat="45.38447" lon="5.81273">
        <ele>1678</ele>
        <time>2022-07-27T17:38:04Z</time>
      </trkpt>
      <trkpt lat="45.38447" lon="5.81276">
        <ele>1678</ele>
        <time>2022-07-27T17:38:07Z</time>
      </trkpt>
      <trkpt lat="45.38448" lon="5.81279">
        <ele>1678</ele>
        <time>2022-07-27T17:38:10Z</time>
      </trkpt>
      <trkpt lat="45.38448" lon="5.81283">
        <ele>1678</ele>
        <time>2022-07-27T17:38:13Z</time>
      </trkpt>
      <trkpt lat="45.38449" lon="5.81285">
        <ele>1678</ele>
        <time>2022-07-27T17:38:16Z</time>
      </trkpt>
      <trkpt lat="45.3845" lon="5.81288">
        <ele>1678</ele>
        <time>2022-07-27T17:38:19Z</time>
      </trkpt>
      <trkpt lat="45.3845" lon="5.81291">
        <ele>1678</ele>
        <time>2022-07-27T17:38:22Z</time>
      </trkpt>
      <trkpt lat="45.38451" lon="5.81294">
        <ele>1669</ele>
        <time>2022-07-27T17:38:25Z</time>
      </trkpt>
      <trkpt lat="45.38453" lon="5.81295">
        <ele>1669</ele>
        <time>2022-07-27T17:38:27Z</time>
      </trkpt>
      <trkpt lat="45.38454" lon="5.81297">
        <ele>1669</ele>
        <time>2022-07-27T17:38:29Z</time>
      </trkpt>
      <trkpt lat="45.38456" lon="5.81299">
        <ele>1669</ele>
        <time>2022-07-27T17:38:31Z</time>
      </trkpt>
      <trkpt lat="45.38458" lon="5.81301">
        <ele>1669</ele>
        <time>2022-07-27T17:38:33Z</time>
      </trkpt>
      <trkpt lat="45.38459" lon="5.81303">
        <ele>1666</ele>
        <time>2022-07-27T17:38:35Z</time>
      </trkpt>
      <trkpt lat="45.3846" lon="5.81306">
        <ele>1666</ele>
        <time>2022-07-27T17:38:38Z</time>
      </trkpt>
      <trkpt lat="45.38457" lon="5.81308">
        <ele>1666</ele>
        <time>2022-07-27T17:38:41Z</time>
      </trkpt>
      <trkpt lat="45.38456" lon="5.81311">
        <ele>1666</ele>
        <time>2022-07-27T17:38:44Z</time>
      </trkpt>
      <trkpt lat="45.38454" lon="5.81313">
        <ele>1666</ele>
        <time>2022-07-27T17:38:47Z</time>
      </trkpt>
      <trkpt lat="45.38454" lon="5.81316">
        <ele>1666</ele>
        <time>2022-07-27T17:38:50Z</time>
      </trkpt>
      <trkpt lat="45.38454" lon="5.81319">
        <ele>1666</ele>
        <time>2022-07-27T17:38:54Z</time>
      </trkpt>
      <trkpt lat="45.38456" lon="5.8132">
        <ele>1666</ele>
        <time>2022-07-27T17:38:58Z</time>
      </trkpt>
      <trkpt lat="45.38457" lon="5.81323">
        <ele>1666</ele>
        <time>2022-07-27T17:39:02Z</time>
      </trkpt>
      <trkpt lat="45.38456" lon="5.81326">
        <ele>1666</ele>
        <time>2022-07-27T17:39:08Z</time>
      </trkpt>
      <trkpt lat="45.38455" lon="5.81327">
        <ele>1666</ele>
        <time>2022-07-27T17:39:11Z</time>
      </trkpt>
      <trkpt lat="45.38453" lon="5.81328">
        <ele>1666</ele>
        <time>2022-07-27T17:39:13Z</time>
      </trkpt>
      <trkpt lat="45.38453" lon="5.81331">
        <ele>1666</ele>
        <time>2022-07-27T17:39:17Z</time>
      </trkpt>
      <trkpt lat="45.38453" lon="5.81334">
        <ele>1666</ele>
        <time>2022-07-27T17:39:20Z</time>
      </trkpt>
      <trkpt lat="45.38454" lon="5.81336">
        <ele>1666</ele>
        <time>2022-07-27T17:39:23Z</time>
      </trkpt>
      <trkpt lat="45.38454" lon="5.81339">
        <ele>1666</ele>
        <time>2022-07-27T17:39:26Z</time>
      </trkpt>
      <trkpt lat="45.38454" lon="5.81342">
        <ele>1666</ele>
        <time>2022-07-27T17:39:33Z</time>
      </trkpt>
      <trkpt lat="45.38453" lon="5.81345">
        <ele>1666</ele>
        <time>2022-07-27T17:39:37Z</time>
      </trkpt>
      <trkpt lat="45.38453" lon="5.81348">
        <ele>1666</ele>
        <time>2022-07-27T17:39:40Z</time>
      </trkpt>
      <trkpt lat="45.38453" lon="5.81351">
        <ele>1666</ele>
        <time>2022-07-27T17:39:43Z</time>
      </trkpt>
      <trkpt lat="45.38453" lon="5.81354">
        <ele>1666</ele>
        <time>2022-07-27T17:39:46Z</time>
      </trkpt>
      <trkpt lat="45.38453" lon="5.81357">
        <ele>1666</ele>
        <time>2022-07-27T17:39:48Z</time>
      </trkpt>
      <trkpt lat="45.38452" lon="5.8136">
        <ele>1666</ele>
        <time>2022-07-27T17:39:50Z</time>
      </trkpt>
      <trkpt lat="45.38453" lon="5.81363">
        <ele>1666</ele>
        <time>2022-07-27T17:39:52Z</time>
      </trkpt>
      <trkpt lat="45.38453" lon="5.81365">
        <ele>1666</ele>
        <time>2022-07-27T17:39:54Z</time>
      </trkpt>
      <trkpt lat="45.38453" lon="5.81368">
        <ele>1666</ele>
        <time>2022-07-27T17:39:56Z</time>
      </trkpt>
      <trkpt lat="45.38453" lon="5.81371">
        <ele>1666</ele>
        <time>2022-07-27T17:39:58Z</time>
      </trkpt>
      <trkpt lat="45.38453" lon="5.81373">
        <ele>1666</ele>
        <time>2022-07-27T17:40:00Z</time>
      </trkpt>
      <trkpt lat="45.38453" lon="5.81376">
        <ele>1666</ele>
        <time>2022-07-27T17:40:02Z</time>
      </trkpt>
      <trkpt lat="45.38454" lon="5.81379">
        <ele>1666</ele>
        <time>2022-07-27T17:40:04Z</time>
      </trkpt>
      <trkpt lat="45.38454" lon="5.81382">
        <ele>1651</ele>
        <time>2022-07-27T17:40:05Z</time>
      </trkpt>
      <trkpt lat="45.38454" lon="5.81384">
        <ele>1651</ele>
        <time>2022-07-27T17:40:07Z</time>
      </trkpt>
      <trkpt lat="45.38454" lon="5.81388">
        <ele>1651</ele>
        <time>2022-07-27T17:40:10Z</time>
      </trkpt>
      <trkpt lat="45.38454" lon="5.81391">
        <ele>1651</ele>
        <time>2022-07-27T17:40:13Z</time>
      </trkpt>
      <trkpt lat="45.38455" lon="5.81393">
        <ele>1651</ele>
        <time>2022-07-27T17:40:14Z</time>
      </trkpt>
      <trkpt lat="45.38455" lon="5.81396">
        <ele>1651</ele>
        <time>2022-07-27T17:40:17Z</time>
      </trkpt>
      <trkpt lat="45.38455" lon="5.81399">
        <ele>1651</ele>
        <time>2022-07-27T17:40:19Z</time>
      </trkpt>
      <trkpt lat="45.38456" lon="5.81402">
        <ele>1651</ele>
        <time>2022-07-27T17:40:21Z</time>
      </trkpt>
      <trkpt lat="45.38456" lon="5.81405">
        <ele>1651</ele>
        <time>2022-07-27T17:40:23Z</time>
      </trkpt>
      <trkpt lat="45.38457" lon="5.81408">
        <ele>1649</ele>
        <time>2022-07-27T17:40:25Z</time>
      </trkpt>
      <trkpt lat="45.38457" lon="5.8141">
        <ele>1649</ele>
        <time>2022-07-27T17:40:27Z</time>
      </trkpt>
      <trkpt lat="45.38457" lon="5.81413">
        <ele>1649</ele>
        <time>2022-07-27T17:40:29Z</time>
      </trkpt>
      <trkpt lat="45.38456" lon="5.81415">
        <ele>1649</ele>
        <time>2022-07-27T17:40:32Z</time>
      </trkpt>
      <trkpt lat="45.38453" lon="5.81416">
        <ele>1649</ele>
        <time>2022-07-27T17:40:43Z</time>
      </trkpt>
      <trkpt lat="45.38454" lon="5.81419">
        <ele>1649</ele>
        <time>2022-07-27T17:40:55Z</time>
      </trkpt>
      <trkpt lat="45.38455" lon="5.81421">
        <ele>1649</ele>
        <time>2022-07-27T17:40:57Z</time>
      </trkpt>
      <trkpt lat="45.38458" lon="5.81423">
        <ele>1649</ele>
        <time>2022-07-27T17:41:00Z</time>
      </trkpt>
      <trkpt lat="45.3846" lon="5.81425">
        <ele>1649</ele>
        <time>2022-07-27T17:41:02Z</time>
      </trkpt>
      <trkpt lat="45.38462" lon="5.81426">
        <ele>1649</ele>
        <time>2022-07-27T17:41:06Z</time>
      </trkpt>
      <trkpt lat="45.38464" lon="5.81428">
        <ele>1649</ele>
        <time>2022-07-27T17:41:09Z</time>
      </trkpt>
      <trkpt lat="45.38465" lon="5.81431">
        <ele>1649</ele>
        <time>2022-07-27T17:41:11Z</time>
      </trkpt>
      <trkpt lat="45.38465" lon="5.81433">
        <ele>1649</ele>
        <time>2022-07-27T17:41:13Z</time>
      </trkpt>
      <trkpt lat="45.38466" lon="5.81436">
        <ele>1648</ele>
        <time>2022-07-27T17:41:15Z</time>
      </trkpt>
      <trkpt lat="45.38467" lon="5.81438">
        <ele>1648</ele>
        <time>2022-07-27T17:41:17Z</time>
      </trkpt>
      <trkpt lat="45.38468" lon="5.81441">
        <ele>1648</ele>
        <time>2022-07-27T17:41:19Z</time>
      </trkpt>
      <trkpt lat="45.3847" lon="5.81443">
        <ele>1648</ele>
        <time>2022-07-27T17:41:21Z</time>
      </trkpt>
      <trkpt lat="45.38472" lon="5.81444">
        <ele>1648</ele>
        <time>2022-07-27T17:41:24Z</time>
      </trkpt>
      <trkpt lat="45.38474" lon="5.81446">
        <ele>1648</ele>
        <time>2022-07-27T17:41:26Z</time>
      </trkpt>
      <trkpt lat="45.38477" lon="5.81447">
        <ele>1648</ele>
        <time>2022-07-27T17:41:29Z</time>
      </trkpt>
      <trkpt lat="45.38479" lon="5.81448">
        <ele>1648</ele>
        <time>2022-07-27T17:41:32Z</time>
      </trkpt>
      <trkpt lat="45.38481" lon="5.81449">
        <ele>1648</ele>
        <time>2022-07-27T17:41:34Z</time>
      </trkpt>
      <trkpt lat="45.38483" lon="5.81451">
        <ele>1648</ele>
        <time>2022-07-27T17:41:36Z</time>
      </trkpt>
      <trkpt lat="45.38484" lon="5.81453">
        <ele>1648</ele>
        <time>2022-07-27T17:41:38Z</time>
      </trkpt>
      <trkpt lat="45.38482" lon="5.81452">
        <ele>1648</ele>
        <time>2022-07-27T17:41:44Z</time>
      </trkpt>
      <trkpt lat="45.38481" lon="5.8145">
        <ele>1648</ele>
        <time>2022-07-27T17:41:46Z</time>
      </trkpt>
      <trkpt lat="45.38478" lon="5.81449">
        <ele>1648</ele>
        <time>2022-07-27T17:41:48Z</time>
      </trkpt>
      <trkpt lat="45.38476" lon="5.81448">
        <ele>1648</ele>
        <time>2022-07-27T17:41:50Z</time>
      </trkpt>
      <trkpt lat="45.38474" lon="5.81448">
        <ele>1648</ele>
        <time>2022-07-27T17:41:52Z</time>
      </trkpt>
      <trkpt lat="45.38472" lon="5.81447">
        <ele>1644</ele>
        <time>2022-07-27T17:41:55Z</time>
      </trkpt>
      <trkpt lat="45.3847" lon="5.81445">
        <ele>1644</ele>
        <time>2022-07-27T17:41:57Z</time>
      </trkpt>
      <trkpt lat="45.38468" lon="5.81444">
        <ele>1644</ele>
        <time>2022-07-27T17:41:59Z</time>
      </trkpt>
      <trkpt lat="45.38466" lon="5.81442">
        <ele>1644</ele>
        <time>2022-07-27T17:42:01Z</time>
      </trkpt>
      <trkpt lat="45.38465" lon="5.8144">
        <ele>1644</ele>
        <time>2022-07-27T17:42:03Z</time>
      </trkpt>
      <trkpt lat="45.38464" lon="5.81438">
        <ele>1646</ele>
        <time>2022-07-27T17:42:05Z</time>
      </trkpt>
      <trkpt lat="45.38462" lon="5.81436">
        <ele>1646</ele>
        <time>2022-07-27T17:42:07Z</time>
      </trkpt>
      <trkpt lat="45.38461" lon="5.81433">
        <ele>1646</ele>
        <time>2022-07-27T17:42:09Z</time>
      </trkpt>
      <trkpt lat="45.38461" lon="5.8143">
        <ele>1646</ele>
        <time>2022-07-27T17:42:11Z</time>
      </trkpt>
      <trkpt lat="45.3846" lon="5.81427">
        <ele>1646</ele>
        <time>2022-07-27T17:42:13Z</time>
      </trkpt>
      <trkpt lat="45.38458" lon="5.81426">
        <ele>1646</ele>
        <time>2022-07-27T17:42:16Z</time>
      </trkpt>
      <trkpt lat="45.38455" lon="5.81424">
        <ele>1646</ele>
        <time>2022-07-27T17:42:18Z</time>
      </trkpt>
      <trkpt lat="45.38454" lon="5.81423">
        <ele>1646</ele>
        <time>2022-07-27T17:42:20Z</time>
      </trkpt>
      <trkpt lat="45.38452" lon="5.81421">
        <ele>1646</ele>
        <time>2022-07-27T17:42:23Z</time>
      </trkpt>
      <trkpt lat="45.38451" lon="5.81419">
        <ele>1648</ele>
        <time>2022-07-27T17:42:25Z</time>
      </trkpt>
      <trkpt lat="45.38449" lon="5.81417">
        <ele>1648</ele>
        <time>2022-07-27T17:42:28Z</time>
      </trkpt>
      <trkpt lat="45.38448" lon="5.81414">
        <ele>1648</ele>
        <time>2022-07-27T17:42:33Z</time>
      </trkpt>
      <trkpt lat="45.3845" lon="5.81416">
        <ele>1648</ele>
        <time>2022-07-27T17:42:38Z</time>
      </trkpt>
      <trkpt lat="45.38451" lon="5.81418">
        <ele>1648</ele>
        <time>2022-07-27T17:42:40Z</time>
      </trkpt>
      <trkpt lat="45.38453" lon="5.81421">
        <ele>1648</ele>
        <time>2022-07-27T17:42:42Z</time>
      </trkpt>
      <trkpt lat="45.38454" lon="5.81422">
        <ele>1648</ele>
        <time>2022-07-27T17:42:44Z</time>
      </trkpt>
      <trkpt lat="45.38456" lon="5.81423">
        <ele>1648</ele>
        <time>2022-07-27T17:42:46Z</time>
      </trkpt>
      <trkpt lat="45.38458" lon="5.81425">
        <ele>1648</ele>
        <time>2022-07-27T17:42:49Z</time>
      </trkpt>
      <trkpt lat="45.3846" lon="5.81427">
        <ele>1648</ele>
        <time>2022-07-27T17:42:52Z</time>
      </trkpt>
      <trkpt lat="45.38462" lon="5.81429">
        <ele>1648</ele>
        <time>2022-07-27T17:42:54Z</time>
      </trkpt>
      <trkpt lat="45.38462" lon="5.81431">
        <ele>1648</ele>
        <time>2022-07-27T17:42:56Z</time>
      </trkpt>
      <trkpt lat="45.38463" lon="5.81434">
        <ele>1648</ele>
        <time>2022-07-27T17:42:58Z</time>
      </trkpt>
      <trkpt lat="45.38465" lon="5.81435">
        <ele>1648</ele>
        <time>2022-07-27T17:43:00Z</time>
      </trkpt>
      <trkpt lat="45.38467" lon="5.81438">
        <ele>1648</ele>
        <time>2022-07-27T17:43:02Z</time>
      </trkpt>
      <trkpt lat="45.38469" lon="5.8144">
        <ele>1648</ele>
        <time>2022-07-27T17:43:04Z</time>
      </trkpt>
      <trkpt lat="45.3847" lon="5.81442">
        <ele>1648</ele>
        <time>2022-07-27T17:43:06Z</time>
      </trkpt>
      <trkpt lat="45.38471" lon="5.81444">
        <ele>1648</ele>
        <time>2022-07-27T17:43:08Z</time>
      </trkpt>
      <trkpt lat="45.38473" lon="5.81446">
        <ele>1648</ele>
        <time>2022-07-27T17:43:11Z</time>
      </trkpt>
      <trkpt lat="45.38475" lon="5.81448">
        <ele>1648</ele>
        <time>2022-07-27T17:43:13Z</time>
      </trkpt>
      <trkpt lat="45.38477" lon="5.81448">
        <ele>1646</ele>
        <time>2022-07-27T17:43:15Z</time>
      </trkpt>
      <trkpt lat="45.38479" lon="5.81449">
        <ele>1646</ele>
        <time>2022-07-27T17:43:18Z</time>
      </trkpt>
      <trkpt lat="45.38481" lon="5.81451">
        <ele>1646</ele>
        <time>2022-07-27T17:43:20Z</time>
      </trkpt>
      <trkpt lat="45.38483" lon="5.81453">
        <ele>1646</ele>
        <time>2022-07-27T17:43:22Z</time>
      </trkpt>
      <trkpt lat="45.38485" lon="5.81455">
        <ele>1646</ele>
        <time>2022-07-27T17:43:24Z</time>
      </trkpt>
      <trkpt lat="45.38486" lon="5.81457">
        <ele>1646</ele>
        <time>2022-07-27T17:43:26Z</time>
      </trkpt>
      <trkpt lat="45.38488" lon="5.81458">
        <ele>1646</ele>
        <time>2022-07-27T17:43:28Z</time>
      </trkpt>
      <trkpt lat="45.3849" lon="5.81459">
        <ele>1646</ele>
        <time>2022-07-27T17:43:30Z</time>
      </trkpt>
      <trkpt lat="45.38492" lon="5.8146">
        <ele>1646</ele>
        <time>2022-07-27T17:43:32Z</time>
      </trkpt>
      <trkpt lat="45.38492" lon="5.81458">
        <ele>1646</ele>
        <time>2022-07-27T17:44:07Z</time>
      </trkpt>
      <trkpt lat="45.38491" lon="5.81455">
        <ele>1646</ele>
        <time>2022-07-27T17:45:37Z</time>
      </trkpt>
      <trkpt lat="45.38491" lon="5.81458">
        <ele>1646</ele>
        <time>2022-07-27T17:46:01Z</time>
      </trkpt>
      <trkpt lat="45.3849" lon="5.8146">
        <ele>1646</ele>
        <time>2022-07-27T17:47:33Z</time>
      </trkpt>
      <trkpt lat="45.38492" lon="5.81459">
        <ele>1646</ele>
        <time>2022-07-27T17:47:53Z</time>
      </trkpt>
      <trkpt lat="45.38491" lon="5.81461">
        <ele>1646</ele>
        <time>2022-07-27T17:48:03Z</time>
      </trkpt>
      <trkpt lat="45.38489" lon="5.81462">
        <ele>1646</ele>
        <time>2022-07-27T17:48:08Z</time>
      </trkpt>
      <trkpt lat="45.38489" lon="5.81459">
        <ele>1646</ele>
        <time>2022-07-27T17:48:14Z</time>
      </trkpt>
      <trkpt lat="45.38491" lon="5.81458">
        <ele>1646</ele>
        <time>2022-07-27T17:48:24Z</time>
      </trkpt>
      <trkpt lat="45.3849" lon="5.81461">
        <ele>1646</ele>
        <time>2022-07-27T17:48:58Z</time>
      </trkpt>
      <trkpt lat="45.38489" lon="5.81462">
        <ele>1646</ele>
        <time>2022-07-27T17:49:07Z</time>
      </trkpt>
      <trkpt lat="45.3849" lon="5.81459">
        <ele>1646</ele>
        <time>2022-07-27T17:49:28Z</time>
      </trkpt>
      <trkpt lat="45.38491" lon="5.81462">
        <ele>1646</ele>
        <time>2022-07-27T17:49:31Z</time>
      </trkpt>
      <trkpt lat="45.38489" lon="5.8146">
        <ele>1646</ele>
        <time>2022-07-27T17:49:47Z</time>
      </trkpt>
      <trkpt lat="45.3849" lon="5.81458">
        <ele>1646</ele>
        <time>2022-07-27T17:49:52Z</time>
      </trkpt>
      <trkpt lat="45.38492" lon="5.8146">
        <ele>1646</ele>
        <time>2022-07-27T17:49:57Z</time>
      </trkpt>
      <trkpt lat="45.38492" lon="5.81457">
        <ele>1646</ele>
        <time>2022-07-27T17:50:08Z</time>
      </trkpt>
      <trkpt lat="45.3849" lon="5.81456">
        <ele>1646</ele>
        <time>2022-07-27T17:50:26Z</time>
      </trkpt>
      <trkpt lat="45.38491" lon="5.81459">
        <ele>1646</ele>
        <time>2022-07-27T17:50:34Z</time>
      </trkpt>
      <trkpt lat="45.38492" lon="5.81457">
        <ele>1646</ele>
        <time>2022-07-27T17:52:17Z</time>
      </trkpt>
      <trkpt lat="45.38492" lon="5.81459">
        <ele>1646</ele>
        <time>2022-07-27T17:53:40Z</time>
      </trkpt>
      <trkpt lat="45.38494" lon="5.81459">
        <ele>1642</ele>
        <time>2022-07-27T17:53:55Z</time>
      </trkpt>
      <trkpt lat="45.38492" lon="5.81458">
        <ele>1642</ele>
        <time>2022-07-27T17:54:21Z</time>
      </trkpt>
      <trkpt lat="45.38491" lon="5.81457">
        <ele>1642</ele>
        <time>2022-07-27T17:55:01Z</time>
      </trkpt>
      <trkpt lat="45.38491" lon="5.81457">
        <ele>1643</ele>
        <time>2022-07-27T17:56:52Z</time>
      </trkpt>
    </trkseg>
  </trk>
</gpx>